<?xml version="1.0" encoding="UTF-8" standalone="no" ?>
<gpx xmlns="http://www.topografix.com/GPX/1/1" xmlns:xsi="http://www.w3.org/2001/XMLSchema-instance" xsi:schemaLocation="http://www.topografix.com/GPX/1/1 http://www.topografix.com/GPX/1/1/gpx.xsd" version="1.1" creator="VisuGPX - https://www.visugpx.com">
  <metadata>
    <name>rando vtt st martin d estreaux</name>
    <desc><![CDATA[rando vtt du 11 11 2011,circuit  roulant avecpas mal de portion route.
Attention le circuit original part a gauche au km 15.3 pour le rejoindre au km 22.4 en passant par le calvaire]]></desc>
  </metadata>
  <trk>
    <name><![CDATA[2011-11-11 08:07]]></name>
    <desc><![CDATA[<h1>OruxMaps</h1><br /><hr align="center" width="480" style="height: 2px; width: 517px"/><h2>Nom: 2011-11-11 08:07</h2><br /><p>Temps de départ: 11/11/2011 08:07</p><p>Temps d'arrivée: 11/11/2011 12:19</p><p>Distance: 42,5 km (04:11)</p><p>Temps déplacement: 02:34</p><p>Vitesse moyenne: 10,1 km/h</p><p>Vitesse moyenne: 16,4 km/h</p><p>Vitess Max.: 50 km/h</p><p>Altitude minimale: 396 m</p><p>Altitude maximale: 750 m</p><p>Vitesse d'élévation: 479,4 m/h</p><p>Vitesse de descente: -1229,7 m/h</p><p>Gain Altitude: 1316 m</p><p>Perte Altitude: -1294 m</p><p>Temps d'élévation: 02:44</p><p>Temps de descente: 01:03</p><hr align="center" width="480" style="height: 2px; width: 517px"/>]]></desc>
    <trkseg>
      <trkpt lat="46.20429" lon="3.79957">
        <ele>528.7503</ele>
        <time>2011-11-11T07:07:54Z</time>
      </trkpt>
      <trkpt lat="46.20447" lon="3.7996">
        <ele>531.00055</ele>
        <time>2011-11-11T07:12:47Z</time>
      </trkpt>
      <trkpt lat="46.20466" lon="3.79955">
        <ele>531</ele>
        <time>2011-11-11T07:13:08Z</time>
      </trkpt>
      <trkpt lat="46.20484" lon="3.79955">
        <ele>531</ele>
        <time>2011-11-11T07:13:17Z</time>
      </trkpt>
      <trkpt lat="46.20497" lon="3.79934">
        <ele>531.9249</ele>
        <time>2011-11-11T07:13:26Z</time>
      </trkpt>
      <trkpt lat="46.20504" lon="3.79906">
        <ele>531.9925</ele>
        <time>2011-11-11T07:13:34Z</time>
      </trkpt>
      <trkpt lat="46.20511" lon="3.79878">
        <ele>532.68304</ele>
        <time>2011-11-11T07:13:43Z</time>
      </trkpt>
      <trkpt lat="46.2051" lon="3.79848">
        <ele>534.4375</ele>
        <time>2011-11-11T07:13:48Z</time>
      </trkpt>
      <trkpt lat="46.20506" lon="3.79822">
        <ele>536.9346</ele>
        <time>2011-11-11T07:13:51Z</time>
      </trkpt>
      <trkpt lat="46.20505" lon="3.79788">
        <ele>538.3465</ele>
        <time>2011-11-11T07:13:55Z</time>
      </trkpt>
      <trkpt lat="46.20505" lon="3.79758">
        <ele>537.7776</ele>
        <time>2011-11-11T07:13:59Z</time>
      </trkpt>
      <trkpt lat="46.20505" lon="3.79726">
        <ele>536.31244</ele>
        <time>2011-11-11T07:14:03Z</time>
      </trkpt>
      <trkpt lat="46.20506" lon="3.79694">
        <ele>535.4153</ele>
        <time>2011-11-11T07:14:07Z</time>
      </trkpt>
      <trkpt lat="46.20507" lon="3.79663">
        <ele>534.9252</ele>
        <time>2011-11-11T07:14:10Z</time>
      </trkpt>
      <trkpt lat="46.20511" lon="3.79627">
        <ele>534.1403</ele>
        <time>2011-11-11T07:14:13Z</time>
      </trkpt>
      <trkpt lat="46.20513" lon="3.79601">
        <ele>533.6414</ele>
        <time>2011-11-11T07:14:15Z</time>
      </trkpt>
      <trkpt lat="46.20516" lon="3.79567">
        <ele>532.3331</ele>
        <time>2011-11-11T07:14:18Z</time>
      </trkpt>
      <trkpt lat="46.20519" lon="3.79535">
        <ele>529.1405</ele>
        <time>2011-11-11T07:14:21Z</time>
      </trkpt>
      <trkpt lat="46.20521" lon="3.79505">
        <ele>526.49677</ele>
        <time>2011-11-11T07:14:24Z</time>
      </trkpt>
      <trkpt lat="46.20525" lon="3.79475">
        <ele>523.52435</ele>
        <time>2011-11-11T07:14:28Z</time>
      </trkpt>
      <trkpt lat="46.20543" lon="3.7947">
        <ele>521.337</ele>
        <time>2011-11-11T07:14:35Z</time>
      </trkpt>
      <trkpt lat="46.2056" lon="3.79479">
        <ele>519.38074</ele>
        <time>2011-11-11T07:14:40Z</time>
      </trkpt>
      <trkpt lat="46.2057" lon="3.79451">
        <ele>517.64404</ele>
        <time>2011-11-11T07:14:45Z</time>
      </trkpt>
      <trkpt lat="46.20577" lon="3.79421">
        <ele>517.4538</ele>
        <time>2011-11-11T07:14:49Z</time>
      </trkpt>
      <trkpt lat="46.20585" lon="3.79393">
        <ele>517.7696</ele>
        <time>2011-11-11T07:14:52Z</time>
      </trkpt>
      <trkpt lat="46.20594" lon="3.79361">
        <ele>517.9028</ele>
        <time>2011-11-11T07:14:55Z</time>
      </trkpt>
      <trkpt lat="46.20603" lon="3.79331">
        <ele>517.5215</ele>
        <time>2011-11-11T07:14:58Z</time>
      </trkpt>
      <trkpt lat="46.20609" lon="3.79297">
        <ele>516.53253</ele>
        <time>2011-11-11T07:15:01Z</time>
      </trkpt>
      <trkpt lat="46.20613" lon="3.79271">
        <ele>515.17456</ele>
        <time>2011-11-11T07:15:03Z</time>
      </trkpt>
      <trkpt lat="46.20617" lon="3.79239">
        <ele>512.65173</ele>
        <time>2011-11-11T07:15:06Z</time>
      </trkpt>
      <trkpt lat="46.20624" lon="3.79211">
        <ele>508.8367</ele>
        <time>2011-11-11T07:15:15Z</time>
      </trkpt>
      <trkpt lat="46.20634" lon="3.79187">
        <ele>506.89365</ele>
        <time>2011-11-11T07:15:19Z</time>
      </trkpt>
      <trkpt lat="46.20646" lon="3.79161">
        <ele>505.7989</ele>
        <time>2011-11-11T07:15:22Z</time>
      </trkpt>
      <trkpt lat="46.20656" lon="3.79131">
        <ele>504.89954</ele>
        <time>2011-11-11T07:15:25Z</time>
      </trkpt>
      <trkpt lat="46.20669" lon="3.79103">
        <ele>502.9135</ele>
        <time>2011-11-11T07:15:29Z</time>
      </trkpt>
      <trkpt lat="46.20683" lon="3.79082">
        <ele>501.4541</ele>
        <time>2011-11-11T07:15:34Z</time>
      </trkpt>
      <trkpt lat="46.20684" lon="3.79054">
        <ele>501.14368</ele>
        <time>2011-11-11T07:15:38Z</time>
      </trkpt>
      <trkpt lat="46.20681" lon="3.79024">
        <ele>501.0341</ele>
        <time>2011-11-11T07:15:43Z</time>
      </trkpt>
      <trkpt lat="46.20676" lon="3.78996">
        <ele>500.3245</ele>
        <time>2011-11-11T07:15:48Z</time>
      </trkpt>
      <trkpt lat="46.20672" lon="3.78968">
        <ele>500.077</ele>
        <time>2011-11-11T07:15:53Z</time>
      </trkpt>
      <trkpt lat="46.20667" lon="3.7894">
        <ele>499.7637</ele>
        <time>2011-11-11T07:15:59Z</time>
      </trkpt>
      <trkpt lat="46.20664" lon="3.78912">
        <ele>499.13593</ele>
        <time>2011-11-11T07:16:05Z</time>
      </trkpt>
      <trkpt lat="46.20662" lon="3.78885">
        <ele>499.03226</ele>
        <time>2011-11-11T07:16:10Z</time>
      </trkpt>
      <trkpt lat="46.20659" lon="3.78852">
        <ele>499.58832</ele>
        <time>2011-11-11T07:16:14Z</time>
      </trkpt>
      <trkpt lat="46.20654" lon="3.78824">
        <ele>499.86975</ele>
        <time>2011-11-11T07:16:18Z</time>
      </trkpt>
      <trkpt lat="46.20649" lon="3.78799">
        <ele>499.9768</ele>
        <time>2011-11-11T07:16:24Z</time>
      </trkpt>
      <trkpt lat="46.20639" lon="3.78775">
        <ele>499</ele>
        <time>2011-11-11T07:17:08Z</time>
      </trkpt>
      <trkpt lat="46.20631" lon="3.78752">
        <ele>499</ele>
        <time>2011-11-11T07:17:16Z</time>
      </trkpt>
      <trkpt lat="46.2062" lon="3.78728">
        <ele>499.4375</ele>
        <time>2011-11-11T07:17:25Z</time>
      </trkpt>
      <trkpt lat="46.20615" lon="3.78702">
        <ele>499.96832</ele>
        <time>2011-11-11T07:17:35Z</time>
      </trkpt>
      <trkpt lat="46.20611" lon="3.78676">
        <ele>499.99823</ele>
        <time>2011-11-11T07:17:45Z</time>
      </trkpt>
      <trkpt lat="46.20609" lon="3.78651">
        <ele>501.33725</ele>
        <time>2011-11-11T07:17:54Z</time>
      </trkpt>
      <trkpt lat="46.20607" lon="3.78623">
        <ele>503.08853</ele>
        <time>2011-11-11T07:18:05Z</time>
      </trkpt>
      <trkpt lat="46.20605" lon="3.78597">
        <ele>504.31583</ele>
        <time>2011-11-11T07:18:12Z</time>
      </trkpt>
      <trkpt lat="46.20601" lon="3.78571">
        <ele>506.40613</ele>
        <time>2011-11-11T07:18:22Z</time>
      </trkpt>
      <trkpt lat="46.20599" lon="3.78601">
        <ele>512.56635</ele>
        <time>2011-11-11T07:18:39Z</time>
      </trkpt>
      <trkpt lat="46.20593" lon="3.78576">
        <ele>515.00977</ele>
        <time>2011-11-11T07:19:01Z</time>
      </trkpt>
      <trkpt lat="46.20591" lon="3.78548">
        <ele>515.43823</ele>
        <time>2011-11-11T07:19:11Z</time>
      </trkpt>
      <trkpt lat="46.2059" lon="3.7852">
        <ele>516.7065</ele>
        <time>2011-11-11T07:19:19Z</time>
      </trkpt>
      <trkpt lat="46.20573" lon="3.78511">
        <ele>519.0076</ele>
        <time>2011-11-11T07:21:59Z</time>
      </trkpt>
      <trkpt lat="46.20555" lon="3.78509">
        <ele>521</ele>
        <time>2011-11-11T07:26:57Z</time>
      </trkpt>
      <trkpt lat="46.20536" lon="3.78507">
        <ele>521</ele>
        <time>2011-11-11T07:27:04Z</time>
      </trkpt>
      <trkpt lat="46.20517" lon="3.78503">
        <ele>521</ele>
        <time>2011-11-11T07:27:10Z</time>
      </trkpt>
      <trkpt lat="46.20498" lon="3.78496">
        <ele>521</ele>
        <time>2011-11-11T07:27:15Z</time>
      </trkpt>
      <trkpt lat="46.20478" lon="3.78483">
        <ele>521</ele>
        <time>2011-11-11T07:27:19Z</time>
      </trkpt>
      <trkpt lat="46.20462" lon="3.7847">
        <ele>520.4219</ele>
        <time>2011-11-11T07:27:22Z</time>
      </trkpt>
      <trkpt lat="46.20443" lon="3.78455">
        <ele>520.1335</ele>
        <time>2011-11-11T07:27:26Z</time>
      </trkpt>
      <trkpt lat="46.20423" lon="3.78451">
        <ele>520.04224</ele>
        <time>2011-11-11T07:27:30Z</time>
      </trkpt>
      <trkpt lat="46.20403" lon="3.78453">
        <ele>520.69696</ele>
        <time>2011-11-11T07:27:34Z</time>
      </trkpt>
      <trkpt lat="46.20384" lon="3.78455">
        <ele>520.6541</ele>
        <time>2011-11-11T07:27:38Z</time>
      </trkpt>
      <trkpt lat="46.20365" lon="3.7846">
        <ele>519.957</ele>
        <time>2011-11-11T07:27:42Z</time>
      </trkpt>
      <trkpt lat="46.20344" lon="3.78466">
        <ele>519.3028</ele>
        <time>2011-11-11T07:27:46Z</time>
      </trkpt>
      <trkpt lat="46.20324" lon="3.7847">
        <ele>519.67395</ele>
        <time>2011-11-11T07:27:50Z</time>
      </trkpt>
      <trkpt lat="46.20301" lon="3.78473">
        <ele>519.89685</ele>
        <time>2011-11-11T07:27:54Z</time>
      </trkpt>
      <trkpt lat="46.20282" lon="3.78475">
        <ele>519.9565</ele>
        <time>2011-11-11T07:27:57Z</time>
      </trkpt>
      <trkpt lat="46.20262" lon="3.78477">
        <ele>519.9816</ele>
        <time>2011-11-11T07:28:00Z</time>
      </trkpt>
      <trkpt lat="46.20237" lon="3.78475">
        <ele>516.8204</ele>
        <time>2011-11-11T07:28:03Z</time>
      </trkpt>
      <trkpt lat="46.20219" lon="3.78475">
        <ele>512.5865</ele>
        <time>2011-11-11T07:28:05Z</time>
      </trkpt>
      <trkpt lat="46.20201" lon="3.78473">
        <ele>505.8299</ele>
        <time>2011-11-11T07:28:07Z</time>
      </trkpt>
      <trkpt lat="46.20176" lon="3.78466">
        <ele>494.2876</ele>
        <time>2011-11-11T07:28:10Z</time>
      </trkpt>
      <trkpt lat="46.20152" lon="3.78462">
        <ele>486.49634</ele>
        <time>2011-11-11T07:28:13Z</time>
      </trkpt>
      <trkpt lat="46.20132" lon="3.78458">
        <ele>482.74063</ele>
        <time>2011-11-11T07:28:16Z</time>
      </trkpt>
      <trkpt lat="46.20114" lon="3.78445">
        <ele>480.90036</ele>
        <time>2011-11-11T07:28:22Z</time>
      </trkpt>
      <trkpt lat="46.20113" lon="3.78412">
        <ele>486.25565</ele>
        <time>2011-11-11T07:28:27Z</time>
      </trkpt>
      <trkpt lat="46.20116" lon="3.78382">
        <ele>490.327</ele>
        <time>2011-11-11T07:28:31Z</time>
      </trkpt>
      <trkpt lat="46.20111" lon="3.78355">
        <ele>492.3098</ele>
        <time>2011-11-11T07:28:34Z</time>
      </trkpt>
      <trkpt lat="46.20104" lon="3.7832">
        <ele>493.28696</ele>
        <time>2011-11-11T07:28:37Z</time>
      </trkpt>
      <trkpt lat="46.20098" lon="3.78294">
        <ele>493.5989</ele>
        <time>2011-11-11T07:28:39Z</time>
      </trkpt>
      <trkpt lat="46.20092" lon="3.78269">
        <ele>493.77438</ele>
        <time>2011-11-11T07:28:41Z</time>
      </trkpt>
      <trkpt lat="46.20084" lon="3.78243">
        <ele>493.6231</ele>
        <time>2011-11-11T07:28:43Z</time>
      </trkpt>
      <trkpt lat="46.20072" lon="3.78217">
        <ele>493.3505</ele>
        <time>2011-11-11T07:28:45Z</time>
      </trkpt>
      <trkpt lat="46.20056" lon="3.78196">
        <ele>493.19714</ele>
        <time>2011-11-11T07:28:47Z</time>
      </trkpt>
      <trkpt lat="46.2004" lon="3.78179">
        <ele>492.9234</ele>
        <time>2011-11-11T07:28:49Z</time>
      </trkpt>
      <trkpt lat="46.20023" lon="3.78161">
        <ele>492.9569</ele>
        <time>2011-11-11T07:28:51Z</time>
      </trkpt>
      <trkpt lat="46.20008" lon="3.78144">
        <ele>492.53827</ele>
        <time>2011-11-11T07:28:53Z</time>
      </trkpt>
      <trkpt lat="46.19996" lon="3.78116">
        <ele>491.53958</ele>
        <time>2011-11-11T07:28:56Z</time>
      </trkpt>
      <trkpt lat="46.19995" lon="3.78086">
        <ele>489.38388</ele>
        <time>2011-11-11T07:28:59Z</time>
      </trkpt>
      <trkpt lat="46.19996" lon="3.78054">
        <ele>486.74008</ele>
        <time>2011-11-11T07:29:02Z</time>
      </trkpt>
      <trkpt lat="46.19999" lon="3.78028">
        <ele>484.14035</ele>
        <time>2011-11-11T07:29:05Z</time>
      </trkpt>
      <trkpt lat="46.20006" lon="3.78003">
        <ele>481.4155</ele>
        <time>2011-11-11T07:29:09Z</time>
      </trkpt>
      <trkpt lat="46.20008" lon="3.77975">
        <ele>479.6523</ele>
        <time>2011-11-11T07:29:14Z</time>
      </trkpt>
      <trkpt lat="46.19986" lon="3.77958">
        <ele>477.45166</ele>
        <time>2011-11-11T07:29:20Z</time>
      </trkpt>
      <trkpt lat="46.19963" lon="3.77949">
        <ele>476.26538</ele>
        <time>2011-11-11T07:29:25Z</time>
      </trkpt>
      <trkpt lat="46.19943" lon="3.7797">
        <ele>476.08398</ele>
        <time>2011-11-11T07:29:29Z</time>
      </trkpt>
      <trkpt lat="46.1992" lon="3.77992">
        <ele>476.03543</ele>
        <time>2011-11-11T07:29:32Z</time>
      </trkpt>
      <trkpt lat="46.19901" lon="3.78007">
        <ele>476.01993</ele>
        <time>2011-11-11T07:29:34Z</time>
      </trkpt>
      <trkpt lat="46.19881" lon="3.7802">
        <ele>475.7612</ele>
        <time>2011-11-11T07:29:36Z</time>
      </trkpt>
      <trkpt lat="46.19859" lon="3.78031">
        <ele>474.7407</ele>
        <time>2011-11-11T07:29:38Z</time>
      </trkpt>
      <trkpt lat="46.19839" lon="3.78041">
        <ele>472.85413</ele>
        <time>2011-11-11T07:29:40Z</time>
      </trkpt>
      <trkpt lat="46.19821" lon="3.78054">
        <ele>470.37598</ele>
        <time>2011-11-11T07:29:43Z</time>
      </trkpt>
      <trkpt lat="46.19814" lon="3.78028">
        <ele>467.3018</ele>
        <time>2011-11-11T07:29:49Z</time>
      </trkpt>
      <trkpt lat="46.19817" lon="3.77996">
        <ele>465.4783</ele>
        <time>2011-11-11T07:29:53Z</time>
      </trkpt>
      <trkpt lat="46.19822" lon="3.77966">
        <ele>463.88962</ele>
        <time>2011-11-11T07:29:57Z</time>
      </trkpt>
      <trkpt lat="46.19825" lon="3.7794">
        <ele>462.79718</ele>
        <time>2011-11-11T07:30:00Z</time>
      </trkpt>
      <trkpt lat="46.19828" lon="3.77915">
        <ele>461.75818</ele>
        <time>2011-11-11T07:30:03Z</time>
      </trkpt>
      <trkpt lat="46.19829" lon="3.77887">
        <ele>460.05423</ele>
        <time>2011-11-11T07:30:06Z</time>
      </trkpt>
      <trkpt lat="46.19827" lon="3.77859">
        <ele>457.851</ele>
        <time>2011-11-11T07:30:09Z</time>
      </trkpt>
      <trkpt lat="46.19823" lon="3.77831">
        <ele>455.76526</ele>
        <time>2011-11-11T07:30:12Z</time>
      </trkpt>
      <trkpt lat="46.19817" lon="3.77803">
        <ele>454.30722</ele>
        <time>2011-11-11T07:30:15Z</time>
      </trkpt>
      <trkpt lat="46.19811" lon="3.77777">
        <ele>453.30148</ele>
        <time>2011-11-11T07:30:18Z</time>
      </trkpt>
      <trkpt lat="46.19807" lon="3.77747">
        <ele>452.54907</ele>
        <time>2011-11-11T07:30:21Z</time>
      </trkpt>
      <trkpt lat="46.19802" lon="3.77717">
        <ele>451.98163</ele>
        <time>2011-11-11T07:30:24Z</time>
      </trkpt>
      <trkpt lat="46.19806" lon="3.77687">
        <ele>451.41412</ele>
        <time>2011-11-11T07:30:27Z</time>
      </trkpt>
      <trkpt lat="46.19811" lon="3.77661">
        <ele>450.5966</ele>
        <time>2011-11-11T07:30:30Z</time>
      </trkpt>
      <trkpt lat="46.1982" lon="3.77636">
        <ele>448.11105</ele>
        <time>2011-11-11T07:30:33Z</time>
      </trkpt>
      <trkpt lat="46.1983" lon="3.77612">
        <ele>444.1445</ele>
        <time>2011-11-11T07:30:37Z</time>
      </trkpt>
      <trkpt lat="46.1984" lon="3.77586">
        <ele>442.67853</ele>
        <time>2011-11-11T07:30:41Z</time>
      </trkpt>
      <trkpt lat="46.19853" lon="3.77563">
        <ele>442.60922</ele>
        <time>2011-11-11T07:30:45Z</time>
      </trkpt>
      <trkpt lat="46.19868" lon="3.77541">
        <ele>444.57556</ele>
        <time>2011-11-11T07:30:49Z</time>
      </trkpt>
      <trkpt lat="46.19871" lon="3.77513">
        <ele>446.6704</ele>
        <time>2011-11-11T07:30:53Z</time>
      </trkpt>
      <trkpt lat="46.1987" lon="3.77483">
        <ele>448.7004</ele>
        <time>2011-11-11T07:30:57Z</time>
      </trkpt>
      <trkpt lat="46.19868" lon="3.77451">
        <ele>449.5888</ele>
        <time>2011-11-11T07:31:01Z</time>
      </trkpt>
      <trkpt lat="46.19866" lon="3.77425">
        <ele>450.40466</ele>
        <time>2011-11-11T07:31:04Z</time>
      </trkpt>
      <trkpt lat="46.19864" lon="3.77398">
        <ele>451.18634</ele>
        <time>2011-11-11T07:31:07Z</time>
      </trkpt>
      <trkpt lat="46.19864" lon="3.77367">
        <ele>451.40674</ele>
        <time>2011-11-11T07:31:10Z</time>
      </trkpt>
      <trkpt lat="46.19864" lon="3.77335">
        <ele>451.1716</ele>
        <time>2011-11-11T07:31:13Z</time>
      </trkpt>
      <trkpt lat="46.19863" lon="3.77303">
        <ele>450.24426</ele>
        <time>2011-11-11T07:31:16Z</time>
      </trkpt>
      <trkpt lat="46.1986" lon="3.77271">
        <ele>449.52493</ele>
        <time>2011-11-11T07:31:19Z</time>
      </trkpt>
      <trkpt lat="46.19857" lon="3.77237">
        <ele>448.97147</ele>
        <time>2011-11-11T07:31:22Z</time>
      </trkpt>
      <trkpt lat="46.19856" lon="3.77204">
        <ele>448.40982</ele>
        <time>2011-11-11T07:31:25Z</time>
      </trkpt>
      <trkpt lat="46.1986" lon="3.77172">
        <ele>448.1729</ele>
        <time>2011-11-11T07:31:28Z</time>
      </trkpt>
      <trkpt lat="46.19867" lon="3.7714">
        <ele>448.07294</ele>
        <time>2011-11-11T07:31:31Z</time>
      </trkpt>
      <trkpt lat="46.19875" lon="3.77112">
        <ele>448.03076</ele>
        <time>2011-11-11T07:31:34Z</time>
      </trkpt>
      <trkpt lat="46.19884" lon="3.77084">
        <ele>448.01297</ele>
        <time>2011-11-11T07:31:37Z</time>
      </trkpt>
      <trkpt lat="46.19894" lon="3.77059">
        <ele>447.75546</ele>
        <time>2011-11-11T07:31:40Z</time>
      </trkpt>
      <trkpt lat="46.19904" lon="3.77031">
        <ele>447.23904</ele>
        <time>2011-11-11T07:31:44Z</time>
      </trkpt>
      <trkpt lat="46.19907" lon="3.77003">
        <ele>447.07562</ele>
        <time>2011-11-11T07:31:48Z</time>
      </trkpt>
      <trkpt lat="46.19894" lon="3.76979">
        <ele>447.02393</ele>
        <time>2011-11-11T07:31:52Z</time>
      </trkpt>
      <trkpt lat="46.19896" lon="3.76953">
        <ele>447.0101</ele>
        <time>2011-11-11T07:31:55Z</time>
      </trkpt>
      <trkpt lat="46.19901" lon="3.76925">
        <ele>446.56677</ele>
        <time>2011-11-11T07:31:58Z</time>
      </trkpt>
      <trkpt lat="46.1991" lon="3.76898">
        <ele>445.8016</ele>
        <time>2011-11-11T07:32:01Z</time>
      </trkpt>
      <trkpt lat="46.19918" lon="3.76872">
        <ele>444.90067</ele>
        <time>2011-11-11T07:32:04Z</time>
      </trkpt>
      <trkpt lat="46.19927" lon="3.76844">
        <ele>444.12997</ele>
        <time>2011-11-11T07:32:07Z</time>
      </trkpt>
      <trkpt lat="46.19934" lon="3.76816">
        <ele>443.4767</ele>
        <time>2011-11-11T07:32:10Z</time>
      </trkpt>
      <trkpt lat="46.19942" lon="3.76788">
        <ele>442.623</ele>
        <time>2011-11-11T07:32:13Z</time>
      </trkpt>
      <trkpt lat="46.19948" lon="3.7676">
        <ele>442.26282</ele>
        <time>2011-11-11T07:32:16Z</time>
      </trkpt>
      <trkpt lat="46.19952" lon="3.76734">
        <ele>442.11087</ele>
        <time>2011-11-11T07:32:19Z</time>
      </trkpt>
      <trkpt lat="46.19943" lon="3.76704">
        <ele>442.0351</ele>
        <time>2011-11-11T07:32:23Z</time>
      </trkpt>
      <trkpt lat="46.19926" lon="3.76685">
        <ele>442.0148</ele>
        <time>2011-11-11T07:32:26Z</time>
      </trkpt>
      <trkpt lat="46.19909" lon="3.76672">
        <ele>442.00626</ele>
        <time>2011-11-11T07:32:29Z</time>
      </trkpt>
      <trkpt lat="46.19899" lon="3.76647">
        <ele>442.0015</ele>
        <time>2011-11-11T07:32:34Z</time>
      </trkpt>
      <trkpt lat="46.19895" lon="3.76621">
        <ele>442.00027</ele>
        <time>2011-11-11T07:32:40Z</time>
      </trkpt>
      <trkpt lat="46.19895" lon="3.76593">
        <ele>442.00003</ele>
        <time>2011-11-11T07:32:47Z</time>
      </trkpt>
      <trkpt lat="46.1989" lon="3.76565">
        <ele>442</ele>
        <time>2011-11-11T07:32:56Z</time>
      </trkpt>
      <trkpt lat="46.19889" lon="3.76535">
        <ele>443.11652</ele>
        <time>2011-11-11T07:33:07Z</time>
      </trkpt>
      <trkpt lat="46.19893" lon="3.76507">
        <ele>444.59515</ele>
        <time>2011-11-11T07:33:15Z</time>
      </trkpt>
      <trkpt lat="46.19885" lon="3.76483">
        <ele>447.53897</ele>
        <time>2011-11-11T07:33:27Z</time>
      </trkpt>
      <trkpt lat="46.19881" lon="3.76458">
        <ele>449.33646</ele>
        <time>2011-11-11T07:33:37Z</time>
      </trkpt>
      <trkpt lat="46.19893" lon="3.76426">
        <ele>453.48148</ele>
        <time>2011-11-11T07:34:01Z</time>
      </trkpt>
      <trkpt lat="46.19872" lon="3.76436">
        <ele>459.05676</ele>
        <time>2011-11-11T07:34:29Z</time>
      </trkpt>
      <trkpt lat="46.19861" lon="3.7646">
        <ele>461.31183</ele>
        <time>2011-11-11T07:34:37Z</time>
      </trkpt>
      <trkpt lat="46.19846" lon="3.76479">
        <ele>462.8494</ele>
        <time>2011-11-11T07:34:42Z</time>
      </trkpt>
      <trkpt lat="46.19836" lon="3.76503">
        <ele>464.23273</ele>
        <time>2011-11-11T07:34:48Z</time>
      </trkpt>
      <trkpt lat="46.19827" lon="3.76526">
        <ele>466.32333</ele>
        <time>2011-11-11T07:34:56Z</time>
      </trkpt>
      <trkpt lat="46.19807" lon="3.76548">
        <ele>469.40384</ele>
        <time>2011-11-11T07:35:09Z</time>
      </trkpt>
      <trkpt lat="46.19789" lon="3.76565">
        <ele>472.9483</ele>
        <time>2011-11-11T07:35:20Z</time>
      </trkpt>
      <trkpt lat="46.19768" lon="3.76586">
        <ele>476.38</ele>
        <time>2011-11-11T07:35:29Z</time>
      </trkpt>
      <trkpt lat="46.1976" lon="3.7661">
        <ele>479.18665</ele>
        <time>2011-11-11T07:35:33Z</time>
      </trkpt>
      <trkpt lat="46.19753" lon="3.76638">
        <ele>482.37546</ele>
        <time>2011-11-11T07:35:37Z</time>
      </trkpt>
      <trkpt lat="46.19755" lon="3.76666">
        <ele>487.0891</ele>
        <time>2011-11-11T07:35:42Z</time>
      </trkpt>
      <trkpt lat="46.19758" lon="3.76692">
        <ele>491.77115</ele>
        <time>2011-11-11T07:35:47Z</time>
      </trkpt>
      <trkpt lat="46.19762" lon="3.76717">
        <ele>496.3091</ele>
        <time>2011-11-11T07:35:53Z</time>
      </trkpt>
      <trkpt lat="46.19763" lon="3.76747">
        <ele>499.8619</ele>
        <time>2011-11-11T07:35:59Z</time>
      </trkpt>
      <trkpt lat="46.19753" lon="3.76771">
        <ele>500.886</ele>
        <time>2011-11-11T07:36:03Z</time>
      </trkpt>
      <trkpt lat="46.19747" lon="3.76797">
        <ele>500.52643</ele>
        <time>2011-11-11T07:36:07Z</time>
      </trkpt>
      <trkpt lat="46.19749" lon="3.76822">
        <ele>499.0038</ele>
        <time>2011-11-11T07:36:12Z</time>
      </trkpt>
      <trkpt lat="46.19749" lon="3.7685">
        <ele>496.87448</ele>
        <time>2011-11-11T07:36:19Z</time>
      </trkpt>
      <trkpt lat="46.19742" lon="3.76878">
        <ele>495.14294</ele>
        <time>2011-11-11T07:36:25Z</time>
      </trkpt>
      <trkpt lat="46.19728" lon="3.76898">
        <ele>493.4431</ele>
        <time>2011-11-11T07:36:30Z</time>
      </trkpt>
      <trkpt lat="46.1971" lon="3.76906">
        <ele>487.6441</ele>
        <time>2011-11-11T07:36:34Z</time>
      </trkpt>
      <trkpt lat="46.1969" lon="3.76915">
        <ele>478.37958</ele>
        <time>2011-11-11T07:36:38Z</time>
      </trkpt>
      <trkpt lat="46.19679" lon="3.76936">
        <ele>473.0029</ele>
        <time>2011-11-11T07:36:42Z</time>
      </trkpt>
      <trkpt lat="46.19669" lon="3.76962">
        <ele>470.46262</ele>
        <time>2011-11-11T07:36:47Z</time>
      </trkpt>
      <trkpt lat="46.19661" lon="3.76986">
        <ele>469.59708</ele>
        <time>2011-11-11T07:36:52Z</time>
      </trkpt>
      <trkpt lat="46.19652" lon="3.77009">
        <ele>469.92828</ele>
        <time>2011-11-11T07:36:58Z</time>
      </trkpt>
      <trkpt lat="46.19647" lon="3.77037">
        <ele>473.12848</ele>
        <time>2011-11-11T07:37:03Z</time>
      </trkpt>
      <trkpt lat="46.19662" lon="3.77059">
        <ele>477.45914</ele>
        <time>2011-11-11T07:37:11Z</time>
      </trkpt>
      <trkpt lat="46.19675" lon="3.77078">
        <ele>482.989</ele>
        <time>2011-11-11T07:37:15Z</time>
      </trkpt>
      <trkpt lat="46.19673" lon="3.77108">
        <ele>487.9262</ele>
        <time>2011-11-11T07:37:19Z</time>
      </trkpt>
      <trkpt lat="46.19662" lon="3.77131">
        <ele>489.58994</ele>
        <time>2011-11-11T07:37:23Z</time>
      </trkpt>
      <trkpt lat="46.19651" lon="3.77153">
        <ele>489.927</ele>
        <time>2011-11-11T07:37:29Z</time>
      </trkpt>
      <trkpt lat="46.19638" lon="3.77183">
        <ele>489.93982</ele>
        <time>2011-11-11T07:37:41Z</time>
      </trkpt>
      <trkpt lat="46.19624" lon="3.77213">
        <ele>492.34195</ele>
        <time>2011-11-11T07:37:56Z</time>
      </trkpt>
      <trkpt lat="46.19612" lon="3.77232">
        <ele>493.72784</ele>
        <time>2011-11-11T07:38:11Z</time>
      </trkpt>
      <trkpt lat="46.19592" lon="3.77247">
        <ele>492.2783</ele>
        <time>2011-11-11T07:38:21Z</time>
      </trkpt>
      <trkpt lat="46.19568" lon="3.7726">
        <ele>490.92062</ele>
        <time>2011-11-11T07:38:28Z</time>
      </trkpt>
      <trkpt lat="46.19541" lon="3.77269">
        <ele>489.28915</ele>
        <time>2011-11-11T07:38:38Z</time>
      </trkpt>
      <trkpt lat="46.19515" lon="3.77275">
        <ele>487.9221</ele>
        <time>2011-11-11T07:38:45Z</time>
      </trkpt>
      <trkpt lat="46.19496" lon="3.77284">
        <ele>488.71158</ele>
        <time>2011-11-11T07:39:03Z</time>
      </trkpt>
      <trkpt lat="46.19476" lon="3.77271">
        <ele>490.59225</ele>
        <time>2011-11-11T07:39:13Z</time>
      </trkpt>
      <trkpt lat="46.19453" lon="3.77254">
        <ele>493.39148</ele>
        <time>2011-11-11T07:39:26Z</time>
      </trkpt>
      <trkpt lat="46.19436" lon="3.77241">
        <ele>496.21344</ele>
        <time>2011-11-11T07:39:36Z</time>
      </trkpt>
      <trkpt lat="46.19417" lon="3.77228">
        <ele>499.94553</ele>
        <time>2011-11-11T07:39:47Z</time>
      </trkpt>
      <trkpt lat="46.19403" lon="3.77211">
        <ele>502.20007</ele>
        <time>2011-11-11T07:39:54Z</time>
      </trkpt>
      <trkpt lat="46.19389" lon="3.77192">
        <ele>504.33786</ele>
        <time>2011-11-11T07:40:01Z</time>
      </trkpt>
      <trkpt lat="46.19375" lon="3.77174">
        <ele>507.1744</ele>
        <time>2011-11-11T07:40:09Z</time>
      </trkpt>
      <trkpt lat="46.19362" lon="3.77157">
        <ele>509.4399</ele>
        <time>2011-11-11T07:40:16Z</time>
      </trkpt>
      <trkpt lat="46.19343" lon="3.77146">
        <ele>511.7774</ele>
        <time>2011-11-11T07:40:24Z</time>
      </trkpt>
      <trkpt lat="46.19325" lon="3.77136">
        <ele>513.5204</ele>
        <time>2011-11-11T07:40:31Z</time>
      </trkpt>
      <trkpt lat="46.19308" lon="3.77125">
        <ele>515.4861</ele>
        <time>2011-11-11T07:40:38Z</time>
      </trkpt>
      <trkpt lat="46.19293" lon="3.7711">
        <ele>517.37604</ele>
        <time>2011-11-11T07:40:45Z</time>
      </trkpt>
      <trkpt lat="46.19279" lon="3.77091">
        <ele>519.0096</ele>
        <time>2011-11-11T07:40:53Z</time>
      </trkpt>
      <trkpt lat="46.19265" lon="3.77069">
        <ele>520.68835</ele>
        <time>2011-11-11T07:41:02Z</time>
      </trkpt>
      <trkpt lat="46.19255" lon="3.77046">
        <ele>522.4796</ele>
        <time>2011-11-11T07:41:11Z</time>
      </trkpt>
      <trkpt lat="46.19246" lon="3.77022">
        <ele>524.07745</ele>
        <time>2011-11-11T07:41:20Z</time>
      </trkpt>
      <trkpt lat="46.19239" lon="3.76996">
        <ele>525.15765</ele>
        <time>2011-11-11T07:41:28Z</time>
      </trkpt>
      <trkpt lat="46.19233" lon="3.76971">
        <ele>526.35315</ele>
        <time>2011-11-11T07:41:36Z</time>
      </trkpt>
      <trkpt lat="46.19228" lon="3.76943">
        <ele>527.51337</ele>
        <time>2011-11-11T07:41:44Z</time>
      </trkpt>
      <trkpt lat="46.19226" lon="3.76917">
        <ele>529.39594</ele>
        <time>2011-11-11T07:41:52Z</time>
      </trkpt>
      <trkpt lat="46.19225" lon="3.76887">
        <ele>532.0798</ele>
        <time>2011-11-11T07:42:01Z</time>
      </trkpt>
      <trkpt lat="46.19224" lon="3.76857">
        <ele>534.8608</ele>
        <time>2011-11-11T07:42:11Z</time>
      </trkpt>
      <trkpt lat="46.19225" lon="3.76829">
        <ele>537.4646</ele>
        <time>2011-11-11T07:42:20Z</time>
      </trkpt>
      <trkpt lat="46.19225" lon="3.76801">
        <ele>540.28485</ele>
        <time>2011-11-11T07:42:29Z</time>
      </trkpt>
      <trkpt lat="46.19222" lon="3.76775">
        <ele>542.7619</ele>
        <time>2011-11-11T07:42:37Z</time>
      </trkpt>
      <trkpt lat="46.19217" lon="3.76747">
        <ele>545.3517</ele>
        <time>2011-11-11T07:42:46Z</time>
      </trkpt>
      <trkpt lat="46.19211" lon="3.76722">
        <ele>547.7848</ele>
        <time>2011-11-11T07:42:55Z</time>
      </trkpt>
      <trkpt lat="46.19211" lon="3.76694">
        <ele>550.3762</ele>
        <time>2011-11-11T07:43:05Z</time>
      </trkpt>
      <trkpt lat="46.19209" lon="3.76666">
        <ele>552.95856</ele>
        <time>2011-11-11T07:43:13Z</time>
      </trkpt>
      <trkpt lat="46.19198" lon="3.76692">
        <ele>559.6163</ele>
        <time>2011-11-11T07:43:24Z</time>
      </trkpt>
      <trkpt lat="46.19203" lon="3.76717">
        <ele>563.6286</ele>
        <time>2011-11-11T07:43:28Z</time>
      </trkpt>
      <trkpt lat="46.1921" lon="3.76692">
        <ele>566</ele>
        <time>2011-11-11T07:44:10Z</time>
      </trkpt>
      <trkpt lat="46.19208" lon="3.76664">
        <ele>566</ele>
        <time>2011-11-11T07:44:18Z</time>
      </trkpt>
      <trkpt lat="46.19204" lon="3.76636">
        <ele>566</ele>
        <time>2011-11-11T07:44:24Z</time>
      </trkpt>
      <trkpt lat="46.19201" lon="3.76606">
        <ele>566</ele>
        <time>2011-11-11T07:44:30Z</time>
      </trkpt>
      <trkpt lat="46.19196" lon="3.76578">
        <ele>565.4219</ele>
        <time>2011-11-11T07:44:35Z</time>
      </trkpt>
      <trkpt lat="46.19195" lon="3.76548">
        <ele>566.0337</ele>
        <time>2011-11-11T07:44:40Z</time>
      </trkpt>
      <trkpt lat="46.19192" lon="3.7652">
        <ele>566.6943</ele>
        <time>2011-11-11T07:44:44Z</time>
      </trkpt>
      <trkpt lat="46.19184" lon="3.76492">
        <ele>567.34076</ele>
        <time>2011-11-11T07:44:48Z</time>
      </trkpt>
      <trkpt lat="46.19177" lon="3.76462">
        <ele>568.72504</ele>
        <time>2011-11-11T07:44:52Z</time>
      </trkpt>
      <trkpt lat="46.19167" lon="3.76436">
        <ele>570.4777</ele>
        <time>2011-11-11T07:44:55Z</time>
      </trkpt>
      <trkpt lat="46.19158" lon="3.76404">
        <ele>571.9359</ele>
        <time>2011-11-11T07:44:58Z</time>
      </trkpt>
      <trkpt lat="46.19151" lon="3.76372">
        <ele>570.16046</ele>
        <time>2011-11-11T07:45:01Z</time>
      </trkpt>
      <trkpt lat="46.19158" lon="3.7634">
        <ele>566.67706</ele>
        <time>2011-11-11T07:45:04Z</time>
      </trkpt>
      <trkpt lat="46.19165" lon="3.7631">
        <ele>564.1138</ele>
        <time>2011-11-11T07:45:07Z</time>
      </trkpt>
      <trkpt lat="46.19174" lon="3.76284">
        <ele>562.8917</ele>
        <time>2011-11-11T07:45:10Z</time>
      </trkpt>
      <trkpt lat="46.19182" lon="3.7626">
        <ele>562.95435</ele>
        <time>2011-11-11T07:45:13Z</time>
      </trkpt>
      <trkpt lat="46.19189" lon="3.76232">
        <ele>563.9191</ele>
        <time>2011-11-11T07:45:17Z</time>
      </trkpt>
      <trkpt lat="46.19191" lon="3.76207">
        <ele>565.48615</ele>
        <time>2011-11-11T07:45:21Z</time>
      </trkpt>
      <trkpt lat="46.19189" lon="3.76179">
        <ele>566.64075</ele>
        <time>2011-11-11T07:45:26Z</time>
      </trkpt>
      <trkpt lat="46.19184" lon="3.76149">
        <ele>567.49286</ele>
        <time>2011-11-11T07:45:31Z</time>
      </trkpt>
      <trkpt lat="46.1918" lon="3.76119">
        <ele>567.87964</ele>
        <time>2011-11-11T07:45:36Z</time>
      </trkpt>
      <trkpt lat="46.19175" lon="3.76091">
        <ele>567.9619</ele>
        <time>2011-11-11T07:45:40Z</time>
      </trkpt>
      <trkpt lat="46.19171" lon="3.76061">
        <ele>567.988</ele>
        <time>2011-11-11T07:45:44Z</time>
      </trkpt>
      <trkpt lat="46.19171" lon="3.76033">
        <ele>567.74493</ele>
        <time>2011-11-11T07:45:47Z</time>
      </trkpt>
      <trkpt lat="46.19173" lon="3.76005">
        <ele>566.48615</ele>
        <time>2011-11-11T07:45:50Z</time>
      </trkpt>
      <trkpt lat="46.19173" lon="3.75973">
        <ele>563.5498</ele>
        <time>2011-11-11T07:47:09Z</time>
      </trkpt>
      <trkpt lat="46.19172" lon="3.75943">
        <ele>561.3882</ele>
        <time>2011-11-11T07:47:12Z</time>
      </trkpt>
      <trkpt lat="46.19167" lon="3.75904">
        <ele>559.1794</ele>
        <time>2011-11-11T07:47:15Z</time>
      </trkpt>
      <trkpt lat="46.19162" lon="3.75876">
        <ele>557.5384</ele>
        <time>2011-11-11T07:47:17Z</time>
      </trkpt>
      <trkpt lat="46.19153" lon="3.75848">
        <ele>556.17786</ele>
        <time>2011-11-11T07:47:19Z</time>
      </trkpt>
      <trkpt lat="46.19143" lon="3.7582">
        <ele>554.53754</ele>
        <time>2011-11-11T07:47:21Z</time>
      </trkpt>
      <trkpt lat="46.1913" lon="3.75795">
        <ele>552.63306</ele>
        <time>2011-11-11T07:47:24Z</time>
      </trkpt>
      <trkpt lat="46.19131" lon="3.75767">
        <ele>551.2514</ele>
        <time>2011-11-11T07:47:27Z</time>
      </trkpt>
      <trkpt lat="46.19141" lon="3.7573">
        <ele>549.2623</ele>
        <time>2011-11-11T07:47:30Z</time>
      </trkpt>
      <trkpt lat="46.19151" lon="3.75707">
        <ele>547.1476</ele>
        <time>2011-11-11T07:47:32Z</time>
      </trkpt>
      <trkpt lat="46.19167" lon="3.75683">
        <ele>545.083</ele>
        <time>2011-11-11T07:47:34Z</time>
      </trkpt>
      <trkpt lat="46.19182" lon="3.75659">
        <ele>543.0467</ele>
        <time>2011-11-11T07:47:36Z</time>
      </trkpt>
      <trkpt lat="46.19195" lon="3.75638">
        <ele>541.02625</ele>
        <time>2011-11-11T07:47:38Z</time>
      </trkpt>
      <trkpt lat="46.19209" lon="3.75619">
        <ele>539.0148</ele>
        <time>2011-11-11T07:47:40Z</time>
      </trkpt>
      <trkpt lat="46.19226" lon="3.75597">
        <ele>537.4458</ele>
        <time>2011-11-11T07:47:42Z</time>
      </trkpt>
      <trkpt lat="46.19245" lon="3.75578">
        <ele>536.1258</ele>
        <time>2011-11-11T07:47:44Z</time>
      </trkpt>
      <trkpt lat="46.19263" lon="3.75559">
        <ele>533.57074</ele>
        <time>2011-11-11T07:47:46Z</time>
      </trkpt>
      <trkpt lat="46.19277" lon="3.75537">
        <ele>529.07104</ele>
        <time>2011-11-11T07:47:48Z</time>
      </trkpt>
      <trkpt lat="46.19289" lon="3.75516">
        <ele>523.2275</ele>
        <time>2011-11-11T07:47:50Z</time>
      </trkpt>
      <trkpt lat="46.19309" lon="3.75492">
        <ele>514.09595</ele>
        <time>2011-11-11T07:47:53Z</time>
      </trkpt>
      <trkpt lat="46.19326" lon="3.75477">
        <ele>508.7415</ele>
        <time>2011-11-11T07:47:55Z</time>
      </trkpt>
      <trkpt lat="46.19343" lon="3.75447">
        <ele>503.0003</ele>
        <time>2011-11-11T07:47:58Z</time>
      </trkpt>
      <trkpt lat="46.19346" lon="3.75411">
        <ele>499.422</ele>
        <time>2011-11-11T07:48:01Z</time>
      </trkpt>
      <trkpt lat="46.19356" lon="3.75381">
        <ele>496.75616</ele>
        <time>2011-11-11T07:48:04Z</time>
      </trkpt>
      <trkpt lat="46.19374" lon="3.75368">
        <ele>493.89713</ele>
        <time>2011-11-11T07:48:07Z</time>
      </trkpt>
      <trkpt lat="46.19395" lon="3.75361">
        <ele>491.3941</ele>
        <time>2011-11-11T07:48:10Z</time>
      </trkpt>
      <trkpt lat="46.19415" lon="3.75357">
        <ele>490.01</ele>
        <time>2011-11-11T07:48:13Z</time>
      </trkpt>
      <trkpt lat="46.19436" lon="3.7535">
        <ele>489.4261</ele>
        <time>2011-11-11T07:48:16Z</time>
      </trkpt>
      <trkpt lat="46.19454" lon="3.75342">
        <ele>489.75787</ele>
        <time>2011-11-11T07:48:19Z</time>
      </trkpt>
      <trkpt lat="46.19472" lon="3.75329">
        <ele>490.47598</ele>
        <time>2011-11-11T07:48:22Z</time>
      </trkpt>
      <trkpt lat="46.19491" lon="3.75312">
        <ele>490.77893</ele>
        <time>2011-11-11T07:48:25Z</time>
      </trkpt>
      <trkpt lat="46.19509" lon="3.75295">
        <ele>490.90674</ele>
        <time>2011-11-11T07:48:28Z</time>
      </trkpt>
      <trkpt lat="46.19525" lon="3.75273">
        <ele>490.71066</ele>
        <time>2011-11-11T07:48:31Z</time>
      </trkpt>
      <trkpt lat="46.19542" lon="3.75252">
        <ele>489.8623</ele>
        <time>2011-11-11T07:48:34Z</time>
      </trkpt>
      <trkpt lat="46.19561" lon="3.75235">
        <ele>488.53568</ele>
        <time>2011-11-11T07:48:37Z</time>
      </trkpt>
      <trkpt lat="46.1958" lon="3.7522">
        <ele>487.64786</ele>
        <time>2011-11-11T07:48:40Z</time>
      </trkpt>
      <trkpt lat="46.19599" lon="3.75205">
        <ele>486.6952</ele>
        <time>2011-11-11T07:48:43Z</time>
      </trkpt>
      <trkpt lat="46.19614" lon="3.75183">
        <ele>486.29327</ele>
        <time>2011-11-11T07:48:46Z</time>
      </trkpt>
      <trkpt lat="46.19627" lon="3.75162">
        <ele>485.5456</ele>
        <time>2011-11-11T07:48:49Z</time>
      </trkpt>
      <trkpt lat="46.19637" lon="3.75138">
        <ele>484.65204</ele>
        <time>2011-11-11T07:48:52Z</time>
      </trkpt>
      <trkpt lat="46.19647" lon="3.75112">
        <ele>483.44696</ele>
        <time>2011-11-11T07:48:55Z</time>
      </trkpt>
      <trkpt lat="46.19657" lon="3.75087">
        <ele>482.36044</ele>
        <time>2011-11-11T07:48:58Z</time>
      </trkpt>
      <trkpt lat="46.19668" lon="3.75061">
        <ele>481.57394</ele>
        <time>2011-11-11T07:49:01Z</time>
      </trkpt>
      <trkpt lat="46.19682" lon="3.75035">
        <ele>480.80463</ele>
        <time>2011-11-11T07:49:04Z</time>
      </trkpt>
      <trkpt lat="46.19695" lon="3.75009">
        <ele>479.90195</ele>
        <time>2011-11-11T07:49:07Z</time>
      </trkpt>
      <trkpt lat="46.19709" lon="3.74981">
        <ele>479.38052</ele>
        <time>2011-11-11T07:49:10Z</time>
      </trkpt>
      <trkpt lat="46.19725" lon="3.74954">
        <ele>479.16052</ele>
        <time>2011-11-11T07:49:13Z</time>
      </trkpt>
      <trkpt lat="46.19743" lon="3.74926">
        <ele>478.81772</ele>
        <time>2011-11-11T07:49:16Z</time>
      </trkpt>
      <trkpt lat="46.19755" lon="3.74904">
        <ele>478.45996</ele>
        <time>2011-11-11T07:49:18Z</time>
      </trkpt>
      <trkpt lat="46.19769" lon="3.74887">
        <ele>477.82123</ele>
        <time>2011-11-11T07:49:20Z</time>
      </trkpt>
      <trkpt lat="46.19796" lon="3.74881">
        <ele>476.90897</ele>
        <time>2011-11-11T07:49:23Z</time>
      </trkpt>
      <trkpt lat="46.19814" lon="3.74874">
        <ele>476.5113</ele>
        <time>2011-11-11T07:49:25Z</time>
      </trkpt>
      <trkpt lat="46.19833" lon="3.74866">
        <ele>476.5376</ele>
        <time>2011-11-11T07:49:27Z</time>
      </trkpt>
      <trkpt lat="46.19854" lon="3.74851">
        <ele>476.80493</ele>
        <time>2011-11-11T07:49:30Z</time>
      </trkpt>
      <trkpt lat="46.19873" lon="3.74838">
        <ele>476.4802</ele>
        <time>2011-11-11T07:49:33Z</time>
      </trkpt>
      <trkpt lat="46.19894" lon="3.74823">
        <ele>475.95258</ele>
        <time>2011-11-11T07:49:36Z</time>
      </trkpt>
      <trkpt lat="46.19911" lon="3.74805">
        <ele>475.4019</ele>
        <time>2011-11-11T07:49:39Z</time>
      </trkpt>
      <trkpt lat="46.1991" lon="3.74771">
        <ele>474.54904</ele>
        <time>2011-11-11T07:49:43Z</time>
      </trkpt>
      <trkpt lat="46.19899" lon="3.74745">
        <ele>473.6535</ele>
        <time>2011-11-11T07:49:46Z</time>
      </trkpt>
      <trkpt lat="46.19883" lon="3.7472">
        <ele>472.69757</ele>
        <time>2011-11-11T07:49:49Z</time>
      </trkpt>
      <trkpt lat="46.19868" lon="3.74702">
        <ele>472.1424</ele>
        <time>2011-11-11T07:49:51Z</time>
      </trkpt>
      <trkpt lat="46.19848" lon="3.74677">
        <ele>471.48193</ele>
        <time>2011-11-11T07:49:54Z</time>
      </trkpt>
      <trkpt lat="46.19836" lon="3.74653">
        <ele>471.2711</ele>
        <time>2011-11-11T07:49:56Z</time>
      </trkpt>
      <trkpt lat="46.19825" lon="3.74629">
        <ele>471.4025</ele>
        <time>2011-11-11T07:49:58Z</time>
      </trkpt>
      <trkpt lat="46.19811" lon="3.74606">
        <ele>471.2264</ele>
        <time>2011-11-11T07:50:00Z</time>
      </trkpt>
      <trkpt lat="46.19801" lon="3.7458">
        <ele>470.15802</ele>
        <time>2011-11-11T07:50:03Z</time>
      </trkpt>
      <trkpt lat="46.19798" lon="3.7455">
        <ele>466.73358</ele>
        <time>2011-11-11T07:50:07Z</time>
      </trkpt>
      <trkpt lat="46.19812" lon="3.74527">
        <ele>463.5276</ele>
        <time>2011-11-11T07:50:12Z</time>
      </trkpt>
      <trkpt lat="46.19816" lon="3.74501">
        <ele>461.5092</ele>
        <time>2011-11-11T07:50:18Z</time>
      </trkpt>
      <trkpt lat="46.19815" lon="3.74471">
        <ele>461.05096</ele>
        <time>2011-11-11T07:50:26Z</time>
      </trkpt>
      <trkpt lat="46.19816" lon="3.74439">
        <ele>460.18704</ele>
        <time>2011-11-11T07:50:32Z</time>
      </trkpt>
      <trkpt lat="46.19816" lon="3.74408">
        <ele>459.6069</ele>
        <time>2011-11-11T07:50:37Z</time>
      </trkpt>
      <trkpt lat="46.19814" lon="3.74383">
        <ele>457.6803</ele>
        <time>2011-11-11T07:50:41Z</time>
      </trkpt>
      <trkpt lat="46.1981" lon="3.74353">
        <ele>456.39874</ele>
        <time>2011-11-11T07:50:46Z</time>
      </trkpt>
      <trkpt lat="46.19807" lon="3.74325">
        <ele>456.07095</ele>
        <time>2011-11-11T07:50:52Z</time>
      </trkpt>
      <trkpt lat="46.19802" lon="3.74299">
        <ele>456.01263</ele>
        <time>2011-11-11T07:50:58Z</time>
      </trkpt>
      <trkpt lat="46.19797" lon="3.74271">
        <ele>456.43976</ele>
        <time>2011-11-11T07:51:04Z</time>
      </trkpt>
      <trkpt lat="46.19793" lon="3.74245">
        <ele>456.9003</ele>
        <time>2011-11-11T07:51:10Z</time>
      </trkpt>
      <trkpt lat="46.19784" lon="3.74215">
        <ele>458.86014</ele>
        <time>2011-11-11T07:51:15Z</time>
      </trkpt>
      <trkpt lat="46.19776" lon="3.7419">
        <ele>460.57294</ele>
        <time>2011-11-11T07:51:19Z</time>
      </trkpt>
      <trkpt lat="46.19765" lon="3.74164">
        <ele>462.09885</ele>
        <time>2011-11-11T07:51:24Z</time>
      </trkpt>
      <trkpt lat="46.19752" lon="3.7414">
        <ele>462.78616</ele>
        <time>2011-11-11T07:51:29Z</time>
      </trkpt>
      <trkpt lat="46.1974" lon="3.74117">
        <ele>463.21194</ele>
        <time>2011-11-11T07:51:35Z</time>
      </trkpt>
      <trkpt lat="46.1973" lon="3.74091">
        <ele>463.813</ele>
        <time>2011-11-11T07:51:40Z</time>
      </trkpt>
      <trkpt lat="46.19733" lon="3.74059">
        <ele>463.94083</ele>
        <time>2011-11-11T07:51:44Z</time>
      </trkpt>
      <trkpt lat="46.19742" lon="3.74035">
        <ele>464.11566</ele>
        <time>2011-11-11T07:51:47Z</time>
      </trkpt>
      <trkpt lat="46.19753" lon="3.74012">
        <ele>463.22067</ele>
        <time>2011-11-11T07:51:50Z</time>
      </trkpt>
      <trkpt lat="46.19767" lon="3.73988">
        <ele>462.26498</ele>
        <time>2011-11-11T07:51:53Z</time>
      </trkpt>
      <trkpt lat="46.19781" lon="3.73966">
        <ele>461.09616</ele>
        <time>2011-11-11T07:51:56Z</time>
      </trkpt>
      <trkpt lat="46.19795" lon="3.73945">
        <ele>460.02493</ele>
        <time>2011-11-11T07:51:59Z</time>
      </trkpt>
      <trkpt lat="46.19809" lon="3.73926">
        <ele>459.4324</ele>
        <time>2011-11-11T07:52:02Z</time>
      </trkpt>
      <trkpt lat="46.19822" lon="3.739">
        <ele>459.3868</ele>
        <time>2011-11-11T07:52:06Z</time>
      </trkpt>
      <trkpt lat="46.19843" lon="3.7387">
        <ele>460.3841</ele>
        <time>2011-11-11T07:52:11Z</time>
      </trkpt>
      <trkpt lat="46.1986" lon="3.73848">
        <ele>459.22455</ele>
        <time>2011-11-11T07:52:14Z</time>
      </trkpt>
      <trkpt lat="46.19874" lon="3.73827">
        <ele>455.40723</ele>
        <time>2011-11-11T07:52:17Z</time>
      </trkpt>
      <trkpt lat="46.19894" lon="3.73808">
        <ele>449.18353</ele>
        <time>2011-11-11T07:52:21Z</time>
      </trkpt>
      <trkpt lat="46.19909" lon="3.73788">
        <ele>445.7493</ele>
        <time>2011-11-11T07:52:24Z</time>
      </trkpt>
      <trkpt lat="46.19919" lon="3.73758">
        <ele>443.14423</ele>
        <time>2011-11-11T07:52:27Z</time>
      </trkpt>
      <trkpt lat="46.19926" lon="3.73722">
        <ele>441.4671</ele>
        <time>2011-11-11T07:52:30Z</time>
      </trkpt>
      <trkpt lat="46.19931" lon="3.73683">
        <ele>440.36893</ele>
        <time>2011-11-11T07:52:33Z</time>
      </trkpt>
      <trkpt lat="46.19933" lon="3.73655">
        <ele>439.08252</ele>
        <time>2011-11-11T07:52:35Z</time>
      </trkpt>
      <trkpt lat="46.19934" lon="3.73625">
        <ele>437.48392</ele>
        <time>2011-11-11T07:52:37Z</time>
      </trkpt>
      <trkpt lat="46.19939" lon="3.73597">
        <ele>435.70972</ele>
        <time>2011-11-11T07:52:39Z</time>
      </trkpt>
      <trkpt lat="46.19946" lon="3.73572">
        <ele>433.8367</ele>
        <time>2011-11-11T07:52:41Z</time>
      </trkpt>
      <trkpt lat="46.19956" lon="3.73542">
        <ele>431.75925</ele>
        <time>2011-11-11T07:52:44Z</time>
      </trkpt>
      <trkpt lat="46.19954" lon="3.73514">
        <ele>430.55664</ele>
        <time>2011-11-11T07:52:48Z</time>
      </trkpt>
      <trkpt lat="46.19933" lon="3.73518">
        <ele>429.3694</ele>
        <time>2011-11-11T07:52:53Z</time>
      </trkpt>
      <trkpt lat="46.19914" lon="3.73533">
        <ele>428.40015</ele>
        <time>2011-11-11T07:52:58Z</time>
      </trkpt>
      <trkpt lat="46.19898" lon="3.7355">
        <ele>426.6149</ele>
        <time>2011-11-11T07:53:02Z</time>
      </trkpt>
      <trkpt lat="46.19882" lon="3.73565">
        <ele>425.68127</ele>
        <time>2011-11-11T07:53:05Z</time>
      </trkpt>
      <trkpt lat="46.1986" lon="3.73578">
        <ele>425.21558</ele>
        <time>2011-11-11T07:53:09Z</time>
      </trkpt>
      <trkpt lat="46.1984" lon="3.73585">
        <ele>424.8182</ele>
        <time>2011-11-11T07:53:13Z</time>
      </trkpt>
      <trkpt lat="46.1982" lon="3.73589">
        <ele>424.25888</ele>
        <time>2011-11-11T07:53:17Z</time>
      </trkpt>
      <trkpt lat="46.19798" lon="3.73595">
        <ele>423.6444</ele>
        <time>2011-11-11T07:53:21Z</time>
      </trkpt>
      <trkpt lat="46.19781" lon="3.73604">
        <ele>423.27185</ele>
        <time>2011-11-11T07:53:24Z</time>
      </trkpt>
      <trkpt lat="46.19757" lon="3.73612">
        <ele>423.08603</ele>
        <time>2011-11-11T07:53:28Z</time>
      </trkpt>
      <trkpt lat="46.19739" lon="3.73619">
        <ele>423.7238</ele>
        <time>2011-11-11T07:53:31Z</time>
      </trkpt>
      <trkpt lat="46.1972" lon="3.73625">
        <ele>426.49286</ele>
        <time>2011-11-11T07:53:34Z</time>
      </trkpt>
      <trkpt lat="46.19699" lon="3.73634">
        <ele>428.3798</ele>
        <time>2011-11-11T07:53:37Z</time>
      </trkpt>
      <trkpt lat="46.1968" lon="3.73651">
        <ele>427.36334</ele>
        <time>2011-11-11T07:53:40Z</time>
      </trkpt>
      <trkpt lat="46.19662" lon="3.73672">
        <ele>424.2939</ele>
        <time>2011-11-11T07:53:43Z</time>
      </trkpt>
      <trkpt lat="46.19644" lon="3.73692">
        <ele>420.9365</ele>
        <time>2011-11-11T07:53:46Z</time>
      </trkpt>
      <trkpt lat="46.19625" lon="3.73703">
        <ele>417.22992</ele>
        <time>2011-11-11T07:53:50Z</time>
      </trkpt>
      <trkpt lat="46.19608" lon="3.73713">
        <ele>415.12744</ele>
        <time>2011-11-11T07:53:54Z</time>
      </trkpt>
      <trkpt lat="46.196" lon="3.73739">
        <ele>414.60672</ele>
        <time>2011-11-11T07:53:58Z</time>
      </trkpt>
      <trkpt lat="46.19593" lon="3.73765">
        <ele>415.8912</ele>
        <time>2011-11-11T07:54:02Z</time>
      </trkpt>
      <trkpt lat="46.19585" lon="3.73791">
        <ele>416.852</ele>
        <time>2011-11-11T07:54:09Z</time>
      </trkpt>
      <trkpt lat="46.19581" lon="3.73818">
        <ele>417.80228</ele>
        <time>2011-11-11T07:54:16Z</time>
      </trkpt>
      <trkpt lat="46.19578" lon="3.73844">
        <ele>417.9648</ele>
        <time>2011-11-11T07:54:22Z</time>
      </trkpt>
      <trkpt lat="46.19569" lon="3.7387">
        <ele>417.80624</ele>
        <time>2011-11-11T07:54:28Z</time>
      </trkpt>
      <trkpt lat="46.19557" lon="3.73891">
        <ele>417.954</ele>
        <time>2011-11-11T07:54:33Z</time>
      </trkpt>
      <trkpt lat="46.19546" lon="3.73913">
        <ele>417.98907</ele>
        <time>2011-11-11T07:54:38Z</time>
      </trkpt>
      <trkpt lat="46.19535" lon="3.73936">
        <ele>417.9974</ele>
        <time>2011-11-11T07:54:43Z</time>
      </trkpt>
      <trkpt lat="46.19528" lon="3.73964">
        <ele>417.99954</ele>
        <time>2011-11-11T07:54:49Z</time>
      </trkpt>
      <trkpt lat="46.19525" lon="3.7399">
        <ele>417.9999</ele>
        <time>2011-11-11T07:54:55Z</time>
      </trkpt>
      <trkpt lat="46.19507" lon="3.73971">
        <ele>418.7627</ele>
        <time>2011-11-11T07:55:03Z</time>
      </trkpt>
      <trkpt lat="46.19495" lon="3.73951">
        <ele>418.89987</ele>
        <time>2011-11-11T07:55:06Z</time>
      </trkpt>
      <trkpt lat="46.19482" lon="3.73932">
        <ele>418.37964</ele>
        <time>2011-11-11T07:55:09Z</time>
      </trkpt>
      <trkpt lat="46.1947" lon="3.73911">
        <ele>418.59766</ele>
        <time>2011-11-11T07:55:12Z</time>
      </trkpt>
      <trkpt lat="46.19467" lon="3.73885">
        <ele>418.00214</ele>
        <time>2011-11-11T07:55:15Z</time>
      </trkpt>
      <trkpt lat="46.19474" lon="3.73857">
        <ele>416.59467</ele>
        <time>2011-11-11T07:55:18Z</time>
      </trkpt>
      <trkpt lat="46.19487" lon="3.73827">
        <ele>414.4071</ele>
        <time>2011-11-11T07:55:21Z</time>
      </trkpt>
      <trkpt lat="46.19496" lon="3.73793">
        <ele>411.74988</ele>
        <time>2011-11-11T07:55:24Z</time>
      </trkpt>
      <trkpt lat="46.19502" lon="3.73763">
        <ele>409.14447</ele>
        <time>2011-11-11T07:55:27Z</time>
      </trkpt>
      <trkpt lat="46.19506" lon="3.7373">
        <ele>406.1668</ele>
        <time>2011-11-11T07:55:31Z</time>
      </trkpt>
      <trkpt lat="46.1951" lon="3.73698">
        <ele>404.24808</ele>
        <time>2011-11-11T07:55:35Z</time>
      </trkpt>
      <trkpt lat="46.19512" lon="3.73668">
        <ele>402.83905</ele>
        <time>2011-11-11T07:55:38Z</time>
      </trkpt>
      <trkpt lat="46.19513" lon="3.73634">
        <ele>401.08835</ele>
        <time>2011-11-11T07:55:41Z</time>
      </trkpt>
      <trkpt lat="46.19519" lon="3.73606">
        <ele>399.3029</ele>
        <time>2011-11-11T07:55:44Z</time>
      </trkpt>
      <trkpt lat="46.19526" lon="3.73578">
        <ele>398.54965</ele>
        <time>2011-11-11T07:55:47Z</time>
      </trkpt>
      <trkpt lat="46.19522" lon="3.7355">
        <ele>397.79437</ele>
        <time>2011-11-11T07:55:50Z</time>
      </trkpt>
      <trkpt lat="46.19517" lon="3.7352">
        <ele>397.33514</ele>
        <time>2011-11-11T07:55:53Z</time>
      </trkpt>
      <trkpt lat="46.19511" lon="3.73488">
        <ele>396.91855</ele>
        <time>2011-11-11T07:55:57Z</time>
      </trkpt>
      <trkpt lat="46.19499" lon="3.73462">
        <ele>396.98068</ele>
        <time>2011-11-11T07:56:02Z</time>
      </trkpt>
      <trkpt lat="46.19484" lon="3.73443">
        <ele>396.99542</ele>
        <time>2011-11-11T07:56:07Z</time>
      </trkpt>
      <trkpt lat="46.19469" lon="3.73421">
        <ele>397.8659</ele>
        <time>2011-11-11T07:56:14Z</time>
      </trkpt>
      <trkpt lat="46.19455" lon="3.73402">
        <ele>397.16006</ele>
        <time>2011-11-11T07:56:21Z</time>
      </trkpt>
      <trkpt lat="46.1944" lon="3.73385">
        <ele>397.01202</ele>
        <time>2011-11-11T07:56:30Z</time>
      </trkpt>
      <trkpt lat="46.19427" lon="3.73366">
        <ele>397.43842</ele>
        <time>2011-11-11T07:56:39Z</time>
      </trkpt>
      <trkpt lat="46.19413" lon="3.73348">
        <ele>397.96838</ele>
        <time>2011-11-11T07:56:49Z</time>
      </trkpt>
      <trkpt lat="46.19399" lon="3.73331">
        <ele>398.57574</ele>
        <time>2011-11-11T07:56:58Z</time>
      </trkpt>
      <trkpt lat="46.19386" lon="3.7331">
        <ele>400.0541</ele>
        <time>2011-11-11T07:57:09Z</time>
      </trkpt>
      <trkpt lat="46.19367" lon="3.73312">
        <ele>402.99884</ele>
        <time>2011-11-11T07:57:23Z</time>
      </trkpt>
      <trkpt lat="46.19351" lon="3.73325">
        <ele>405.24765</ele>
        <time>2011-11-11T07:57:33Z</time>
      </trkpt>
      <trkpt lat="46.19335" lon="3.73342">
        <ele>407.8017</ele>
        <time>2011-11-11T07:57:44Z</time>
      </trkpt>
      <trkpt lat="46.19318" lon="3.73353">
        <ele>410.48264</ele>
        <time>2011-11-11T07:57:54Z</time>
      </trkpt>
      <trkpt lat="46.193" lon="3.73368">
        <ele>413.17407</ele>
        <time>2011-11-11T07:58:04Z</time>
      </trkpt>
      <trkpt lat="46.19284" lon="3.73383">
        <ele>415.38263</ele>
        <time>2011-11-11T07:58:13Z</time>
      </trkpt>
      <trkpt lat="46.19272" lon="3.73404">
        <ele>416.76022</ele>
        <time>2011-11-11T07:58:21Z</time>
      </trkpt>
      <trkpt lat="46.19259" lon="3.73428">
        <ele>418.272</ele>
        <time>2011-11-11T07:58:28Z</time>
      </trkpt>
      <trkpt lat="46.19246" lon="3.73447">
        <ele>419.44855</ele>
        <time>2011-11-11T07:58:34Z</time>
      </trkpt>
      <trkpt lat="46.1923" lon="3.73464">
        <ele>420.66455</ele>
        <time>2011-11-11T07:58:40Z</time>
      </trkpt>
      <trkpt lat="46.19216" lon="3.73484">
        <ele>421.703</ele>
        <time>2011-11-11T07:58:46Z</time>
      </trkpt>
      <trkpt lat="46.19203" lon="3.73503">
        <ele>422.70984</ele>
        <time>2011-11-11T07:58:52Z</time>
      </trkpt>
      <trkpt lat="46.19188" lon="3.7352">
        <ele>424.0204</ele>
        <time>2011-11-11T07:58:58Z</time>
      </trkpt>
      <trkpt lat="46.19173" lon="3.73539">
        <ele>425.26315</ele>
        <time>2011-11-11T07:59:04Z</time>
      </trkpt>
      <trkpt lat="46.19164" lon="3.73563">
        <ele>426.66434</ele>
        <time>2011-11-11T07:59:11Z</time>
      </trkpt>
      <trkpt lat="46.19154" lon="3.73589">
        <ele>428.39984</ele>
        <time>2011-11-11T07:59:18Z</time>
      </trkpt>
      <trkpt lat="46.19147" lon="3.73617">
        <ele>432.0685</ele>
        <time>2011-11-11T07:59:23Z</time>
      </trkpt>
      <trkpt lat="46.19139" lon="3.73642">
        <ele>435.42545</ele>
        <time>2011-11-11T07:59:28Z</time>
      </trkpt>
      <trkpt lat="46.19132" lon="3.73666">
        <ele>436.5018</ele>
        <time>2011-11-11T07:59:32Z</time>
      </trkpt>
      <trkpt lat="46.19118" lon="3.73696">
        <ele>437.52597</ele>
        <time>2011-11-11T07:59:36Z</time>
      </trkpt>
      <trkpt lat="46.19103" lon="3.73718">
        <ele>437.80002</ele>
        <time>2011-11-11T07:59:39Z</time>
      </trkpt>
      <trkpt lat="46.19083" lon="3.73733">
        <ele>437.91562</ele>
        <time>2011-11-11T07:59:42Z</time>
      </trkpt>
      <trkpt lat="46.19058" lon="3.73741">
        <ele>437.96442</ele>
        <time>2011-11-11T07:59:45Z</time>
      </trkpt>
      <trkpt lat="46.19035" lon="3.73752">
        <ele>437.735</ele>
        <time>2011-11-11T07:59:48Z</time>
      </trkpt>
      <trkpt lat="46.19014" lon="3.7376">
        <ele>437.06006</ele>
        <time>2011-11-11T07:59:51Z</time>
      </trkpt>
      <trkpt lat="46.18996" lon="3.73771">
        <ele>436.1972</ele>
        <time>2011-11-11T07:59:54Z</time>
      </trkpt>
      <trkpt lat="46.18977" lon="3.73786">
        <ele>435.3788</ele>
        <time>2011-11-11T07:59:58Z</time>
      </trkpt>
      <trkpt lat="46.18959" lon="3.73801">
        <ele>435.8526</ele>
        <time>2011-11-11T08:00:03Z</time>
      </trkpt>
      <trkpt lat="46.18944" lon="3.73816">
        <ele>435.96503</ele>
        <time>2011-11-11T08:00:08Z</time>
      </trkpt>
      <trkpt lat="46.18931" lon="3.73836">
        <ele>436.24533</ele>
        <time>2011-11-11T08:00:15Z</time>
      </trkpt>
      <trkpt lat="46.18921" lon="3.73857">
        <ele>436.8657</ele>
        <time>2011-11-11T08:00:21Z</time>
      </trkpt>
      <trkpt lat="46.18909" lon="3.73881">
        <ele>437.5602</ele>
        <time>2011-11-11T08:00:28Z</time>
      </trkpt>
      <trkpt lat="46.18901" lon="3.73909">
        <ele>437.95596</ele>
        <time>2011-11-11T08:00:36Z</time>
      </trkpt>
      <trkpt lat="46.18893" lon="3.73941">
        <ele>437.99753</ele>
        <time>2011-11-11T08:00:46Z</time>
      </trkpt>
      <trkpt lat="46.18882" lon="3.73966">
        <ele>438.24985</ele>
        <time>2011-11-11T08:00:56Z</time>
      </trkpt>
      <trkpt lat="46.18865" lon="3.73979">
        <ele>438.94366</ele>
        <time>2011-11-11T08:01:05Z</time>
      </trkpt>
      <trkpt lat="46.18848" lon="3.7399">
        <ele>439.6761</ele>
        <time>2011-11-11T08:01:12Z</time>
      </trkpt>
      <trkpt lat="46.18832" lon="3.74005">
        <ele>441.20187</ele>
        <time>2011-11-11T08:01:18Z</time>
      </trkpt>
      <trkpt lat="46.18813" lon="3.7402">
        <ele>442.29544</ele>
        <time>2011-11-11T08:01:24Z</time>
      </trkpt>
      <trkpt lat="46.18796" lon="3.74033">
        <ele>443.8873</ele>
        <time>2011-11-11T08:01:30Z</time>
      </trkpt>
      <trkpt lat="46.18777" lon="3.7405">
        <ele>445.92914</ele>
        <time>2011-11-11T08:01:39Z</time>
      </trkpt>
      <trkpt lat="46.18759" lon="3.74063">
        <ele>447.72092</ele>
        <time>2011-11-11T08:01:47Z</time>
      </trkpt>
      <trkpt lat="46.18739" lon="3.74074">
        <ele>449.55554</ele>
        <time>2011-11-11T08:01:55Z</time>
      </trkpt>
      <trkpt lat="46.18722" lon="3.74087">
        <ele>451.8726</ele>
        <time>2011-11-11T08:02:06Z</time>
      </trkpt>
      <trkpt lat="46.18703" lon="3.74097">
        <ele>453.98737</ele>
        <time>2011-11-11T08:02:15Z</time>
      </trkpt>
      <trkpt lat="46.18685" lon="3.74108">
        <ele>455.72064</ele>
        <time>2011-11-11T08:02:23Z</time>
      </trkpt>
      <trkpt lat="46.18667" lon="3.74119">
        <ele>457.0223</ele>
        <time>2011-11-11T08:02:29Z</time>
      </trkpt>
      <trkpt lat="46.18649" lon="3.7413">
        <ele>458.076</ele>
        <time>2011-11-11T08:02:35Z</time>
      </trkpt>
      <trkpt lat="46.18633" lon="3.74145">
        <ele>459.31415</ele>
        <time>2011-11-11T08:02:42Z</time>
      </trkpt>
      <trkpt lat="46.18615" lon="3.74162">
        <ele>460.64496</ele>
        <time>2011-11-11T08:02:52Z</time>
      </trkpt>
      <trkpt lat="46.18601" lon="3.74181">
        <ele>464.6836</ele>
        <time>2011-11-11T08:05:33Z</time>
      </trkpt>
      <trkpt lat="46.18598" lon="3.74211">
        <ele>465.73895</ele>
        <time>2011-11-11T08:05:42Z</time>
      </trkpt>
      <trkpt lat="46.18597" lon="3.74245">
        <ele>467.44977</ele>
        <time>2011-11-11T08:05:47Z</time>
      </trkpt>
      <trkpt lat="46.18597" lon="3.74278">
        <ele>468.7595</ele>
        <time>2011-11-11T08:05:51Z</time>
      </trkpt>
      <trkpt lat="46.18597" lon="3.74308">
        <ele>469.60748</ele>
        <time>2011-11-11T08:05:55Z</time>
      </trkpt>
      <trkpt lat="46.18594" lon="3.74338">
        <ele>469.65686</ele>
        <time>2011-11-11T08:06:00Z</time>
      </trkpt>
      <trkpt lat="46.18588" lon="3.74366">
        <ele>469.20782</ele>
        <time>2011-11-11T08:06:04Z</time>
      </trkpt>
      <trkpt lat="46.18584" lon="3.74396">
        <ele>468.83768</ele>
        <time>2011-11-11T08:06:08Z</time>
      </trkpt>
      <trkpt lat="46.18582" lon="3.74421">
        <ele>468.1034</ele>
        <time>2011-11-11T08:06:11Z</time>
      </trkpt>
      <trkpt lat="46.18572" lon="3.74451">
        <ele>466.14075</ele>
        <time>2011-11-11T08:06:16Z</time>
      </trkpt>
      <trkpt lat="46.18558" lon="3.74473">
        <ele>463.92987</ele>
        <time>2011-11-11T08:06:21Z</time>
      </trkpt>
      <trkpt lat="46.1854" lon="3.74492">
        <ele>463.22067</ele>
        <time>2011-11-11T08:06:26Z</time>
      </trkpt>
      <trkpt lat="46.18526" lon="3.74509">
        <ele>463.09308</ele>
        <time>2011-11-11T08:06:29Z</time>
      </trkpt>
      <trkpt lat="46.18511" lon="3.74529">
        <ele>463.47678</ele>
        <time>2011-11-11T08:06:32Z</time>
      </trkpt>
      <trkpt lat="46.18498" lon="3.7455">
        <ele>464.21677</ele>
        <time>2011-11-11T08:06:35Z</time>
      </trkpt>
      <trkpt lat="46.18489" lon="3.74578">
        <ele>464.4196</ele>
        <time>2011-11-11T08:06:38Z</time>
      </trkpt>
      <trkpt lat="46.18483" lon="3.74604">
        <ele>464.177</ele>
        <time>2011-11-11T08:06:41Z</time>
      </trkpt>
      <trkpt lat="46.18485" lon="3.74634">
        <ele>463.02637</ele>
        <time>2011-11-11T08:06:46Z</time>
      </trkpt>
      <trkpt lat="46.1849" lon="3.74662">
        <ele>462.18268</ele>
        <time>2011-11-11T08:06:52Z</time>
      </trkpt>
      <trkpt lat="46.18486" lon="3.74687">
        <ele>461.2698</ele>
        <time>2011-11-11T08:06:58Z</time>
      </trkpt>
      <trkpt lat="46.18469" lon="3.74698">
        <ele>461.06403</ele>
        <time>2011-11-11T08:07:03Z</time>
      </trkpt>
      <trkpt lat="46.18452" lon="3.74709">
        <ele>459.07495</ele>
        <time>2011-11-11T08:07:07Z</time>
      </trkpt>
      <trkpt lat="46.18436" lon="3.7473">
        <ele>455.37527</ele>
        <time>2011-11-11T08:07:11Z</time>
      </trkpt>
      <trkpt lat="46.18422" lon="3.7475">
        <ele>452.03827</ele>
        <time>2011-11-11T08:07:16Z</time>
      </trkpt>
      <trkpt lat="46.18406" lon="3.74771">
        <ele>449.67526</ele>
        <time>2011-11-11T08:07:22Z</time>
      </trkpt>
      <trkpt lat="46.18391" lon="3.74797">
        <ele>446.58084</ele>
        <time>2011-11-11T08:07:26Z</time>
      </trkpt>
      <trkpt lat="46.18377" lon="3.74814">
        <ele>444.4013</ele>
        <time>2011-11-11T08:07:29Z</time>
      </trkpt>
      <trkpt lat="46.18359" lon="3.74827">
        <ele>442.57553</ele>
        <time>2011-11-11T08:07:32Z</time>
      </trkpt>
      <trkpt lat="46.18343" lon="3.7484">
        <ele>441.08655</ele>
        <time>2011-11-11T08:07:35Z</time>
      </trkpt>
      <trkpt lat="46.18327" lon="3.74855">
        <ele>439.6602</ele>
        <time>2011-11-11T08:07:39Z</time>
      </trkpt>
      <trkpt lat="46.18311" lon="3.7487">
        <ele>439.15668</ele>
        <time>2011-11-11T08:07:44Z</time>
      </trkpt>
      <trkpt lat="46.18293" lon="3.74885">
        <ele>438.45905</ele>
        <time>2011-11-11T08:07:49Z</time>
      </trkpt>
      <trkpt lat="46.18275" lon="3.74896">
        <ele>437.48315</ele>
        <time>2011-11-11T08:07:56Z</time>
      </trkpt>
      <trkpt lat="46.18258" lon="3.74915">
        <ele>436.75003</ele>
        <time>2011-11-11T08:08:29Z</time>
      </trkpt>
      <trkpt lat="46.18238" lon="3.74921">
        <ele>435.10675</ele>
        <time>2011-11-11T08:08:40Z</time>
      </trkpt>
      <trkpt lat="46.18221" lon="3.74911">
        <ele>434.14774</ele>
        <time>2011-11-11T08:08:47Z</time>
      </trkpt>
      <trkpt lat="46.18202" lon="3.749">
        <ele>434.0263</ele>
        <time>2011-11-11T08:08:53Z</time>
      </trkpt>
      <trkpt lat="46.18185" lon="3.74883">
        <ele>434.00623</ele>
        <time>2011-11-11T08:08:58Z</time>
      </trkpt>
      <trkpt lat="46.18172" lon="3.74857">
        <ele>434.0015</ele>
        <time>2011-11-11T08:09:03Z</time>
      </trkpt>
      <trkpt lat="46.18162" lon="3.74831">
        <ele>433.42224</ele>
        <time>2011-11-11T08:09:08Z</time>
      </trkpt>
      <trkpt lat="46.18155" lon="3.74805">
        <ele>433.1336</ele>
        <time>2011-11-11T08:09:12Z</time>
      </trkpt>
      <trkpt lat="46.18147" lon="3.74782">
        <ele>433.04227</ele>
        <time>2011-11-11T08:09:16Z</time>
      </trkpt>
      <trkpt lat="46.18138" lon="3.74756">
        <ele>432.57587</ele>
        <time>2011-11-11T08:09:20Z</time>
      </trkpt>
      <trkpt lat="46.18131" lon="3.7473">
        <ele>432.18222</ele>
        <time>2011-11-11T08:09:24Z</time>
      </trkpt>
      <trkpt lat="46.18123" lon="3.74705">
        <ele>432.05765</ele>
        <time>2011-11-11T08:09:28Z</time>
      </trkpt>
      <trkpt lat="46.18115" lon="3.74677">
        <ele>432.01825</ele>
        <time>2011-11-11T08:09:32Z</time>
      </trkpt>
      <trkpt lat="46.18103" lon="3.74651">
        <ele>432.00577</ele>
        <time>2011-11-11T08:09:36Z</time>
      </trkpt>
      <trkpt lat="46.18085" lon="3.74632">
        <ele>432.00183</ele>
        <time>2011-11-11T08:09:40Z</time>
      </trkpt>
      <trkpt lat="46.18065" lon="3.74614">
        <ele>432.00058</ele>
        <time>2011-11-11T08:09:44Z</time>
      </trkpt>
      <trkpt lat="46.18048" lon="3.74591">
        <ele>432.25018</ele>
        <time>2011-11-11T08:09:48Z</time>
      </trkpt>
      <trkpt lat="46.18037" lon="3.74567">
        <ele>432.76276</ele>
        <time>2011-11-11T08:09:52Z</time>
      </trkpt>
      <trkpt lat="46.18029" lon="3.74544">
        <ele>433.60852</ele>
        <time>2011-11-11T08:09:56Z</time>
      </trkpt>
      <trkpt lat="46.18014" lon="3.74524">
        <ele>433.43863</ele>
        <time>2011-11-11T08:10:00Z</time>
      </trkpt>
      <trkpt lat="46.17993" lon="3.74516">
        <ele>433.1388</ele>
        <time>2011-11-11T08:10:04Z</time>
      </trkpt>
      <trkpt lat="46.1797" lon="3.74511">
        <ele>432.4658</ele>
        <time>2011-11-11T08:10:08Z</time>
      </trkpt>
      <trkpt lat="46.17953" lon="3.74503">
        <ele>432.1965</ele>
        <time>2011-11-11T08:10:11Z</time>
      </trkpt>
      <trkpt lat="46.17932" lon="3.74486">
        <ele>432.06216</ele>
        <time>2011-11-11T08:10:15Z</time>
      </trkpt>
      <trkpt lat="46.17918" lon="3.74469">
        <ele>432.60437</ele>
        <time>2011-11-11T08:10:18Z</time>
      </trkpt>
      <trkpt lat="46.17906" lon="3.74449">
        <ele>432.3956</ele>
        <time>2011-11-11T08:10:21Z</time>
      </trkpt>
      <trkpt lat="46.17893" lon="3.74424">
        <ele>432.12515</ele>
        <time>2011-11-11T08:10:25Z</time>
      </trkpt>
      <trkpt lat="46.17881" lon="3.74398">
        <ele>432.0297</ele>
        <time>2011-11-11T08:10:30Z</time>
      </trkpt>
      <trkpt lat="46.17867" lon="3.74378">
        <ele>432.00705</ele>
        <time>2011-11-11T08:10:35Z</time>
      </trkpt>
      <trkpt lat="46.17854" lon="3.74357">
        <ele>432.00168</ele>
        <time>2011-11-11T08:10:40Z</time>
      </trkpt>
      <trkpt lat="46.17842" lon="3.74331">
        <ele>432.82233</ele>
        <time>2011-11-11T08:10:46Z</time>
      </trkpt>
      <trkpt lat="46.17832" lon="3.74305">
        <ele>432.96838</ele>
        <time>2011-11-11T08:10:52Z</time>
      </trkpt>
      <trkpt lat="46.17821" lon="3.74284">
        <ele>433.57062</ele>
        <time>2011-11-11T08:10:57Z</time>
      </trkpt>
      <trkpt lat="46.1781" lon="3.74263">
        <ele>433.8981</ele>
        <time>2011-11-11T08:11:02Z</time>
      </trkpt>
      <trkpt lat="46.17802" lon="3.74235">
        <ele>434.56</ele>
        <time>2011-11-11T08:11:08Z</time>
      </trkpt>
      <trkpt lat="46.17789" lon="3.74215">
        <ele>435.20596</ele>
        <time>2011-11-11T08:11:16Z</time>
      </trkpt>
      <trkpt lat="46.17789" lon="3.74243">
        <ele>435.85867</ele>
        <time>2011-11-11T08:11:22Z</time>
      </trkpt>
      <trkpt lat="46.17788" lon="3.74271">
        <ele>436.80316</ele>
        <time>2011-11-11T08:11:29Z</time>
      </trkpt>
      <trkpt lat="46.17769" lon="3.74269">
        <ele>439.9474</ele>
        <time>2011-11-11T08:11:46Z</time>
      </trkpt>
      <trkpt lat="46.17754" lon="3.74252">
        <ele>441.43762</ele>
        <time>2011-11-11T08:11:53Z</time>
      </trkpt>
      <trkpt lat="46.17736" lon="3.7425">
        <ele>443.0602</ele>
        <time>2011-11-11T08:12:01Z</time>
      </trkpt>
      <trkpt lat="46.17721" lon="3.74265">
        <ele>445.04227</ele>
        <time>2011-11-11T08:12:13Z</time>
      </trkpt>
      <trkpt lat="46.17706" lon="3.7428">
        <ele>447.31464</ele>
        <time>2011-11-11T08:12:26Z</time>
      </trkpt>
      <trkpt lat="46.17691" lon="3.74295">
        <ele>449.51266</ele>
        <time>2011-11-11T08:12:41Z</time>
      </trkpt>
      <trkpt lat="46.17673" lon="3.74305">
        <ele>451.34183</ele>
        <time>2011-11-11T08:12:52Z</time>
      </trkpt>
      <trkpt lat="46.17657" lon="3.74318">
        <ele>451.9722</ele>
        <time>2011-11-11T08:13:03Z</time>
      </trkpt>
      <trkpt lat="46.17638" lon="3.74329">
        <ele>453.65933</ele>
        <time>2011-11-11T08:13:17Z</time>
      </trkpt>
      <trkpt lat="46.1762" lon="3.7434">
        <ele>454.85214</ele>
        <time>2011-11-11T08:13:28Z</time>
      </trkpt>
      <trkpt lat="46.17603" lon="3.74351">
        <ele>456.35132</ele>
        <time>2011-11-11T08:13:37Z</time>
      </trkpt>
      <trkpt lat="46.17586" lon="3.74361">
        <ele>457.61865</ele>
        <time>2011-11-11T08:13:45Z</time>
      </trkpt>
      <trkpt lat="46.17568" lon="3.74374">
        <ele>458.8379</ele>
        <time>2011-11-11T08:13:54Z</time>
      </trkpt>
      <trkpt lat="46.17549" lon="3.74385">
        <ele>459.88367</ele>
        <time>2011-11-11T08:14:02Z</time>
      </trkpt>
      <trkpt lat="46.17532" lon="3.744">
        <ele>461.16617</ele>
        <time>2011-11-11T08:14:11Z</time>
      </trkpt>
      <trkpt lat="46.17528" lon="3.74426">
        <ele>463.75314</ele>
        <time>2011-11-11T08:14:21Z</time>
      </trkpt>
      <trkpt lat="46.17517" lon="3.74449">
        <ele>467.2724</ele>
        <time>2011-11-11T08:14:32Z</time>
      </trkpt>
      <trkpt lat="46.17499" lon="3.74458">
        <ele>470.90167</ele>
        <time>2011-11-11T08:14:44Z</time>
      </trkpt>
      <trkpt lat="46.17481" lon="3.7446">
        <ele>475.3054</ele>
        <time>2011-11-11T08:14:59Z</time>
      </trkpt>
      <trkpt lat="46.17463" lon="3.74462">
        <ele>477.98636</ele>
        <time>2011-11-11T08:15:10Z</time>
      </trkpt>
      <trkpt lat="46.17444" lon="3.74464">
        <ele>480.4352</ele>
        <time>2011-11-11T08:15:21Z</time>
      </trkpt>
      <trkpt lat="46.17426" lon="3.74471">
        <ele>482.4792</ele>
        <time>2011-11-11T08:15:32Z</time>
      </trkpt>
      <trkpt lat="46.17408" lon="3.74475">
        <ele>485.4955</ele>
        <time>2011-11-11T08:15:45Z</time>
      </trkpt>
      <trkpt lat="46.17388" lon="3.74481">
        <ele>490.61374</ele>
        <time>2011-11-11T08:15:59Z</time>
      </trkpt>
      <trkpt lat="46.17376" lon="3.74501">
        <ele>495.6871</ele>
        <time>2011-11-11T08:16:12Z</time>
      </trkpt>
      <trkpt lat="46.17361" lon="3.74516">
        <ele>500.22</ele>
        <time>2011-11-11T08:16:29Z</time>
      </trkpt>
      <trkpt lat="46.17346" lon="3.74533">
        <ele>503.39908</ele>
        <time>2011-11-11T08:16:43Z</time>
      </trkpt>
      <trkpt lat="46.17332" lon="3.74552">
        <ele>508.30554</ele>
        <time>2011-11-11T08:17:00Z</time>
      </trkpt>
      <trkpt lat="46.17314" lon="3.74563">
        <ele>512.4294</ele>
        <time>2011-11-11T08:17:16Z</time>
      </trkpt>
      <trkpt lat="46.17296" lon="3.74574">
        <ele>515.4328</ele>
        <time>2011-11-11T08:17:29Z</time>
      </trkpt>
      <trkpt lat="46.1728" lon="3.74589">
        <ele>518.3995</ele>
        <time>2011-11-11T08:17:42Z</time>
      </trkpt>
      <trkpt lat="46.17263" lon="3.74599">
        <ele>521.7722</ele>
        <time>2011-11-11T08:17:54Z</time>
      </trkpt>
      <trkpt lat="46.17246" lon="3.7461">
        <ele>525.14557</ele>
        <time>2011-11-11T08:18:06Z</time>
      </trkpt>
      <trkpt lat="46.17231" lon="3.74627">
        <ele>528.7077</ele>
        <time>2011-11-11T08:18:17Z</time>
      </trkpt>
      <trkpt lat="46.17214" lon="3.74638">
        <ele>533.3028</ele>
        <time>2011-11-11T08:18:32Z</time>
      </trkpt>
      <trkpt lat="46.17198" lon="3.74651">
        <ele>536.92615</ele>
        <time>2011-11-11T08:18:46Z</time>
      </trkpt>
      <trkpt lat="46.17178" lon="3.74651">
        <ele>539.60815</ele>
        <time>2011-11-11T08:19:00Z</time>
      </trkpt>
      <trkpt lat="46.1716" lon="3.74645">
        <ele>542.08575</ele>
        <time>2011-11-11T08:19:14Z</time>
      </trkpt>
      <trkpt lat="46.17141" lon="3.74636">
        <ele>543.8057</ele>
        <time>2011-11-11T08:19:28Z</time>
      </trkpt>
      <trkpt lat="46.17122" lon="3.74632">
        <ele>544.86304</ele>
        <time>2011-11-11T08:19:42Z</time>
      </trkpt>
      <trkpt lat="46.17104" lon="3.74634">
        <ele>546.8305</ele>
        <time>2011-11-11T08:19:54Z</time>
      </trkpt>
      <trkpt lat="46.1709" lon="3.74653">
        <ele>546.98303</ele>
        <time>2011-11-11T08:20:02Z</time>
      </trkpt>
      <trkpt lat="46.17076" lon="3.7467">
        <ele>548.06976</ele>
        <time>2011-11-11T08:20:09Z</time>
      </trkpt>
      <trkpt lat="46.17058" lon="3.74681">
        <ele>549.91956</ele>
        <time>2011-11-11T08:20:17Z</time>
      </trkpt>
      <trkpt lat="46.17042" lon="3.74696">
        <ele>552.292</ele>
        <time>2011-11-11T08:20:25Z</time>
      </trkpt>
      <trkpt lat="46.17027" lon="3.74711">
        <ele>554.8931</ele>
        <time>2011-11-11T08:20:32Z</time>
      </trkpt>
      <trkpt lat="46.1701" lon="3.74724">
        <ele>556.6709</ele>
        <time>2011-11-11T08:20:37Z</time>
      </trkpt>
      <trkpt lat="46.16997" lon="3.74743">
        <ele>560.07947</ele>
        <time>2011-11-11T08:20:41Z</time>
      </trkpt>
      <trkpt lat="46.16983" lon="3.74767">
        <ele>567.30304</ele>
        <time>2011-11-11T08:20:46Z</time>
      </trkpt>
      <trkpt lat="46.16968" lon="3.74788">
        <ele>572.14124</ele>
        <time>2011-11-11T08:20:51Z</time>
      </trkpt>
      <trkpt lat="46.16957" lon="3.7481">
        <ele>576.79395</ele>
        <time>2011-11-11T08:20:54Z</time>
      </trkpt>
      <trkpt lat="46.16945" lon="3.74835">
        <ele>579.6692</ele>
        <time>2011-11-11T08:20:58Z</time>
      </trkpt>
      <trkpt lat="46.16934" lon="3.74859">
        <ele>579.4578</ele>
        <time>2011-11-11T08:21:02Z</time>
      </trkpt>
      <trkpt lat="46.1692" lon="3.74876">
        <ele>579.0815</ele>
        <time>2011-11-11T08:21:08Z</time>
      </trkpt>
      <trkpt lat="46.16905" lon="3.74893">
        <ele>578.7645</ele>
        <time>2011-11-11T08:21:14Z</time>
      </trkpt>
      <trkpt lat="46.16884" lon="3.74904">
        <ele>578.10205</ele>
        <time>2011-11-11T08:21:21Z</time>
      </trkpt>
      <trkpt lat="46.16865" lon="3.74911">
        <ele>577.5807</ele>
        <time>2011-11-11T08:21:27Z</time>
      </trkpt>
      <trkpt lat="46.16846" lon="3.74906">
        <ele>577.10333</ele>
        <time>2011-11-11T08:21:33Z</time>
      </trkpt>
      <trkpt lat="46.16822" lon="3.74898">
        <ele>574.24713</ele>
        <time>2011-11-11T08:21:39Z</time>
      </trkpt>
      <trkpt lat="46.16803" lon="3.74893">
        <ele>572.5105</ele>
        <time>2011-11-11T08:21:42Z</time>
      </trkpt>
      <trkpt lat="46.16784" lon="3.74891">
        <ele>571.19977</ele>
        <time>2011-11-11T08:21:45Z</time>
      </trkpt>
      <trkpt lat="46.16767" lon="3.74906">
        <ele>569.4508</ele>
        <time>2011-11-11T08:21:51Z</time>
      </trkpt>
      <trkpt lat="46.16762" lon="3.74932">
        <ele>568.467</ele>
        <time>2011-11-11T08:21:59Z</time>
      </trkpt>
      <trkpt lat="46.1676" lon="3.74958">
        <ele>568.0148</ele>
        <time>2011-11-11T08:22:11Z</time>
      </trkpt>
      <trkpt lat="46.16758" lon="3.7499">
        <ele>569.2185</ele>
        <time>2011-11-11T08:22:26Z</time>
      </trkpt>
      <trkpt lat="46.16757" lon="3.75018">
        <ele>571.386</ele>
        <time>2011-11-11T08:22:35Z</time>
      </trkpt>
      <trkpt lat="46.16755" lon="3.75046">
        <ele>573.85114</ele>
        <time>2011-11-11T08:22:43Z</time>
      </trkpt>
      <trkpt lat="46.16748" lon="3.75069">
        <ele>575.95703</ele>
        <time>2011-11-11T08:22:51Z</time>
      </trkpt>
      <trkpt lat="46.16733" lon="3.75089">
        <ele>579.344</ele>
        <time>2011-11-11T08:23:06Z</time>
      </trkpt>
      <trkpt lat="46.16727" lon="3.75114">
        <ele>581</ele>
        <time>2011-11-11T08:24:53Z</time>
      </trkpt>
      <trkpt lat="46.16729" lon="3.75089">
        <ele>581.68353</ele>
        <time>2011-11-11T08:28:44Z</time>
      </trkpt>
      <trkpt lat="46.16725" lon="3.75063">
        <ele>582.4197</ele>
        <time>2011-11-11T08:28:54Z</time>
      </trkpt>
      <trkpt lat="46.16722" lon="3.75037">
        <ele>582.97546</ele>
        <time>2011-11-11T08:29:05Z</time>
      </trkpt>
      <trkpt lat="46.16711" lon="3.75014">
        <ele>585.56476</ele>
        <time>2011-11-11T08:31:58Z</time>
      </trkpt>
      <trkpt lat="46.16696" lon="3.74996">
        <ele>586.21735</ele>
        <time>2011-11-11T08:32:07Z</time>
      </trkpt>
      <trkpt lat="46.16683" lon="3.74977">
        <ele>587.3787</ele>
        <time>2011-11-11T08:32:16Z</time>
      </trkpt>
      <trkpt lat="46.16669" lon="3.7496">
        <ele>589.0254</ele>
        <time>2011-11-11T08:32:25Z</time>
      </trkpt>
      <trkpt lat="46.16654" lon="3.74943">
        <ele>590.6895</ele>
        <time>2011-11-11T08:32:34Z</time>
      </trkpt>
      <trkpt lat="46.1664" lon="3.74923">
        <ele>592.9389</ele>
        <time>2011-11-11T08:32:44Z</time>
      </trkpt>
      <trkpt lat="46.16641" lon="3.74951">
        <ele>597.3846</ele>
        <time>2011-11-11T08:33:03Z</time>
      </trkpt>
      <trkpt lat="46.16647" lon="3.74977">
        <ele>600.4317</ele>
        <time>2011-11-11T08:33:16Z</time>
      </trkpt>
      <trkpt lat="46.16644" lon="3.75003">
        <ele>603.1792</ele>
        <time>2011-11-11T08:33:27Z</time>
      </trkpt>
      <trkpt lat="46.16628" lon="3.75016">
        <ele>606.5372</ele>
        <time>2011-11-11T08:33:41Z</time>
      </trkpt>
      <trkpt lat="46.16611" lon="3.75003">
        <ele>609.7417</ele>
        <time>2011-11-11T08:33:56Z</time>
      </trkpt>
      <trkpt lat="46.16598" lon="3.74984">
        <ele>612.66516</ele>
        <time>2011-11-11T08:34:10Z</time>
      </trkpt>
      <trkpt lat="46.16585" lon="3.74962">
        <ele>615.5847</ele>
        <time>2011-11-11T08:34:24Z</time>
      </trkpt>
      <trkpt lat="46.16571" lon="3.74945">
        <ele>618.24426</ele>
        <time>2011-11-11T08:34:35Z</time>
      </trkpt>
      <trkpt lat="46.16554" lon="3.74934">
        <ele>620.6557</ele>
        <time>2011-11-11T08:34:46Z</time>
      </trkpt>
      <trkpt lat="46.16537" lon="3.74919">
        <ele>623.2614</ele>
        <time>2011-11-11T08:34:58Z</time>
      </trkpt>
      <trkpt lat="46.16522" lon="3.74902">
        <ele>625.5419</ele>
        <time>2011-11-11T08:35:08Z</time>
      </trkpt>
      <trkpt lat="46.16506" lon="3.74889">
        <ele>628.24243</ele>
        <time>2011-11-11T08:35:19Z</time>
      </trkpt>
      <trkpt lat="46.1649" lon="3.74874">
        <ele>629.76514</ele>
        <time>2011-11-11T08:35:28Z</time>
      </trkpt>
      <trkpt lat="46.16478" lon="3.74855">
        <ele>631.4545</ele>
        <time>2011-11-11T08:35:36Z</time>
      </trkpt>
      <trkpt lat="46.16472" lon="3.74829">
        <ele>632.78107</ele>
        <time>2011-11-11T08:35:45Z</time>
      </trkpt>
      <trkpt lat="46.16465" lon="3.74805">
        <ele>634.71124</ele>
        <time>2011-11-11T08:35:56Z</time>
      </trkpt>
      <trkpt lat="46.16454" lon="3.74784">
        <ele>636.99994</ele>
        <time>2011-11-11T08:36:37Z</time>
      </trkpt>
      <trkpt lat="46.16446" lon="3.74758">
        <ele>637.5781</ele>
        <time>2011-11-11T08:36:46Z</time>
      </trkpt>
      <trkpt lat="46.16437" lon="3.74735">
        <ele>638.5359</ele>
        <time>2011-11-11T08:36:54Z</time>
      </trkpt>
      <trkpt lat="46.16428" lon="3.74711">
        <ele>639.37555</ele>
        <time>2011-11-11T08:37:01Z</time>
      </trkpt>
      <trkpt lat="46.16421" lon="3.74685">
        <ele>640.1666</ele>
        <time>2011-11-11T08:37:08Z</time>
      </trkpt>
      <trkpt lat="46.16414" lon="3.74657">
        <ele>640.91656</ele>
        <time>2011-11-11T08:37:16Z</time>
      </trkpt>
      <trkpt lat="46.16413" lon="3.74627">
        <ele>641.8554</ele>
        <time>2011-11-11T08:37:23Z</time>
      </trkpt>
      <trkpt lat="46.16415" lon="3.74602">
        <ele>642.5438</ele>
        <time>2011-11-11T08:37:28Z</time>
      </trkpt>
      <trkpt lat="46.16419" lon="3.74574">
        <ele>643.1688</ele>
        <time>2011-11-11T08:37:34Z</time>
      </trkpt>
      <trkpt lat="46.1642" lon="3.74544">
        <ele>644.18756</ele>
        <time>2011-11-11T08:37:43Z</time>
      </trkpt>
      <trkpt lat="46.16413" lon="3.74516">
        <ele>645.5429</ele>
        <time>2011-11-11T08:37:49Z</time>
      </trkpt>
      <trkpt lat="46.16401" lon="3.74488">
        <ele>646.3944</ele>
        <time>2011-11-11T08:37:53Z</time>
      </trkpt>
      <trkpt lat="46.16391" lon="3.74466">
        <ele>644.46326</ele>
        <time>2011-11-11T08:37:56Z</time>
      </trkpt>
      <trkpt lat="46.1638" lon="3.74439">
        <ele>640.8302</ele>
        <time>2011-11-11T08:38:00Z</time>
      </trkpt>
      <trkpt lat="46.1637" lon="3.74408">
        <ele>637.3838</ele>
        <time>2011-11-11T08:38:04Z</time>
      </trkpt>
      <trkpt lat="46.16359" lon="3.74381">
        <ele>635.1761</ele>
        <time>2011-11-11T08:38:08Z</time>
      </trkpt>
      <trkpt lat="46.16346" lon="3.74357">
        <ele>634.05865</ele>
        <time>2011-11-11T08:38:11Z</time>
      </trkpt>
      <trkpt lat="46.16327" lon="3.74333">
        <ele>631.82324</ele>
        <time>2011-11-11T08:38:15Z</time>
      </trkpt>
      <trkpt lat="46.16312" lon="3.74312">
        <ele>630.08167</ele>
        <time>2011-11-11T08:38:18Z</time>
      </trkpt>
      <trkpt lat="46.16298" lon="3.7429">
        <ele>626.597</ele>
        <time>2011-11-11T08:38:21Z</time>
      </trkpt>
      <trkpt lat="46.16286" lon="3.74267">
        <ele>621.6108</ele>
        <time>2011-11-11T08:38:25Z</time>
      </trkpt>
      <trkpt lat="46.16274" lon="3.74243">
        <ele>618.2577</ele>
        <time>2011-11-11T08:38:28Z</time>
      </trkpt>
      <trkpt lat="46.16257" lon="3.74215">
        <ele>615.3587</ele>
        <time>2011-11-11T08:38:31Z</time>
      </trkpt>
      <trkpt lat="46.16238" lon="3.74187">
        <ele>612.97943</ele>
        <time>2011-11-11T08:38:34Z</time>
      </trkpt>
      <trkpt lat="46.16225" lon="3.74168">
        <ele>611.86346</ele>
        <time>2011-11-11T08:38:36Z</time>
      </trkpt>
      <trkpt lat="46.1621" lon="3.74142">
        <ele>610.34863</ele>
        <time>2011-11-11T08:38:39Z</time>
      </trkpt>
      <trkpt lat="46.16197" lon="3.74119">
        <ele>608.55334</ele>
        <time>2011-11-11T08:38:42Z</time>
      </trkpt>
      <trkpt lat="46.16185" lon="3.74097">
        <ele>606.3897</ele>
        <time>2011-11-11T08:38:45Z</time>
      </trkpt>
      <trkpt lat="46.16172" lon="3.74076">
        <ele>602.6644</ele>
        <time>2011-11-11T08:38:48Z</time>
      </trkpt>
      <trkpt lat="46.16159" lon="3.74054">
        <ele>595.8428</ele>
        <time>2011-11-11T08:38:51Z</time>
      </trkpt>
      <trkpt lat="46.16143" lon="3.74033">
        <ele>589.6055</ele>
        <time>2011-11-11T08:38:54Z</time>
      </trkpt>
      <trkpt lat="46.16129" lon="3.74014">
        <ele>584.84924</ele>
        <time>2011-11-11T08:38:57Z</time>
      </trkpt>
      <trkpt lat="46.16114" lon="3.73994">
        <ele>580.78015</ele>
        <time>2011-11-11T08:39:00Z</time>
      </trkpt>
      <trkpt lat="46.16098" lon="3.73975">
        <ele>577.5791</ele>
        <time>2011-11-11T08:39:03Z</time>
      </trkpt>
      <trkpt lat="46.16083" lon="3.73958">
        <ele>574.4778</ele>
        <time>2011-11-11T08:39:10Z</time>
      </trkpt>
      <trkpt lat="46.16073" lon="3.73934">
        <ele>571.68304</ele>
        <time>2011-11-11T08:39:20Z</time>
      </trkpt>
      <trkpt lat="46.16066" lon="3.73906">
        <ele>564.0183</ele>
        <time>2011-11-11T08:39:26Z</time>
      </trkpt>
      <trkpt lat="46.1606" lon="3.73881">
        <ele>557.2491</ele>
        <time>2011-11-11T08:39:32Z</time>
      </trkpt>
      <trkpt lat="46.16053" lon="3.73857">
        <ele>548.74677</ele>
        <time>2011-11-11T08:39:36Z</time>
      </trkpt>
      <trkpt lat="46.1604" lon="3.73831">
        <ele>538.10205</ele>
        <time>2011-11-11T08:39:41Z</time>
      </trkpt>
      <trkpt lat="46.1603" lon="3.73808">
        <ele>532.2082</ele>
        <time>2011-11-11T08:39:50Z</time>
      </trkpt>
      <trkpt lat="46.16028" lon="3.73782">
        <ele>527.6328</ele>
        <time>2011-11-11T08:40:41Z</time>
      </trkpt>
      <trkpt lat="46.16026" lon="3.73756">
        <ele>525.93463</ele>
        <time>2011-11-11T08:40:45Z</time>
      </trkpt>
      <trkpt lat="46.16023" lon="3.73724">
        <ele>523.4099</ele>
        <time>2011-11-11T08:40:48Z</time>
      </trkpt>
      <trkpt lat="46.16021" lon="3.73698">
        <ele>521.4181</ele>
        <time>2011-11-11T08:40:50Z</time>
      </trkpt>
      <trkpt lat="46.16016" lon="3.7367">
        <ele>518.11017</ele>
        <time>2011-11-11T08:40:52Z</time>
      </trkpt>
      <trkpt lat="46.16013" lon="3.73642">
        <ele>514.49945</ele>
        <time>2011-11-11T08:40:54Z</time>
      </trkpt>
      <trkpt lat="46.16013" lon="3.73615">
        <ele>508.09607</ele>
        <time>2011-11-11T08:40:59Z</time>
      </trkpt>
      <trkpt lat="46.16011" lon="3.73642">
        <ele>501.64844</ele>
        <time>2011-11-11T08:43:15Z</time>
      </trkpt>
      <trkpt lat="46.16014" lon="3.73668">
        <ele>498.89325</ele>
        <time>2011-11-11T08:43:21Z</time>
      </trkpt>
      <trkpt lat="46.16018" lon="3.73694">
        <ele>497.0472</ele>
        <time>2011-11-11T08:43:28Z</time>
      </trkpt>
      <trkpt lat="46.16023" lon="3.73726">
        <ele>495.06595</ele>
        <time>2011-11-11T08:43:37Z</time>
      </trkpt>
      <trkpt lat="46.16026" lon="3.73756">
        <ele>493.45868</ele>
        <time>2011-11-11T08:43:44Z</time>
      </trkpt>
      <trkpt lat="46.16033" lon="3.7378">
        <ele>491.00446</ele>
        <time>2011-11-11T08:44:15Z</time>
      </trkpt>
      <trkpt lat="46.16026" lon="3.73803">
        <ele>494.63232</ele>
        <time>2011-11-11T08:46:05Z</time>
      </trkpt>
      <trkpt lat="46.16015" lon="3.73825">
        <ele>499.269</ele>
        <time>2011-11-11T08:46:19Z</time>
      </trkpt>
      <trkpt lat="46.16004" lon="3.73846">
        <ele>502.6788</ele>
        <time>2011-11-11T08:46:34Z</time>
      </trkpt>
      <trkpt lat="46.15994" lon="3.73868">
        <ele>505.0081</ele>
        <time>2011-11-11T08:46:47Z</time>
      </trkpt>
      <trkpt lat="46.15983" lon="3.73889">
        <ele>507.58493</ele>
        <time>2011-11-11T08:47:00Z</time>
      </trkpt>
      <trkpt lat="46.15978" lon="3.73915">
        <ele>510.54987</ele>
        <time>2011-11-11T08:47:13Z</time>
      </trkpt>
      <trkpt lat="46.15967" lon="3.73939">
        <ele>512.50757</ele>
        <time>2011-11-11T08:47:25Z</time>
      </trkpt>
      <trkpt lat="46.15956" lon="3.7396">
        <ele>515.2674</ele>
        <time>2011-11-11T08:47:41Z</time>
      </trkpt>
      <trkpt lat="46.15945" lon="3.73984">
        <ele>517.60986</ele>
        <time>2011-11-11T08:47:54Z</time>
      </trkpt>
      <trkpt lat="46.15935" lon="3.74005">
        <ele>519.76746</ele>
        <time>2011-11-11T08:48:06Z</time>
      </trkpt>
      <trkpt lat="46.15922" lon="3.74027">
        <ele>521.9098</ele>
        <time>2011-11-11T08:48:23Z</time>
      </trkpt>
      <trkpt lat="46.15909" lon="3.74046">
        <ele>522.7598</ele>
        <time>2011-11-11T08:48:35Z</time>
      </trkpt>
      <trkpt lat="46.15897" lon="3.74067">
        <ele>523.804</ele>
        <time>2011-11-11T08:48:44Z</time>
      </trkpt>
      <trkpt lat="46.15885" lon="3.74089">
        <ele>526.2216</ele>
        <time>2011-11-11T08:48:56Z</time>
      </trkpt>
      <trkpt lat="46.15875" lon="3.74112">
        <ele>529.0563</ele>
        <time>2011-11-11T08:49:06Z</time>
      </trkpt>
      <trkpt lat="46.15866" lon="3.74136">
        <ele>532.16986</ele>
        <time>2011-11-11T08:49:15Z</time>
      </trkpt>
      <trkpt lat="46.15859" lon="3.74162">
        <ele>536.49945</ele>
        <time>2011-11-11T08:49:31Z</time>
      </trkpt>
      <trkpt lat="46.15848" lon="3.74183">
        <ele>539.8742</ele>
        <time>2011-11-11T08:49:42Z</time>
      </trkpt>
      <trkpt lat="46.15834" lon="3.74202">
        <ele>542.3017</ele>
        <time>2011-11-11T08:49:54Z</time>
      </trkpt>
      <trkpt lat="46.1582" lon="3.74222">
        <ele>543.7999</ele>
        <time>2011-11-11T08:50:06Z</time>
      </trkpt>
      <trkpt lat="46.15809" lon="3.74245">
        <ele>545.6951</ele>
        <time>2011-11-11T08:50:16Z</time>
      </trkpt>
      <trkpt lat="46.15798" lon="3.74267">
        <ele>548.10223</ele>
        <time>2011-11-11T08:50:25Z</time>
      </trkpt>
      <trkpt lat="46.15787" lon="3.74288">
        <ele>549.6162</ele>
        <time>2011-11-11T08:50:34Z</time>
      </trkpt>
      <trkpt lat="46.15773" lon="3.74305">
        <ele>551.59937</ele>
        <time>2011-11-11T08:50:47Z</time>
      </trkpt>
      <trkpt lat="46.15759" lon="3.74323">
        <ele>555.92816</ele>
        <time>2011-11-11T08:51:01Z</time>
      </trkpt>
      <trkpt lat="46.15745" lon="3.7434">
        <ele>559.83203</ele>
        <time>2011-11-11T08:51:10Z</time>
      </trkpt>
      <trkpt lat="46.15731" lon="3.74357">
        <ele>564.4115</ele>
        <time>2011-11-11T08:51:22Z</time>
      </trkpt>
      <trkpt lat="46.15718" lon="3.74378">
        <ele>571.3514</ele>
        <time>2011-11-11T08:51:34Z</time>
      </trkpt>
      <trkpt lat="46.15702" lon="3.74396">
        <ele>576.1922</ele>
        <time>2011-11-11T08:51:42Z</time>
      </trkpt>
      <trkpt lat="46.15686" lon="3.74413">
        <ele>578.77136</ele>
        <time>2011-11-11T08:51:49Z</time>
      </trkpt>
      <trkpt lat="46.15669" lon="3.74426">
        <ele>580.6705</ele>
        <time>2011-11-11T08:51:58Z</time>
      </trkpt>
      <trkpt lat="46.1565" lon="3.74424">
        <ele>583.01587</ele>
        <time>2011-11-11T08:52:09Z</time>
      </trkpt>
      <trkpt lat="46.15636" lon="3.74406">
        <ele>584.7528</ele>
        <time>2011-11-11T08:52:25Z</time>
      </trkpt>
      <trkpt lat="46.1563" lon="3.74381">
        <ele>585.9171</ele>
        <time>2011-11-11T08:52:37Z</time>
      </trkpt>
      <trkpt lat="46.15619" lon="3.74359">
        <ele>587.55884</ele>
        <time>2011-11-11T08:52:51Z</time>
      </trkpt>
      <trkpt lat="46.15615" lon="3.74333">
        <ele>589.8017</ele>
        <time>2011-11-11T08:53:09Z</time>
      </trkpt>
      <trkpt lat="46.15608" lon="3.7431">
        <ele>591.68335</ele>
        <time>2011-11-11T08:53:44Z</time>
      </trkpt>
      <trkpt lat="46.15596" lon="3.74288">
        <ele>592.86597</ele>
        <time>2011-11-11T08:54:06Z</time>
      </trkpt>
      <trkpt lat="46.15581" lon="3.74271">
        <ele>594.7431</ele>
        <time>2011-11-11T08:54:21Z</time>
      </trkpt>
      <trkpt lat="46.15565" lon="3.74258">
        <ele>596.6508</ele>
        <time>2011-11-11T08:54:40Z</time>
      </trkpt>
      <trkpt lat="46.15548" lon="3.74245">
        <ele>596.97375</ele>
        <time>2011-11-11T08:54:49Z</time>
      </trkpt>
      <trkpt lat="46.15533" lon="3.7423">
        <ele>597.43555</ele>
        <time>2011-11-11T08:54:58Z</time>
      </trkpt>
      <trkpt lat="46.15517" lon="3.74218">
        <ele>597.9247</ele>
        <time>2011-11-11T08:55:05Z</time>
      </trkpt>
      <trkpt lat="46.155" lon="3.74209">
        <ele>598.4196</ele>
        <time>2011-11-11T08:55:10Z</time>
      </trkpt>
      <trkpt lat="46.15484" lon="3.74194">
        <ele>599.47485</ele>
        <time>2011-11-11T08:55:16Z</time>
      </trkpt>
      <trkpt lat="46.1547" lon="3.74172">
        <ele>601.07556</ele>
        <time>2011-11-11T08:55:21Z</time>
      </trkpt>
      <trkpt lat="46.15467" lon="3.74147">
        <ele>604.2548</ele>
        <time>2011-11-11T08:55:28Z</time>
      </trkpt>
      <trkpt lat="46.15473" lon="3.74121">
        <ele>607.27264</ele>
        <time>2011-11-11T08:55:35Z</time>
      </trkpt>
      <trkpt lat="46.15478" lon="3.74095">
        <ele>611.99976</ele>
        <time>2011-11-11T08:56:41Z</time>
      </trkpt>
      <trkpt lat="46.15478" lon="3.74067">
        <ele>615.89813</ele>
        <time>2011-11-11T08:58:12Z</time>
      </trkpt>
      <trkpt lat="46.15473" lon="3.74042">
        <ele>616.8188</ele>
        <time>2011-11-11T08:58:24Z</time>
      </trkpt>
      <trkpt lat="46.15461" lon="3.7402">
        <ele>616.9992</ele>
        <time>2011-11-11T08:58:43Z</time>
      </trkpt>
      <trkpt lat="46.15448" lon="3.73999">
        <ele>616.4218</ele>
        <time>2011-11-11T08:58:52Z</time>
      </trkpt>
      <trkpt lat="46.15433" lon="3.73981">
        <ele>615.14685</ele>
        <time>2011-11-11T08:59:04Z</time>
      </trkpt>
      <trkpt lat="46.15417" lon="3.73969">
        <ele>613.3527</ele>
        <time>2011-11-11T08:59:16Z</time>
      </trkpt>
      <trkpt lat="46.15404" lon="3.73949">
        <ele>612.79706</ele>
        <time>2011-11-11T08:59:23Z</time>
      </trkpt>
      <trkpt lat="46.15393" lon="3.73928">
        <ele>612.02527</ele>
        <time>2011-11-11T08:59:35Z</time>
      </trkpt>
      <trkpt lat="46.15391" lon="3.73902">
        <ele>612.2519</ele>
        <time>2011-11-11T08:59:44Z</time>
      </trkpt>
      <trkpt lat="46.15388" lon="3.73876">
        <ele>613.1751</ele>
        <time>2011-11-11T08:59:52Z</time>
      </trkpt>
      <trkpt lat="46.15379" lon="3.73853">
        <ele>614.64874</ele>
        <time>2011-11-11T09:00:03Z</time>
      </trkpt>
      <trkpt lat="46.15361" lon="3.73848">
        <ele>620.3374</ele>
        <time>2011-11-11T09:02:10Z</time>
      </trkpt>
      <trkpt lat="46.15345" lon="3.73861">
        <ele>622.6469</ele>
        <time>2011-11-11T09:02:27Z</time>
      </trkpt>
      <trkpt lat="46.15329" lon="3.73874">
        <ele>622.9953</ele>
        <time>2011-11-11T09:02:42Z</time>
      </trkpt>
      <trkpt lat="46.15312" lon="3.73889">
        <ele>623.9762</ele>
        <time>2011-11-11T09:03:00Z</time>
      </trkpt>
      <trkpt lat="46.15295" lon="3.73898">
        <ele>627.7961</ele>
        <time>2011-11-11T09:03:19Z</time>
      </trkpt>
      <trkpt lat="46.15278" lon="3.73906">
        <ele>635.09656</ele>
        <time>2011-11-11T09:03:39Z</time>
      </trkpt>
      <trkpt lat="46.15261" lon="3.73919">
        <ele>643.8413</ele>
        <time>2011-11-11T09:03:59Z</time>
      </trkpt>
      <trkpt lat="46.15246" lon="3.73934">
        <ele>650.2463</ele>
        <time>2011-11-11T09:04:16Z</time>
      </trkpt>
      <trkpt lat="46.15233" lon="3.73954">
        <ele>655.73956</ele>
        <time>2011-11-11T09:04:40Z</time>
      </trkpt>
      <trkpt lat="46.15214" lon="3.7396">
        <ele>656.99976</ele>
        <time>2011-11-11T09:06:15Z</time>
      </trkpt>
      <trkpt lat="46.15193" lon="3.73956">
        <ele>657.76263</ele>
        <time>2011-11-11T09:06:21Z</time>
      </trkpt>
      <trkpt lat="46.15174" lon="3.73949">
        <ele>658.42413</ele>
        <time>2011-11-11T09:06:31Z</time>
      </trkpt>
      <trkpt lat="46.15156" lon="3.73945">
        <ele>658.9568</ele>
        <time>2011-11-11T09:06:40Z</time>
      </trkpt>
      <trkpt lat="46.15139" lon="3.73936">
        <ele>658.4211</ele>
        <time>2011-11-11T09:06:54Z</time>
      </trkpt>
      <trkpt lat="46.1512" lon="3.73934">
        <ele>658.73047</ele>
        <time>2011-11-11T09:07:10Z</time>
      </trkpt>
      <trkpt lat="46.15103" lon="3.73947">
        <ele>656.5043</ele>
        <time>2011-11-11T09:07:26Z</time>
      </trkpt>
      <trkpt lat="46.15085" lon="3.73958">
        <ele>655.1548</ele>
        <time>2011-11-11T09:07:37Z</time>
      </trkpt>
      <trkpt lat="46.15068" lon="3.73969">
        <ele>656.5118</ele>
        <time>2011-11-11T09:07:47Z</time>
      </trkpt>
      <trkpt lat="46.1505" lon="3.73975">
        <ele>659.32324</ele>
        <time>2011-11-11T09:07:58Z</time>
      </trkpt>
      <trkpt lat="46.1503" lon="3.73973">
        <ele>662.173</ele>
        <time>2011-11-11T09:08:06Z</time>
      </trkpt>
      <trkpt lat="46.15013" lon="3.7396">
        <ele>664.28973</ele>
        <time>2011-11-11T09:08:13Z</time>
      </trkpt>
      <trkpt lat="46.14999" lon="3.73943">
        <ele>664.8736</ele>
        <time>2011-11-11T09:08:19Z</time>
      </trkpt>
      <trkpt lat="46.14985" lon="3.73924">
        <ele>664.73315</ele>
        <time>2011-11-11T09:08:26Z</time>
      </trkpt>
      <trkpt lat="46.1497" lon="3.73909">
        <ele>663.0737</ele>
        <time>2011-11-11T09:08:39Z</time>
      </trkpt>
      <trkpt lat="46.14953" lon="3.739">
        <ele>661.57007</ele>
        <time>2011-11-11T09:09:04Z</time>
      </trkpt>
      <trkpt lat="46.14938" lon="3.73885">
        <ele>658.7428</ele>
        <time>2011-11-11T09:09:13Z</time>
      </trkpt>
      <trkpt lat="46.1492" lon="3.73883">
        <ele>654.74854</ele>
        <time>2011-11-11T09:09:24Z</time>
      </trkpt>
      <trkpt lat="46.14905" lon="3.73898">
        <ele>650.7409</ele>
        <time>2011-11-11T09:09:36Z</time>
      </trkpt>
      <trkpt lat="46.14889" lon="3.73913">
        <ele>648.11127</ele>
        <time>2011-11-11T09:09:43Z</time>
      </trkpt>
      <trkpt lat="46.14874" lon="3.7393">
        <ele>646.14264</ele>
        <time>2011-11-11T09:09:48Z</time>
      </trkpt>
      <trkpt lat="46.14855" lon="3.73947">
        <ele>644.44305</ele>
        <time>2011-11-11T09:09:53Z</time>
      </trkpt>
      <trkpt lat="46.14839" lon="3.7396">
        <ele>642.6285</ele>
        <time>2011-11-11T09:09:57Z</time>
      </trkpt>
      <trkpt lat="46.14814" lon="3.73966">
        <ele>640.6714</ele>
        <time>2011-11-11T09:10:00Z</time>
      </trkpt>
      <trkpt lat="46.14795" lon="3.73966">
        <ele>639.2526</ele>
        <time>2011-11-11T09:10:02Z</time>
      </trkpt>
      <trkpt lat="46.14772" lon="3.73962">
        <ele>637.1222</ele>
        <time>2011-11-11T09:10:05Z</time>
      </trkpt>
      <trkpt lat="46.1475" lon="3.73956">
        <ele>634.3004</ele>
        <time>2011-11-11T09:10:09Z</time>
      </trkpt>
      <trkpt lat="46.14733" lon="3.73964">
        <ele>630.36395</ele>
        <time>2011-11-11T09:10:16Z</time>
      </trkpt>
      <trkpt lat="46.14716" lon="3.73981">
        <ele>627.2996</ele>
        <time>2011-11-11T09:10:22Z</time>
      </trkpt>
      <trkpt lat="46.147" lon="3.73999">
        <ele>624.2882</ele>
        <time>2011-11-11T09:10:28Z</time>
      </trkpt>
      <trkpt lat="46.14686" lon="3.74022">
        <ele>620.7146</ele>
        <time>2011-11-11T09:10:35Z</time>
      </trkpt>
      <trkpt lat="46.14676" lon="3.74046">
        <ele>618.0287</ele>
        <time>2011-11-11T09:10:42Z</time>
      </trkpt>
      <trkpt lat="46.1467" lon="3.74074">
        <ele>616.37463</ele>
        <time>2011-11-11T09:10:49Z</time>
      </trkpt>
      <trkpt lat="46.14659" lon="3.74097">
        <ele>616.06665</ele>
        <time>2011-11-11T09:10:55Z</time>
      </trkpt>
      <trkpt lat="46.14647" lon="3.74123">
        <ele>616.01184</ele>
        <time>2011-11-11T09:11:01Z</time>
      </trkpt>
      <trkpt lat="46.14635" lon="3.74147">
        <ele>616.76483</ele>
        <time>2011-11-11T09:11:07Z</time>
      </trkpt>
      <trkpt lat="46.14626" lon="3.74172">
        <ele>616.9581</ele>
        <time>2011-11-11T09:11:13Z</time>
      </trkpt>
      <trkpt lat="46.14616" lon="3.74196">
        <ele>616.99255</ele>
        <time>2011-11-11T09:11:19Z</time>
      </trkpt>
      <trkpt lat="46.14604" lon="3.74218">
        <ele>617.68225</ele>
        <time>2011-11-11T09:11:25Z</time>
      </trkpt>
      <trkpt lat="46.14593" lon="3.74239">
        <ele>618.7061</ele>
        <time>2011-11-11T09:11:31Z</time>
      </trkpt>
      <trkpt lat="46.14586" lon="3.74267">
        <ele>619.7828</ele>
        <time>2011-11-11T09:11:38Z</time>
      </trkpt>
      <trkpt lat="46.14584" lon="3.74293">
        <ele>620.64496</ele>
        <time>2011-11-11T09:11:44Z</time>
      </trkpt>
      <trkpt lat="46.14579" lon="3.74321">
        <ele>621.63617</ele>
        <time>2011-11-11T09:11:51Z</time>
      </trkpt>
      <trkpt lat="46.14572" lon="3.74346">
        <ele>623.39606</ele>
        <time>2011-11-11T09:11:58Z</time>
      </trkpt>
      <trkpt lat="46.14569" lon="3.74372">
        <ele>625.907</ele>
        <time>2011-11-11T09:12:05Z</time>
      </trkpt>
      <trkpt lat="46.14574" lon="3.74398">
        <ele>628.2543</ele>
        <time>2011-11-11T09:12:12Z</time>
      </trkpt>
      <trkpt lat="46.14582" lon="3.74421">
        <ele>630.1849</ele>
        <time>2011-11-11T09:12:20Z</time>
      </trkpt>
      <trkpt lat="46.14586" lon="3.74447">
        <ele>632.4889</ele>
        <time>2011-11-11T09:12:29Z</time>
      </trkpt>
      <trkpt lat="46.14588" lon="3.74473">
        <ele>640.1995</ele>
        <time>2011-11-11T09:12:54Z</time>
      </trkpt>
      <trkpt lat="46.14587" lon="3.74501">
        <ele>649.4759</ele>
        <time>2011-11-11T09:14:09Z</time>
      </trkpt>
      <trkpt lat="46.14571" lon="3.74514">
        <ele>654.20465</ele>
        <time>2011-11-11T09:14:17Z</time>
      </trkpt>
      <trkpt lat="46.14553" lon="3.74522">
        <ele>657.3306</ele>
        <time>2011-11-11T09:14:23Z</time>
      </trkpt>
      <trkpt lat="46.14535" lon="3.74533">
        <ele>659.9031</ele>
        <time>2011-11-11T09:14:29Z</time>
      </trkpt>
      <trkpt lat="46.14517" lon="3.74544">
        <ele>661.8608</ele>
        <time>2011-11-11T09:14:34Z</time>
      </trkpt>
      <trkpt lat="46.145" lon="3.74554">
        <ele>663.41327</ele>
        <time>2011-11-11T09:14:39Z</time>
      </trkpt>
      <trkpt lat="46.14482" lon="3.74561">
        <ele>665.1551</ele>
        <time>2011-11-11T09:14:45Z</time>
      </trkpt>
      <trkpt lat="46.14465" lon="3.74569">
        <ele>666.5708</ele>
        <time>2011-11-11T09:14:52Z</time>
      </trkpt>
      <trkpt lat="46.14446" lon="3.74578">
        <ele>667.77905</ele>
        <time>2011-11-11T09:15:00Z</time>
      </trkpt>
      <trkpt lat="46.14428" lon="3.74591">
        <ele>667.9705</ele>
        <time>2011-11-11T09:15:07Z</time>
      </trkpt>
      <trkpt lat="46.14411" lon="3.74606">
        <ele>667.4179</ele>
        <time>2011-11-11T09:15:14Z</time>
      </trkpt>
      <trkpt lat="46.14393" lon="3.74621">
        <ele>667.0744</ele>
        <time>2011-11-11T09:15:20Z</time>
      </trkpt>
      <trkpt lat="46.14375" lon="3.74638">
        <ele>667.01324</ele>
        <time>2011-11-11T09:15:26Z</time>
      </trkpt>
      <trkpt lat="46.14359" lon="3.74657">
        <ele>666.7524</ele>
        <time>2011-11-11T09:15:32Z</time>
      </trkpt>
      <trkpt lat="46.14345" lon="3.74677">
        <ele>666.1339</ele>
        <time>2011-11-11T09:15:38Z</time>
      </trkpt>
      <trkpt lat="46.14337" lon="3.747">
        <ele>666.0318</ele>
        <time>2011-11-11T09:15:43Z</time>
      </trkpt>
      <trkpt lat="46.14329" lon="3.74724">
        <ele>665.243</ele>
        <time>2011-11-11T09:15:49Z</time>
      </trkpt>
      <trkpt lat="46.14321" lon="3.74748">
        <ele>665.0432</ele>
        <time>2011-11-11T09:15:55Z</time>
      </trkpt>
      <trkpt lat="46.14314" lon="3.74773">
        <ele>665.25433</ele>
        <time>2011-11-11T09:16:03Z</time>
      </trkpt>
      <trkpt lat="46.14305" lon="3.74797">
        <ele>666.44543</ele>
        <time>2011-11-11T09:16:09Z</time>
      </trkpt>
      <trkpt lat="46.14291" lon="3.74818">
        <ele>668.8444</ele>
        <time>2011-11-11T09:16:15Z</time>
      </trkpt>
      <trkpt lat="46.14276" lon="3.7484">
        <ele>671.7374</ele>
        <time>2011-11-11T09:16:21Z</time>
      </trkpt>
      <trkpt lat="46.14262" lon="3.74859">
        <ele>674.1161</ele>
        <time>2011-11-11T09:16:27Z</time>
      </trkpt>
      <trkpt lat="46.14254" lon="3.74883">
        <ele>676.24286</ele>
        <time>2011-11-11T09:16:33Z</time>
      </trkpt>
      <trkpt lat="46.14246" lon="3.74906">
        <ele>678.2654</ele>
        <time>2011-11-11T09:16:39Z</time>
      </trkpt>
      <trkpt lat="46.1423" lon="3.74919">
        <ele>680.23047</ele>
        <time>2011-11-11T09:16:47Z</time>
      </trkpt>
      <trkpt lat="46.14212" lon="3.7493">
        <ele>681.60657</ele>
        <time>2011-11-11T09:16:55Z</time>
      </trkpt>
      <trkpt lat="46.14196" lon="3.74945">
        <ele>682.6311</ele>
        <time>2011-11-11T09:17:02Z</time>
      </trkpt>
      <trkpt lat="46.14179" lon="3.74962">
        <ele>683.64667</ele>
        <time>2011-11-11T09:17:10Z</time>
      </trkpt>
      <trkpt lat="46.14164" lon="3.74979">
        <ele>684.2028</ele>
        <time>2011-11-11T09:17:17Z</time>
      </trkpt>
      <trkpt lat="46.14151" lon="3.74996">
        <ele>684.8936</ele>
        <time>2011-11-11T09:17:24Z</time>
      </trkpt>
      <trkpt lat="46.14137" lon="3.7502">
        <ele>685.8892</ele>
        <time>2011-11-11T09:17:32Z</time>
      </trkpt>
      <trkpt lat="46.14126" lon="3.75041">
        <ele>686.85175</ele>
        <time>2011-11-11T09:17:39Z</time>
      </trkpt>
      <trkpt lat="46.14115" lon="3.75063">
        <ele>687.7363</ele>
        <time>2011-11-11T09:17:45Z</time>
      </trkpt>
      <trkpt lat="46.14102" lon="3.75087">
        <ele>688.6484</ele>
        <time>2011-11-11T09:17:52Z</time>
      </trkpt>
      <trkpt lat="46.14092" lon="3.75108">
        <ele>689.51556</ele>
        <time>2011-11-11T09:17:58Z</time>
      </trkpt>
      <trkpt lat="46.1408" lon="3.75132">
        <ele>690.4919</ele>
        <time>2011-11-11T09:18:04Z</time>
      </trkpt>
      <trkpt lat="46.14065" lon="3.75153">
        <ele>691.6949</ele>
        <time>2011-11-11T09:18:11Z</time>
      </trkpt>
      <trkpt lat="46.1405" lon="3.7517">
        <ele>693.0177</ele>
        <time>2011-11-11T09:18:17Z</time>
      </trkpt>
      <trkpt lat="46.14031" lon="3.75185">
        <ele>694.3064</ele>
        <time>2011-11-11T09:18:24Z</time>
      </trkpt>
      <trkpt lat="46.14014" lon="3.75196">
        <ele>695.6701</ele>
        <time>2011-11-11T09:18:31Z</time>
      </trkpt>
      <trkpt lat="46.13996" lon="3.75209">
        <ele>697.271</ele>
        <time>2011-11-11T09:18:39Z</time>
      </trkpt>
      <trkpt lat="46.13981" lon="3.75224">
        <ele>698.999</ele>
        <time>2011-11-11T09:18:47Z</time>
      </trkpt>
      <trkpt lat="46.13966" lon="3.75239">
        <ele>700.5834</ele>
        <time>2011-11-11T09:18:55Z</time>
      </trkpt>
      <trkpt lat="46.13954" lon="3.75262">
        <ele>702.0748</ele>
        <time>2011-11-11T09:19:03Z</time>
      </trkpt>
      <trkpt lat="46.13947" lon="3.75286">
        <ele>703.314</ele>
        <time>2011-11-11T09:19:10Z</time>
      </trkpt>
      <trkpt lat="46.13942" lon="3.75312">
        <ele>704.59204</ele>
        <time>2011-11-11T09:19:17Z</time>
      </trkpt>
      <trkpt lat="46.13939" lon="3.75338">
        <ele>706.0176</ele>
        <time>2011-11-11T09:19:24Z</time>
      </trkpt>
      <trkpt lat="46.13937" lon="3.75363">
        <ele>709.9976</ele>
        <time>2011-11-11T09:20:27Z</time>
      </trkpt>
      <trkpt lat="46.13936" lon="3.75391">
        <ele>711.83344</ele>
        <time>2011-11-11T09:20:40Z</time>
      </trkpt>
      <trkpt lat="46.13935" lon="3.75419">
        <ele>714.23834</ele>
        <time>2011-11-11T09:20:50Z</time>
      </trkpt>
      <trkpt lat="46.13936" lon="3.75447">
        <ele>715.68646</ele>
        <time>2011-11-11T09:20:58Z</time>
      </trkpt>
      <trkpt lat="46.13936" lon="3.75477">
        <ele>716.7208</ele>
        <time>2011-11-11T09:21:05Z</time>
      </trkpt>
      <trkpt lat="46.13936" lon="3.75505">
        <ele>717.7254</ele>
        <time>2011-11-11T09:21:12Z</time>
      </trkpt>
      <trkpt lat="46.13938" lon="3.75531">
        <ele>717.9511</ele>
        <time>2011-11-11T09:21:18Z</time>
      </trkpt>
      <trkpt lat="46.1394" lon="3.75556">
        <ele>718.4259</ele>
        <time>2011-11-11T09:21:23Z</time>
      </trkpt>
      <trkpt lat="46.13941" lon="3.75584">
        <ele>718.9425</ele>
        <time>2011-11-11T09:21:31Z</time>
      </trkpt>
      <trkpt lat="46.13949" lon="3.7561">
        <ele>719.95734</ele>
        <time>2011-11-11T09:21:48Z</time>
      </trkpt>
      <trkpt lat="46.13948" lon="3.75638">
        <ele>719.9957</ele>
        <time>2011-11-11T09:21:56Z</time>
      </trkpt>
      <trkpt lat="46.1395" lon="3.75664">
        <ele>719.99945</ele>
        <time>2011-11-11T09:22:03Z</time>
      </trkpt>
      <trkpt lat="46.1396" lon="3.75687">
        <ele>720.95776</ele>
        <time>2011-11-11T09:22:14Z</time>
      </trkpt>
      <trkpt lat="46.13976" lon="3.757">
        <ele>720.9982</ele>
        <time>2011-11-11T09:22:25Z</time>
      </trkpt>
      <trkpt lat="46.13987" lon="3.75679">
        <ele>721.76263</ele>
        <time>2011-11-11T09:22:36Z</time>
      </trkpt>
      <trkpt lat="46.13995" lon="3.75655">
        <ele>721.98663</ele>
        <time>2011-11-11T09:22:46Z</time>
      </trkpt>
      <trkpt lat="46.14" lon="3.75629">
        <ele>722.8993</ele>
        <time>2011-11-11T09:22:57Z</time>
      </trkpt>
      <trkpt lat="46.14007" lon="3.75604">
        <ele>722.99243</ele>
        <time>2011-11-11T09:23:06Z</time>
      </trkpt>
      <trkpt lat="46.14019" lon="3.7558">
        <ele>722.99945</ele>
        <time>2011-11-11T09:23:15Z</time>
      </trkpt>
      <trkpt lat="46.14034" lon="3.75561">
        <ele>723.57806</ele>
        <time>2011-11-11T09:23:22Z</time>
      </trkpt>
      <trkpt lat="46.14049" lon="3.75541">
        <ele>723.94366</ele>
        <time>2011-11-11T09:23:29Z</time>
      </trkpt>
      <trkpt lat="46.1406" lon="3.7552">
        <ele>725.2965</ele>
        <time>2011-11-11T09:23:36Z</time>
      </trkpt>
      <trkpt lat="46.14071" lon="3.75496">
        <ele>727.4384</ele>
        <time>2011-11-11T09:23:46Z</time>
      </trkpt>
      <trkpt lat="46.14085" lon="3.75475">
        <ele>728.7065</ele>
        <time>2011-11-11T09:23:54Z</time>
      </trkpt>
      <trkpt lat="46.14099" lon="3.75456">
        <ele>730.19305</ele>
        <time>2011-11-11T09:23:59Z</time>
      </trkpt>
      <trkpt lat="46.14117" lon="3.75436">
        <ele>734.28314</ele>
        <time>2011-11-11T09:24:04Z</time>
      </trkpt>
      <trkpt lat="46.14134" lon="3.75421">
        <ele>737.0389</ele>
        <time>2011-11-11T09:24:09Z</time>
      </trkpt>
      <trkpt lat="46.14149" lon="3.75404">
        <ele>737.7719</ele>
        <time>2011-11-11T09:24:14Z</time>
      </trkpt>
      <trkpt lat="46.1417" lon="3.75391">
        <ele>737.94586</ele>
        <time>2011-11-11T09:24:19Z</time>
      </trkpt>
      <trkpt lat="46.1419" lon="3.75385">
        <ele>737.9872</ele>
        <time>2011-11-11T09:24:24Z</time>
      </trkpt>
      <trkpt lat="46.14208" lon="3.75376">
        <ele>737.99695</ele>
        <time>2011-11-11T09:24:29Z</time>
      </trkpt>
      <trkpt lat="46.14227" lon="3.75365">
        <ele>737.99945</ele>
        <time>2011-11-11T09:24:35Z</time>
      </trkpt>
      <trkpt lat="46.14245" lon="3.75353">
        <ele>737.9999</ele>
        <time>2011-11-11T09:24:41Z</time>
      </trkpt>
      <trkpt lat="46.14262" lon="3.75342">
        <ele>737.99994</ele>
        <time>2011-11-11T09:24:45Z</time>
      </trkpt>
      <trkpt lat="46.14284" lon="3.75342">
        <ele>737.4219</ele>
        <time>2011-11-11T09:24:49Z</time>
      </trkpt>
      <trkpt lat="46.14303" lon="3.75338">
        <ele>737.1335</ele>
        <time>2011-11-11T09:24:53Z</time>
      </trkpt>
      <trkpt lat="46.14322" lon="3.75331">
        <ele>737.02374</ele>
        <time>2011-11-11T09:24:59Z</time>
      </trkpt>
      <trkpt lat="46.14333" lon="3.75353">
        <ele>736.00134</ele>
        <time>2011-11-11T09:25:30Z</time>
      </trkpt>
      <trkpt lat="46.14336" lon="3.75378">
        <ele>736.00024</ele>
        <time>2011-11-11T09:25:36Z</time>
      </trkpt>
      <trkpt lat="46.14339" lon="3.75406">
        <ele>736.8221</ele>
        <time>2011-11-11T09:25:42Z</time>
      </trkpt>
      <trkpt lat="46.14341" lon="3.75434">
        <ele>736.9822</ele>
        <time>2011-11-11T09:25:50Z</time>
      </trkpt>
      <trkpt lat="46.14326" lon="3.75453">
        <ele>736.23676</ele>
        <time>2011-11-11T09:26:02Z</time>
      </trkpt>
      <trkpt lat="46.14308" lon="3.75468">
        <ele>734.93506</ele>
        <time>2011-11-11T09:26:07Z</time>
      </trkpt>
      <trkpt lat="46.14298" lon="3.75492">
        <ele>732.9602</ele>
        <time>2011-11-11T09:26:12Z</time>
      </trkpt>
      <trkpt lat="46.14302" lon="3.75522">
        <ele>730.3841</ele>
        <time>2011-11-11T09:26:17Z</time>
      </trkpt>
      <trkpt lat="46.14306" lon="3.75552">
        <ele>726.1215</ele>
        <time>2011-11-11T09:26:21Z</time>
      </trkpt>
      <trkpt lat="46.1431" lon="3.75578">
        <ele>721.7164</ele>
        <time>2011-11-11T09:26:26Z</time>
      </trkpt>
      <trkpt lat="46.1433" lon="3.75582">
        <ele>717.83966</ele>
        <time>2011-11-11T09:26:32Z</time>
      </trkpt>
      <trkpt lat="46.14349" lon="3.7558">
        <ele>712.7507</ele>
        <time>2011-11-11T09:27:03Z</time>
      </trkpt>
      <trkpt lat="46.14367" lon="3.75571">
        <ele>710.1008</ele>
        <time>2011-11-11T09:27:07Z</time>
      </trkpt>
      <trkpt lat="46.14391" lon="3.75565">
        <ele>707.153</ele>
        <time>2011-11-11T09:27:11Z</time>
      </trkpt>
      <trkpt lat="46.14411" lon="3.75563">
        <ele>705.47076</ele>
        <time>2011-11-11T09:27:14Z</time>
      </trkpt>
      <trkpt lat="46.14433" lon="3.75569">
        <ele>704.183</ele>
        <time>2011-11-11T09:27:17Z</time>
      </trkpt>
      <trkpt lat="46.14454" lon="3.75576">
        <ele>702.8116</ele>
        <time>2011-11-11T09:27:20Z</time>
      </trkpt>
      <trkpt lat="46.14479" lon="3.7558">
        <ele>700.74866</ele>
        <time>2011-11-11T09:27:23Z</time>
      </trkpt>
      <trkpt lat="46.14497" lon="3.75584">
        <ele>699.30023</ele>
        <time>2011-11-11T09:27:26Z</time>
      </trkpt>
      <trkpt lat="46.14517" lon="3.75591">
        <ele>697.39575</ele>
        <time>2011-11-11T09:27:30Z</time>
      </trkpt>
      <trkpt lat="46.14538" lon="3.75599">
        <ele>694.88495</ele>
        <time>2011-11-11T09:27:35Z</time>
      </trkpt>
      <trkpt lat="46.14556" lon="3.75608">
        <ele>693.4473</ele>
        <time>2011-11-11T09:27:40Z</time>
      </trkpt>
      <trkpt lat="46.14576" lon="3.75612">
        <ele>693.0796</ele>
        <time>2011-11-11T09:27:46Z</time>
      </trkpt>
      <trkpt lat="46.14597" lon="3.75617">
        <ele>691.7533</ele>
        <time>2011-11-11T09:27:51Z</time>
      </trkpt>
      <trkpt lat="46.14616" lon="3.75617">
        <ele>688.6055</ele>
        <time>2011-11-11T09:27:55Z</time>
      </trkpt>
      <trkpt lat="46.14638" lon="3.75617">
        <ele>684.6252</ele>
        <time>2011-11-11T09:27:59Z</time>
      </trkpt>
      <trkpt lat="46.1466" lon="3.75621">
        <ele>681.02594</ele>
        <time>2011-11-11T09:28:03Z</time>
      </trkpt>
      <trkpt lat="46.14679" lon="3.75627">
        <ele>679.06287</ele>
        <time>2011-11-11T09:28:07Z</time>
      </trkpt>
      <trkpt lat="46.14698" lon="3.75634">
        <ele>679.0199</ele>
        <time>2011-11-11T09:28:11Z</time>
      </trkpt>
      <trkpt lat="46.14718" lon="3.75636">
        <ele>679.0047</ele>
        <time>2011-11-11T09:28:16Z</time>
      </trkpt>
      <trkpt lat="46.14742" lon="3.75642">
        <ele>678</ele>
        <time>2011-11-11T09:29:43Z</time>
      </trkpt>
      <trkpt lat="46.14762" lon="3.75644">
        <ele>678.1406</ele>
        <time>2011-11-11T09:29:47Z</time>
      </trkpt>
      <trkpt lat="46.14785" lon="3.75651">
        <ele>677.2164</ele>
        <time>2011-11-11T09:29:51Z</time>
      </trkpt>
      <trkpt lat="46.14807" lon="3.75659">
        <ele>675.0138</ele>
        <time>2011-11-11T09:29:55Z</time>
      </trkpt>
      <trkpt lat="46.14828" lon="3.75664">
        <ele>673.059</ele>
        <time>2011-11-11T09:29:59Z</time>
      </trkpt>
      <trkpt lat="46.14847" lon="3.75659">
        <ele>671.214</ele>
        <time>2011-11-11T09:30:03Z</time>
      </trkpt>
      <trkpt lat="46.14867" lon="3.75664">
        <ele>666.0381</ele>
        <time>2011-11-11T09:30:11Z</time>
      </trkpt>
      <trkpt lat="46.14888" lon="3.75672">
        <ele>659.76605</ele>
        <time>2011-11-11T09:30:14Z</time>
      </trkpt>
      <trkpt lat="46.14905" lon="3.75683">
        <ele>655.4934</ele>
        <time>2011-11-11T09:30:16Z</time>
      </trkpt>
      <trkpt lat="46.14923" lon="3.75705">
        <ele>651.2394</ele>
        <time>2011-11-11T09:30:19Z</time>
      </trkpt>
      <trkpt lat="46.14936" lon="3.75732">
        <ele>646.94476</ele>
        <time>2011-11-11T09:30:22Z</time>
      </trkpt>
      <trkpt lat="46.14949" lon="3.75765">
        <ele>645.1017</ele>
        <time>2011-11-11T09:30:25Z</time>
      </trkpt>
      <trkpt lat="46.14955" lon="3.75799">
        <ele>643.9111</ele>
        <time>2011-11-11T09:30:29Z</time>
      </trkpt>
      <trkpt lat="46.14957" lon="3.75838">
        <ele>642.1187</ele>
        <time>2011-11-11T09:30:32Z</time>
      </trkpt>
      <trkpt lat="46.14958" lon="3.7587">
        <ele>639.8168</ele>
        <time>2011-11-11T09:30:34Z</time>
      </trkpt>
      <trkpt lat="46.14962" lon="3.75902">
        <ele>637.022</ele>
        <time>2011-11-11T09:30:36Z</time>
      </trkpt>
      <trkpt lat="46.14967" lon="3.7593">
        <ele>634.1373</ele>
        <time>2011-11-11T09:30:38Z</time>
      </trkpt>
      <trkpt lat="46.14976" lon="3.75953">
        <ele>630.0423</ele>
        <time>2011-11-11T09:30:41Z</time>
      </trkpt>
      <trkpt lat="46.14994" lon="3.75973">
        <ele>625.3298</ele>
        <time>2011-11-11T09:30:45Z</time>
      </trkpt>
      <trkpt lat="46.15013" lon="3.75986">
        <ele>622.13916</ele>
        <time>2011-11-11T09:30:48Z</time>
      </trkpt>
      <trkpt lat="46.15022" lon="3.76011">
        <ele>618.6212</ele>
        <time>2011-11-11T09:30:54Z</time>
      </trkpt>
      <trkpt lat="46.15022" lon="3.76039">
        <ele>616.622</ele>
        <time>2011-11-11T09:30:59Z</time>
      </trkpt>
      <trkpt lat="46.15032" lon="3.76069">
        <ele>617.02496</ele>
        <time>2011-11-11T09:31:03Z</time>
      </trkpt>
      <trkpt lat="46.15044" lon="3.76093">
        <ele>617.5886</ele>
        <time>2011-11-11T09:31:06Z</time>
      </trkpt>
      <trkpt lat="46.15055" lon="3.76117">
        <ele>617.389</ele>
        <time>2011-11-11T09:31:09Z</time>
      </trkpt>
      <trkpt lat="46.15067" lon="3.76138">
        <ele>616.33594</ele>
        <time>2011-11-11T09:31:12Z</time>
      </trkpt>
      <trkpt lat="46.15081" lon="3.76159">
        <ele>614.9855</ele>
        <time>2011-11-11T09:31:15Z</time>
      </trkpt>
      <trkpt lat="46.15094" lon="3.76185">
        <ele>613.7964</ele>
        <time>2011-11-11T09:31:20Z</time>
      </trkpt>
      <trkpt lat="46.15106" lon="3.76224">
        <ele>613.00195</ele>
        <time>2011-11-11T09:31:24Z</time>
      </trkpt>
      <trkpt lat="46.15117" lon="3.76245">
        <ele>611.78174</ele>
        <time>2011-11-11T09:31:36Z</time>
      </trkpt>
      <trkpt lat="46.15143" lon="3.76258">
        <ele>610.24774</ele>
        <time>2011-11-11T09:31:51Z</time>
      </trkpt>
      <trkpt lat="46.15162" lon="3.76269">
        <ele>609.2704</ele>
        <time>2011-11-11T09:31:58Z</time>
      </trkpt>
      <trkpt lat="46.15178" lon="3.76282">
        <ele>608.6481</ele>
        <time>2011-11-11T09:32:02Z</time>
      </trkpt>
      <trkpt lat="46.15198" lon="3.76286">
        <ele>608.0234</ele>
        <time>2011-11-11T09:32:05Z</time>
      </trkpt>
      <trkpt lat="46.15217" lon="3.76282">
        <ele>607.5757</ele>
        <time>2011-11-11T09:32:07Z</time>
      </trkpt>
      <trkpt lat="46.15237" lon="3.76271">
        <ele>606.8863</ele>
        <time>2011-11-11T09:32:09Z</time>
      </trkpt>
      <trkpt lat="46.15257" lon="3.76245">
        <ele>606.06104</ele>
        <time>2011-11-11T09:32:11Z</time>
      </trkpt>
      <trkpt lat="46.15273" lon="3.76224">
        <ele>605.15936</ele>
        <time>2011-11-11T09:32:13Z</time>
      </trkpt>
      <trkpt lat="46.15289" lon="3.76204">
        <ele>604.2146</ele>
        <time>2011-11-11T09:32:15Z</time>
      </trkpt>
      <trkpt lat="46.15303" lon="3.76185">
        <ele>602.9957</ele>
        <time>2011-11-11T09:32:17Z</time>
      </trkpt>
      <trkpt lat="46.15314" lon="3.76159">
        <ele>600.1388</ele>
        <time>2011-11-11T09:32:20Z</time>
      </trkpt>
      <trkpt lat="46.15317" lon="3.76132">
        <ele>596.48047</ele>
        <time>2011-11-11T09:32:23Z</time>
      </trkpt>
      <trkpt lat="46.15314" lon="3.76106">
        <ele>593.2027</ele>
        <time>2011-11-11T09:32:26Z</time>
      </trkpt>
      <trkpt lat="46.153" lon="3.76086">
        <ele>589.4944</ele>
        <time>2011-11-11T09:32:31Z</time>
      </trkpt>
      <trkpt lat="46.1529" lon="3.76063">
        <ele>585.08356</ele>
        <time>2011-11-11T09:32:34Z</time>
      </trkpt>
      <trkpt lat="46.15283" lon="3.76037">
        <ele>578.0978</ele>
        <time>2011-11-11T09:32:37Z</time>
      </trkpt>
      <trkpt lat="46.15276" lon="3.76005">
        <ele>566.96454</ele>
        <time>2011-11-11T09:32:41Z</time>
      </trkpt>
      <trkpt lat="46.15278" lon="3.75975">
        <ele>558.9927</ele>
        <time>2011-11-11T09:32:45Z</time>
      </trkpt>
      <trkpt lat="46.15292" lon="3.75951">
        <ele>552.7516</ele>
        <time>2011-11-11T09:32:49Z</time>
      </trkpt>
      <trkpt lat="46.15297" lon="3.75919">
        <ele>545.6559</ele>
        <time>2011-11-11T09:32:54Z</time>
      </trkpt>
      <trkpt lat="46.1529" lon="3.75893">
        <ele>542.27673</ele>
        <time>2011-11-11T09:32:57Z</time>
      </trkpt>
      <trkpt lat="46.15279" lon="3.75872">
        <ele>539.11676</ele>
        <time>2011-11-11T09:33:00Z</time>
      </trkpt>
      <trkpt lat="46.15259" lon="3.7585">
        <ele>535.36176</ele>
        <time>2011-11-11T09:33:03Z</time>
      </trkpt>
      <trkpt lat="46.15238" lon="3.75842">
        <ele>530.30884</ele>
        <time>2011-11-11T09:33:06Z</time>
      </trkpt>
      <trkpt lat="46.15236" lon="3.75816">
        <ele>526.2227</ele>
        <time>2011-11-11T09:33:11Z</time>
      </trkpt>
      <trkpt lat="46.15253" lon="3.75799">
        <ele>526.73645</ele>
        <time>2011-11-11T09:33:16Z</time>
      </trkpt>
      <trkpt lat="46.15271" lon="3.75786">
        <ele>527.3541</ele>
        <time>2011-11-11T09:33:20Z</time>
      </trkpt>
      <trkpt lat="46.15287" lon="3.75765">
        <ele>527.79565</ele>
        <time>2011-11-11T09:33:24Z</time>
      </trkpt>
      <trkpt lat="46.15303" lon="3.75743">
        <ele>529.36896</ele>
        <time>2011-11-11T09:33:28Z</time>
      </trkpt>
      <trkpt lat="46.15324" lon="3.75743">
        <ele>534.1012</ele>
        <time>2011-11-11T09:33:33Z</time>
      </trkpt>
      <trkpt lat="46.15338" lon="3.75762">
        <ele>535.98694</ele>
        <time>2011-11-11T09:33:38Z</time>
      </trkpt>
      <trkpt lat="46.15352" lon="3.75784">
        <ele>537.1971</ele>
        <time>2011-11-11T09:33:43Z</time>
      </trkpt>
      <trkpt lat="46.15367" lon="3.75805">
        <ele>539.58777</ele>
        <time>2011-11-11T09:33:48Z</time>
      </trkpt>
      <trkpt lat="46.15383" lon="3.75818">
        <ele>542.4432</ele>
        <time>2011-11-11T09:33:53Z</time>
      </trkpt>
      <trkpt lat="46.15404" lon="3.7582">
        <ele>545.37305</ele>
        <time>2011-11-11T09:33:59Z</time>
      </trkpt>
      <trkpt lat="46.15422" lon="3.7581">
        <ele>548.0998</ele>
        <time>2011-11-11T09:34:07Z</time>
      </trkpt>
      <trkpt lat="46.15436" lon="3.7579">
        <ele>550.9293</ele>
        <time>2011-11-11T09:34:16Z</time>
      </trkpt>
      <trkpt lat="46.15452" lon="3.75773">
        <ele>553.1555</ele>
        <time>2011-11-11T09:34:24Z</time>
      </trkpt>
      <trkpt lat="46.15467" lon="3.75758">
        <ele>556.01263</ele>
        <time>2011-11-11T09:34:34Z</time>
      </trkpt>
      <trkpt lat="46.15459" lon="3.75784">
        <ele>562.668</ele>
        <time>2011-11-11T09:34:40Z</time>
      </trkpt>
      <trkpt lat="46.15455" lon="3.75814">
        <ele>568.01215</ele>
        <time>2011-11-11T09:34:44Z</time>
      </trkpt>
      <trkpt lat="46.15456" lon="3.75844">
        <ele>569.8046</ele>
        <time>2011-11-11T09:34:48Z</time>
      </trkpt>
      <trkpt lat="46.15456" lon="3.75878">
        <ele>567.63635</ele>
        <time>2011-11-11T09:34:51Z</time>
      </trkpt>
      <trkpt lat="46.15459" lon="3.75917">
        <ele>564.70593</ele>
        <time>2011-11-11T09:34:54Z</time>
      </trkpt>
      <trkpt lat="46.15464" lon="3.75947">
        <ele>562.7041</ele>
        <time>2011-11-11T09:34:57Z</time>
      </trkpt>
      <trkpt lat="46.15469" lon="3.75979">
        <ele>558.6375</ele>
        <time>2011-11-11T09:35:03Z</time>
      </trkpt>
      <trkpt lat="46.15474" lon="3.76005">
        <ele>554.1347</ele>
        <time>2011-11-11T09:35:09Z</time>
      </trkpt>
      <trkpt lat="46.15487" lon="3.76039">
        <ele>549.2131</ele>
        <time>2011-11-11T09:35:12Z</time>
      </trkpt>
      <trkpt lat="46.15499" lon="3.76074">
        <ele>546.2449</ele>
        <time>2011-11-11T09:35:14Z</time>
      </trkpt>
      <trkpt lat="46.1551" lon="3.76104">
        <ele>544.13776</ele>
        <time>2011-11-11T09:35:16Z</time>
      </trkpt>
      <trkpt lat="46.15523" lon="3.76138">
        <ele>542.32745</ele>
        <time>2011-11-11T09:35:18Z</time>
      </trkpt>
      <trkpt lat="46.15537" lon="3.76177">
        <ele>541.0592</ele>
        <time>2011-11-11T09:35:20Z</time>
      </trkpt>
      <trkpt lat="46.15548" lon="3.76215">
        <ele>540.1583</ele>
        <time>2011-11-11T09:35:22Z</time>
      </trkpt>
      <trkpt lat="46.15559" lon="3.7625">
        <ele>539.21405</ele>
        <time>2011-11-11T09:35:24Z</time>
      </trkpt>
      <trkpt lat="46.15568" lon="3.7628">
        <ele>538.2454</ele>
        <time>2011-11-11T09:35:26Z</time>
      </trkpt>
      <trkpt lat="46.15569" lon="3.76316">
        <ele>537.20056</ele>
        <time>2011-11-11T09:35:28Z</time>
      </trkpt>
      <trkpt lat="46.15568" lon="3.76355">
        <ele>535.5503</ele>
        <time>2011-11-11T09:35:30Z</time>
      </trkpt>
      <trkpt lat="46.15571" lon="3.76383">
        <ele>533.9971</ele>
        <time>2011-11-11T09:35:32Z</time>
      </trkpt>
      <trkpt lat="46.15574" lon="3.76423">
        <ele>529.25604</ele>
        <time>2011-11-11T09:35:39Z</time>
      </trkpt>
      <trkpt lat="46.15572" lon="3.76449">
        <ele>523.67865</ele>
        <time>2011-11-11T09:35:43Z</time>
      </trkpt>
      <trkpt lat="46.1557" lon="3.7649">
        <ele>518.58997</ele>
        <time>2011-11-11T09:35:53Z</time>
      </trkpt>
      <trkpt lat="46.15558" lon="3.76518">
        <ele>517.2333</ele>
        <time>2011-11-11T09:35:56Z</time>
      </trkpt>
      <trkpt lat="46.15542" lon="3.76541">
        <ele>516.08276</ele>
        <time>2011-11-11T09:35:59Z</time>
      </trkpt>
      <trkpt lat="46.15525" lon="3.76561">
        <ele>514.57336</ele>
        <time>2011-11-11T09:36:04Z</time>
      </trkpt>
      <trkpt lat="46.15507" lon="3.76576">
        <ele>512.1846</ele>
        <time>2011-11-11T09:36:13Z</time>
      </trkpt>
      <trkpt lat="46.15491" lon="3.76591">
        <ele>509.28882</ele>
        <time>2011-11-11T09:36:22Z</time>
      </trkpt>
      <trkpt lat="46.15473" lon="3.76601">
        <ele>507.08408</ele>
        <time>2011-11-11T09:36:31Z</time>
      </trkpt>
      <trkpt lat="46.15448" lon="3.76614">
        <ele>503.99597</ele>
        <time>2011-11-11T09:36:44Z</time>
      </trkpt>
      <trkpt lat="46.15427" lon="3.76625">
        <ele>502.8061</ele>
        <time>2011-11-11T09:36:54Z</time>
      </trkpt>
      <trkpt lat="46.15411" lon="3.76642">
        <ele>502.8232</ele>
        <time>2011-11-11T09:37:03Z</time>
      </trkpt>
      <trkpt lat="46.15396" lon="3.76664">
        <ele>503.745</ele>
        <time>2011-11-11T09:37:11Z</time>
      </trkpt>
      <trkpt lat="46.15383" lon="3.76683">
        <ele>504.22446</ele>
        <time>2011-11-11T09:37:19Z</time>
      </trkpt>
      <trkpt lat="46.15388" lon="3.76711">
        <ele>505.19177</ele>
        <time>2011-11-11T09:37:28Z</time>
      </trkpt>
      <trkpt lat="46.15408" lon="3.76717">
        <ele>504.88345</ele>
        <time>2011-11-11T09:38:04Z</time>
      </trkpt>
      <trkpt lat="46.15429" lon="3.76709">
        <ele>502.78705</ele>
        <time>2011-11-11T09:38:14Z</time>
      </trkpt>
      <trkpt lat="46.15448" lon="3.76694">
        <ele>499.9162</ele>
        <time>2011-11-11T09:38:22Z</time>
      </trkpt>
      <trkpt lat="46.15468" lon="3.76687">
        <ele>498.34103</ele>
        <time>2011-11-11T09:38:28Z</time>
      </trkpt>
      <trkpt lat="46.15487" lon="3.76685">
        <ele>498.0607</ele>
        <time>2011-11-11T09:38:34Z</time>
      </trkpt>
      <trkpt lat="46.15512" lon="3.76687">
        <ele>498.0108</ele>
        <time>2011-11-11T09:38:40Z</time>
      </trkpt>
      <trkpt lat="46.1553" lon="3.76692">
        <ele>498.68552</ele>
        <time>2011-11-11T09:38:46Z</time>
      </trkpt>
      <trkpt lat="46.1555" lon="3.76696">
        <ele>499.7207</ele>
        <time>2011-11-11T09:38:53Z</time>
      </trkpt>
      <trkpt lat="46.15569" lon="3.76696">
        <ele>500.84555</ele>
        <time>2011-11-11T09:39:02Z</time>
      </trkpt>
      <trkpt lat="46.15588" lon="3.76692">
        <ele>501.88443</ele>
        <time>2011-11-11T09:39:10Z</time>
      </trkpt>
      <trkpt lat="46.15606" lon="3.76694">
        <ele>502.81335</ele>
        <time>2011-11-11T09:39:19Z</time>
      </trkpt>
      <trkpt lat="46.15623" lon="3.76707">
        <ele>502.99213</ele>
        <time>2011-11-11T09:39:30Z</time>
      </trkpt>
      <trkpt lat="46.15641" lon="3.76717">
        <ele>503.76245</ele>
        <time>2011-11-11T09:39:42Z</time>
      </trkpt>
      <trkpt lat="46.15658" lon="3.76726">
        <ele>505.29065</ele>
        <time>2011-11-11T09:39:52Z</time>
      </trkpt>
      <trkpt lat="46.15677" lon="3.7673">
        <ele>507.30743</ele>
        <time>2011-11-11T09:40:03Z</time>
      </trkpt>
      <trkpt lat="46.15695" lon="3.76737">
        <ele>509.5445</ele>
        <time>2011-11-11T09:40:13Z</time>
      </trkpt>
      <trkpt lat="46.15713" lon="3.76745">
        <ele>512.18396</ele>
        <time>2011-11-11T09:40:24Z</time>
      </trkpt>
      <trkpt lat="46.1573" lon="3.76756">
        <ele>514.3987</ele>
        <time>2011-11-11T09:40:34Z</time>
      </trkpt>
      <trkpt lat="46.15748" lon="3.76762">
        <ele>516.6873</ele>
        <time>2011-11-11T09:40:46Z</time>
      </trkpt>
      <trkpt lat="46.15768" lon="3.76767">
        <ele>518.4467</ele>
        <time>2011-11-11T09:40:54Z</time>
      </trkpt>
      <trkpt lat="46.15789" lon="3.76762">
        <ele>520.72626</ele>
        <time>2011-11-11T09:41:01Z</time>
      </trkpt>
      <trkpt lat="46.15808" lon="3.7676">
        <ele>522.7069</ele>
        <time>2011-11-11T09:41:07Z</time>
      </trkpt>
      <trkpt lat="46.15826" lon="3.7676">
        <ele>524.7034</ele>
        <time>2011-11-11T09:41:13Z</time>
      </trkpt>
      <trkpt lat="46.15847" lon="3.76762">
        <ele>527.0271</ele>
        <time>2011-11-11T09:41:20Z</time>
      </trkpt>
      <trkpt lat="46.15865" lon="3.76767">
        <ele>529.0703</ele>
        <time>2011-11-11T09:41:27Z</time>
      </trkpt>
      <trkpt lat="46.15884" lon="3.76775">
        <ele>530.5181</ele>
        <time>2011-11-11T09:41:33Z</time>
      </trkpt>
      <trkpt lat="46.15903" lon="3.76786">
        <ele>531.67694</ele>
        <time>2011-11-11T09:41:39Z</time>
      </trkpt>
      <trkpt lat="46.15919" lon="3.76801">
        <ele>533.3131</ele>
        <time>2011-11-11T09:41:48Z</time>
      </trkpt>
      <trkpt lat="46.15937" lon="3.76795">
        <ele>552.5781</ele>
        <time>2011-11-11T10:00:11Z</time>
      </trkpt>
      <trkpt lat="46.15953" lon="3.76807">
        <ele>553.9244</ele>
        <time>2011-11-11T10:00:34Z</time>
      </trkpt>
      <trkpt lat="46.15942" lon="3.76829">
        <ele>553.99243</ele>
        <time>2011-11-11T10:00:42Z</time>
      </trkpt>
      <trkpt lat="46.15925" lon="3.76837">
        <ele>554.8658</ele>
        <time>2011-11-11T10:00:50Z</time>
      </trkpt>
      <trkpt lat="46.15907" lon="3.76835">
        <ele>554.9866</ele>
        <time>2011-11-11T10:00:58Z</time>
      </trkpt>
      <trkpt lat="46.15889" lon="3.76833">
        <ele>555.89856</ele>
        <time>2011-11-11T10:01:06Z</time>
      </trkpt>
      <trkpt lat="46.1587" lon="3.76827">
        <ele>557.3548</ele>
        <time>2011-11-11T10:01:15Z</time>
      </trkpt>
      <trkpt lat="46.15851" lon="3.76829">
        <ele>558.6473</ele>
        <time>2011-11-11T10:01:25Z</time>
      </trkpt>
      <trkpt lat="46.15832" lon="3.76831">
        <ele>559.411</ele>
        <time>2011-11-11T10:01:34Z</time>
      </trkpt>
      <trkpt lat="46.15815" lon="3.7684">
        <ele>560.39325</ele>
        <time>2011-11-11T10:01:43Z</time>
      </trkpt>
      <trkpt lat="46.15796" lon="3.76846">
        <ele>561.20447</ele>
        <time>2011-11-11T10:01:52Z</time>
      </trkpt>
      <trkpt lat="46.15777" lon="3.7685">
        <ele>562.19025</ele>
        <time>2011-11-11T10:02:01Z</time>
      </trkpt>
      <trkpt lat="46.15759" lon="3.76855">
        <ele>562.8919</ele>
        <time>2011-11-11T10:02:08Z</time>
      </trkpt>
      <trkpt lat="46.15741" lon="3.76861">
        <ele>563.8521</ele>
        <time>2011-11-11T10:02:15Z</time>
      </trkpt>
      <trkpt lat="46.15722" lon="3.7687">
        <ele>564.8023</ele>
        <time>2011-11-11T10:02:22Z</time>
      </trkpt>
      <trkpt lat="46.15705" lon="3.7688">
        <ele>565.6572</ele>
        <time>2011-11-11T10:02:29Z</time>
      </trkpt>
      <trkpt lat="46.15688" lon="3.76891">
        <ele>565.9542</ele>
        <time>2011-11-11T10:02:36Z</time>
      </trkpt>
      <trkpt lat="46.1567" lon="3.76893">
        <ele>567.7627</ele>
        <time>2011-11-11T10:04:01Z</time>
      </trkpt>
      <trkpt lat="46.15654" lon="3.76908">
        <ele>569.31476</ele>
        <time>2011-11-11T10:04:06Z</time>
      </trkpt>
      <trkpt lat="46.15636" lon="3.76925">
        <ele>571.1782</ele>
        <time>2011-11-11T10:04:11Z</time>
      </trkpt>
      <trkpt lat="46.1562" lon="3.76943">
        <ele>571.85376</ele>
        <time>2011-11-11T10:04:17Z</time>
      </trkpt>
      <trkpt lat="46.15605" lon="3.7696">
        <ele>571.98047</ele>
        <time>2011-11-11T10:04:24Z</time>
      </trkpt>
      <trkpt lat="46.15595" lon="3.76983">
        <ele>572.92346</ele>
        <time>2011-11-11T10:04:33Z</time>
      </trkpt>
      <trkpt lat="46.15584" lon="3.77007">
        <ele>572.9923</ele>
        <time>2011-11-11T10:04:41Z</time>
      </trkpt>
      <trkpt lat="46.15573" lon="3.77031">
        <ele>572.42084</ele>
        <time>2011-11-11T10:04:48Z</time>
      </trkpt>
      <trkpt lat="46.15558" lon="3.7705">
        <ele>572.60974</ele>
        <time>2011-11-11T10:04:57Z</time>
      </trkpt>
      <trkpt lat="46.15539" lon="3.77078">
        <ele>573.2376</ele>
        <time>2011-11-11T10:05:09Z</time>
      </trkpt>
      <trkpt lat="46.1552" lon="3.77091">
        <ele>574.2071</ele>
        <time>2011-11-11T10:05:19Z</time>
      </trkpt>
      <trkpt lat="46.15501" lon="3.77099">
        <ele>576.946</ele>
        <time>2011-11-11T10:05:27Z</time>
      </trkpt>
      <trkpt lat="46.15482" lon="3.7711">
        <ele>581.0284</ele>
        <time>2011-11-11T10:05:37Z</time>
      </trkpt>
      <trkpt lat="46.15462" lon="3.77121">
        <ele>584.174</ele>
        <time>2011-11-11T10:05:46Z</time>
      </trkpt>
      <trkpt lat="46.15444" lon="3.77136">
        <ele>588.0412</ele>
        <time>2011-11-11T10:05:56Z</time>
      </trkpt>
      <trkpt lat="46.15425" lon="3.77153">
        <ele>592.28375</ele>
        <time>2011-11-11T10:06:06Z</time>
      </trkpt>
      <trkpt lat="46.15407" lon="3.77166">
        <ele>596.7535</ele>
        <time>2011-11-11T10:06:14Z</time>
      </trkpt>
      <trkpt lat="46.1539" lon="3.77187">
        <ele>600.8005</ele>
        <time>2011-11-11T10:06:22Z</time>
      </trkpt>
      <trkpt lat="46.15374" lon="3.77207">
        <ele>603.7925</ele>
        <time>2011-11-11T10:06:30Z</time>
      </trkpt>
      <trkpt lat="46.15363" lon="3.77232">
        <ele>604.71344</ele>
        <time>2011-11-11T10:06:35Z</time>
      </trkpt>
      <trkpt lat="46.15342" lon="3.7726">
        <ele>605.8005</ele>
        <time>2011-11-11T10:06:44Z</time>
      </trkpt>
      <trkpt lat="46.1533" lon="3.77284">
        <ele>607.24274</ele>
        <time>2011-11-11T10:06:52Z</time>
      </trkpt>
      <trkpt lat="46.15315" lon="3.77307">
        <ele>610.8495</ele>
        <time>2011-11-11T10:07:00Z</time>
      </trkpt>
      <trkpt lat="46.15302" lon="3.77327">
        <ele>615.5728</ele>
        <time>2011-11-11T10:07:08Z</time>
      </trkpt>
      <trkpt lat="46.15289" lon="3.77346">
        <ele>620.2292</ele>
        <time>2011-11-11T10:07:16Z</time>
      </trkpt>
      <trkpt lat="46.15282" lon="3.77372">
        <ele>622.2011</ele>
        <time>2011-11-11T10:07:23Z</time>
      </trkpt>
      <trkpt lat="46.1527" lon="3.77391">
        <ele>623.82153</ele>
        <time>2011-11-11T10:07:33Z</time>
      </trkpt>
      <trkpt lat="46.1525" lon="3.77395">
        <ele>624.96265</ele>
        <time>2011-11-11T10:07:45Z</time>
      </trkpt>
      <trkpt lat="46.15231" lon="3.77398">
        <ele>624.99335</ele>
        <time>2011-11-11T10:07:51Z</time>
      </trkpt>
      <trkpt lat="46.15211" lon="3.774">
        <ele>624.3148</ele>
        <time>2011-11-11T10:07:56Z</time>
      </trkpt>
      <trkpt lat="46.15191" lon="3.77404">
        <ele>623.35846</ele>
        <time>2011-11-11T10:08:03Z</time>
      </trkpt>
      <trkpt lat="46.15172" lon="3.77413">
        <ele>622.21387</ele>
        <time>2011-11-11T10:08:11Z</time>
      </trkpt>
      <trkpt lat="46.15155" lon="3.77423">
        <ele>622.01605</ele>
        <time>2011-11-11T10:08:20Z</time>
      </trkpt>
      <trkpt lat="46.15141" lon="3.77443">
        <ele>622.0009</ele>
        <time>2011-11-11T10:08:30Z</time>
      </trkpt>
      <trkpt lat="46.15128" lon="3.77464">
        <ele>624.02985</ele>
        <time>2011-11-11T10:08:41Z</time>
      </trkpt>
      <trkpt lat="46.1512" lon="3.77488">
        <ele>626.7925</ele>
        <time>2011-11-11T10:08:52Z</time>
      </trkpt>
      <trkpt lat="46.15109" lon="3.77509">
        <ele>632.1686</ele>
        <time>2011-11-11T10:09:08Z</time>
      </trkpt>
      <trkpt lat="46.15105" lon="3.77535">
        <ele>634.6845</ele>
        <time>2011-11-11T10:09:17Z</time>
      </trkpt>
      <trkpt lat="46.15098" lon="3.77561">
        <ele>635.8087</ele>
        <time>2011-11-11T10:09:28Z</time>
      </trkpt>
      <trkpt lat="46.15085" lon="3.7758">
        <ele>638.2233</ele>
        <time>2011-11-11T10:09:41Z</time>
      </trkpt>
      <trkpt lat="46.15071" lon="3.77597">
        <ele>642.258</ele>
        <time>2011-11-11T10:09:56Z</time>
      </trkpt>
      <trkpt lat="46.15068" lon="3.77623">
        <ele>646.3469</ele>
        <time>2011-11-11T10:10:09Z</time>
      </trkpt>
      <trkpt lat="46.15064" lon="3.77651">
        <ele>647.89734</ele>
        <time>2011-11-11T10:10:20Z</time>
      </trkpt>
      <trkpt lat="46.15057" lon="3.77676">
        <ele>648.8966</ele>
        <time>2011-11-11T10:10:32Z</time>
      </trkpt>
      <trkpt lat="46.15046" lon="3.77698">
        <ele>648.9942</ele>
        <time>2011-11-11T10:10:42Z</time>
      </trkpt>
      <trkpt lat="46.15029" lon="3.77715">
        <ele>650.01227</ele>
        <time>2011-11-11T10:10:51Z</time>
      </trkpt>
      <trkpt lat="46.15013" lon="3.7773">
        <ele>651.63086</ele>
        <time>2011-11-11T10:10:58Z</time>
      </trkpt>
      <trkpt lat="46.14997" lon="3.77752">
        <ele>653.3954</ele>
        <time>2011-11-11T10:11:05Z</time>
      </trkpt>
      <trkpt lat="46.14984" lon="3.77773">
        <ele>654.576</ele>
        <time>2011-11-11T10:11:11Z</time>
      </trkpt>
      <trkpt lat="46.14973" lon="3.77797">
        <ele>656.2616</ele>
        <time>2011-11-11T10:11:19Z</time>
      </trkpt>
      <trkpt lat="46.14966" lon="3.77825">
        <ele>657.6888</ele>
        <time>2011-11-11T10:11:27Z</time>
      </trkpt>
      <trkpt lat="46.14958" lon="3.77848">
        <ele>658.7073</ele>
        <time>2011-11-11T10:11:33Z</time>
      </trkpt>
      <trkpt lat="46.14949" lon="3.77876">
        <ele>661.18866</ele>
        <time>2011-11-11T10:11:37Z</time>
      </trkpt>
      <trkpt lat="46.1494" lon="3.779">
        <ele>664.8097</ele>
        <time>2011-11-11T10:11:41Z</time>
      </trkpt>
      <trkpt lat="46.14932" lon="3.77923">
        <ele>666.9306</ele>
        <time>2011-11-11T10:11:53Z</time>
      </trkpt>
      <trkpt lat="46.14911" lon="3.7793">
        <ele>668.58057</ele>
        <time>2011-11-11T10:12:04Z</time>
      </trkpt>
      <trkpt lat="46.14889" lon="3.77932">
        <ele>672.3028</ele>
        <time>2011-11-11T10:12:09Z</time>
      </trkpt>
      <trkpt lat="46.14868" lon="3.77936">
        <ele>677.463</ele>
        <time>2011-11-11T10:12:13Z</time>
      </trkpt>
      <trkpt lat="46.14847" lon="3.7794">
        <ele>681.8301</ele>
        <time>2011-11-11T10:12:17Z</time>
      </trkpt>
      <trkpt lat="46.14828" lon="3.77945">
        <ele>685.11584</ele>
        <time>2011-11-11T10:12:20Z</time>
      </trkpt>
      <trkpt lat="46.14803" lon="3.77949">
        <ele>687.3614</ele>
        <time>2011-11-11T10:12:23Z</time>
      </trkpt>
      <trkpt lat="46.14785" lon="3.77955">
        <ele>688.07825</ele>
        <time>2011-11-11T10:12:25Z</time>
      </trkpt>
      <trkpt lat="46.14766" lon="3.7797">
        <ele>688.36115</ele>
        <time>2011-11-11T10:12:28Z</time>
      </trkpt>
      <trkpt lat="46.14759" lon="3.77996">
        <ele>687.48615</ele>
        <time>2011-11-11T10:12:34Z</time>
      </trkpt>
      <trkpt lat="46.14753" lon="3.78024">
        <ele>683.69147</ele>
        <time>2011-11-11T10:12:42Z</time>
      </trkpt>
      <trkpt lat="46.14747" lon="3.7805">
        <ele>679.7702</ele>
        <time>2011-11-11T10:12:52Z</time>
      </trkpt>
      <trkpt lat="46.14743" lon="3.78076">
        <ele>677.337</ele>
        <time>2011-11-11T10:13:02Z</time>
      </trkpt>
      <trkpt lat="46.14735" lon="3.78099">
        <ele>676.06433</ele>
        <time>2011-11-11T10:13:15Z</time>
      </trkpt>
      <trkpt lat="46.14731" lon="3.78125">
        <ele>675.75275</ele>
        <time>2011-11-11T10:13:26Z</time>
      </trkpt>
      <trkpt lat="46.14727" lon="3.78151">
        <ele>676.2071</ele>
        <time>2011-11-11T10:13:40Z</time>
      </trkpt>
      <trkpt lat="46.1472" lon="3.78183">
        <ele>678.41895</ele>
        <time>2011-11-11T10:13:57Z</time>
      </trkpt>
      <trkpt lat="46.14715" lon="3.78209">
        <ele>681.6467</ele>
        <time>2011-11-11T10:14:13Z</time>
      </trkpt>
      <trkpt lat="46.14711" lon="3.78234">
        <ele>683.1714</ele>
        <time>2011-11-11T10:14:29Z</time>
      </trkpt>
      <trkpt lat="46.14712" lon="3.78273">
        <ele>686.4483</ele>
        <time>2011-11-11T10:14:50Z</time>
      </trkpt>
      <trkpt lat="46.14707" lon="3.78299">
        <ele>691.2592</ele>
        <time>2011-11-11T10:15:06Z</time>
      </trkpt>
      <trkpt lat="46.14706" lon="3.78333">
        <ele>694.17694</ele>
        <time>2011-11-11T10:15:19Z</time>
      </trkpt>
      <trkpt lat="46.14707" lon="3.78361">
        <ele>695.8852</ele>
        <time>2011-11-11T10:15:33Z</time>
      </trkpt>
      <trkpt lat="46.14714" lon="3.78387">
        <ele>695.74725</ele>
        <time>2011-11-11T10:15:46Z</time>
      </trkpt>
      <trkpt lat="46.14717" lon="3.78415">
        <ele>697.3572</ele>
        <time>2011-11-11T10:16:00Z</time>
      </trkpt>
      <trkpt lat="46.14714" lon="3.7844">
        <ele>698.7362</ele>
        <time>2011-11-11T10:16:07Z</time>
      </trkpt>
      <trkpt lat="46.14713" lon="3.7847">
        <ele>699.8467</ele>
        <time>2011-11-11T10:16:16Z</time>
      </trkpt>
      <trkpt lat="46.14711" lon="3.78496">
        <ele>700.88837</ele>
        <time>2011-11-11T10:16:25Z</time>
      </trkpt>
      <trkpt lat="46.14705" lon="3.78522">
        <ele>702.06085</ele>
        <time>2011-11-11T10:16:33Z</time>
      </trkpt>
      <trkpt lat="46.14704" lon="3.7855">
        <ele>703.5896</ele>
        <time>2011-11-11T10:16:41Z</time>
      </trkpt>
      <trkpt lat="46.14701" lon="3.78578">
        <ele>705.0172</ele>
        <time>2011-11-11T10:16:48Z</time>
      </trkpt>
      <trkpt lat="46.14693" lon="3.78606">
        <ele>706.30634</ele>
        <time>2011-11-11T10:16:55Z</time>
      </trkpt>
      <trkpt lat="46.14685" lon="3.78631">
        <ele>707.48553</ele>
        <time>2011-11-11T10:17:02Z</time>
      </trkpt>
      <trkpt lat="46.14677" lon="3.78659">
        <ele>708.386</ele>
        <time>2011-11-11T10:17:10Z</time>
      </trkpt>
      <trkpt lat="46.14673" lon="3.78685">
        <ele>710.78217</ele>
        <time>2011-11-11T10:17:25Z</time>
      </trkpt>
      <trkpt lat="46.1467" lon="3.78711">
        <ele>715.67444</ele>
        <time>2011-11-11T10:20:08Z</time>
      </trkpt>
      <trkpt lat="46.14664" lon="3.78736">
        <ele>717.0189</ele>
        <time>2011-11-11T10:20:11Z</time>
      </trkpt>
      <trkpt lat="46.1466" lon="3.78764">
        <ele>718.16425</ele>
        <time>2011-11-11T10:20:14Z</time>
      </trkpt>
      <trkpt lat="46.14655" lon="3.7879">
        <ele>719.31366</ele>
        <time>2011-11-11T10:20:18Z</time>
      </trkpt>
      <trkpt lat="46.14647" lon="3.78814">
        <ele>719.9485</ele>
        <time>2011-11-11T10:20:27Z</time>
      </trkpt>
      <trkpt lat="46.1464" lon="3.78839">
        <ele>719.9931</ele>
        <time>2011-11-11T10:20:34Z</time>
      </trkpt>
      <trkpt lat="46.14629" lon="3.78865">
        <ele>719.9988</ele>
        <time>2011-11-11T10:20:40Z</time>
      </trkpt>
      <trkpt lat="46.14616" lon="3.78887">
        <ele>719.9997</ele>
        <time>2011-11-11T10:20:45Z</time>
      </trkpt>
      <trkpt lat="46.14604" lon="3.7891">
        <ele>719.99994</ele>
        <time>2011-11-11T10:20:51Z</time>
      </trkpt>
      <trkpt lat="46.14594" lon="3.78934">
        <ele>720</ele>
        <time>2011-11-11T10:20:58Z</time>
      </trkpt>
      <trkpt lat="46.14581" lon="3.78958">
        <ele>720</ele>
        <time>2011-11-11T10:21:04Z</time>
      </trkpt>
      <trkpt lat="46.14567" lon="3.78977">
        <ele>720</ele>
        <time>2011-11-11T10:21:08Z</time>
      </trkpt>
      <trkpt lat="46.14549" lon="3.78994">
        <ele>720.4375</ele>
        <time>2011-11-11T10:21:12Z</time>
      </trkpt>
      <trkpt lat="46.1453" lon="3.79">
        <ele>720.7627</ele>
        <time>2011-11-11T10:21:15Z</time>
      </trkpt>
      <trkpt lat="46.14511" lon="3.79009">
        <ele>720.8999</ele>
        <time>2011-11-11T10:21:18Z</time>
      </trkpt>
      <trkpt lat="46.14496" lon="3.79026">
        <ele>717.4265</ele>
        <time>2011-11-11T10:21:21Z</time>
      </trkpt>
      <trkpt lat="46.14486" lon="3.79054">
        <ele>715.55493</ele>
        <time>2011-11-11T10:21:25Z</time>
      </trkpt>
      <trkpt lat="46.14479" lon="3.7908">
        <ele>716.5467</ele>
        <time>2011-11-11T10:21:29Z</time>
      </trkpt>
      <trkpt lat="46.14468" lon="3.79103">
        <ele>717.54016</ele>
        <time>2011-11-11T10:21:33Z</time>
      </trkpt>
      <trkpt lat="46.14463" lon="3.79129">
        <ele>718.7881</ele>
        <time>2011-11-11T10:21:37Z</time>
      </trkpt>
      <trkpt lat="46.14469" lon="3.79155">
        <ele>719.6165</ele>
        <time>2011-11-11T10:21:41Z</time>
      </trkpt>
      <trkpt lat="46.14477" lon="3.79179">
        <ele>719.44116</ele>
        <time>2011-11-11T10:21:45Z</time>
      </trkpt>
      <trkpt lat="46.14487" lon="3.79204">
        <ele>719.0785</ele>
        <time>2011-11-11T10:21:51Z</time>
      </trkpt>
      <trkpt lat="46.14494" lon="3.7923">
        <ele>720.14594</ele>
        <time>2011-11-11T10:21:55Z</time>
      </trkpt>
      <trkpt lat="46.14499" lon="3.79258">
        <ele>722.1381</ele>
        <time>2011-11-11T10:22:00Z</time>
      </trkpt>
      <trkpt lat="46.14507" lon="3.79282">
        <ele>722.8466</ele>
        <time>2011-11-11T10:22:06Z</time>
      </trkpt>
      <trkpt lat="46.14514" lon="3.79305">
        <ele>723.75116</ele>
        <time>2011-11-11T10:22:15Z</time>
      </trkpt>
      <trkpt lat="46.14524" lon="3.79329">
        <ele>723.9895</ele>
        <time>2011-11-11T10:22:26Z</time>
      </trkpt>
      <trkpt lat="46.14531" lon="3.79352">
        <ele>723.9992</ele>
        <time>2011-11-11T10:22:35Z</time>
      </trkpt>
      <trkpt lat="46.14542" lon="3.79376">
        <ele>724.5781</ele>
        <time>2011-11-11T10:22:47Z</time>
      </trkpt>
      <trkpt lat="46.14553" lon="3.79397">
        <ele>725.8164</ele>
        <time>2011-11-11T10:23:02Z</time>
      </trkpt>
      <trkpt lat="46.14563" lon="3.79421">
        <ele>727.80237</ele>
        <time>2011-11-11T10:23:18Z</time>
      </trkpt>
      <trkpt lat="46.1457" lon="3.79449">
        <ele>730.95056</ele>
        <time>2011-11-11T10:23:32Z</time>
      </trkpt>
      <trkpt lat="46.14579" lon="3.79472">
        <ele>732.7935</ele>
        <time>2011-11-11T10:23:39Z</time>
      </trkpt>
      <trkpt lat="46.14586" lon="3.79503">
        <ele>735.7322</ele>
        <time>2011-11-11T10:23:49Z</time>
      </trkpt>
      <trkpt lat="46.14595" lon="3.79528">
        <ele>737.88574</ele>
        <time>2011-11-11T10:23:57Z</time>
      </trkpt>
      <trkpt lat="46.14594" lon="3.79556">
        <ele>739.8038</ele>
        <time>2011-11-11T10:24:07Z</time>
      </trkpt>
      <trkpt lat="46.14595" lon="3.79586">
        <ele>739.1583</ele>
        <time>2011-11-11T10:24:15Z</time>
      </trkpt>
      <trkpt lat="46.14593" lon="3.79616">
        <ele>738.11597</ele>
        <time>2011-11-11T10:24:23Z</time>
      </trkpt>
      <trkpt lat="46.1459" lon="3.79642">
        <ele>738.0155</ele>
        <time>2011-11-11T10:24:30Z</time>
      </trkpt>
      <trkpt lat="46.14588" lon="3.7967">
        <ele>738.7642</ele>
        <time>2011-11-11T10:24:38Z</time>
      </trkpt>
      <trkpt lat="46.14589" lon="3.79702">
        <ele>739.7312</ele>
        <time>2011-11-11T10:24:45Z</time>
      </trkpt>
      <trkpt lat="46.14585" lon="3.7973">
        <ele>740.6198</ele>
        <time>2011-11-11T10:24:50Z</time>
      </trkpt>
      <trkpt lat="46.14582" lon="3.79756">
        <ele>741.5934</ele>
        <time>2011-11-11T10:24:55Z</time>
      </trkpt>
      <trkpt lat="46.1458" lon="3.79784">
        <ele>744.1097</ele>
        <time>2011-11-11T10:24:58Z</time>
      </trkpt>
      <trkpt lat="46.14576" lon="3.79814">
        <ele>746.79626</ele>
        <time>2011-11-11T10:25:01Z</time>
      </trkpt>
      <trkpt lat="46.14572" lon="3.79846">
        <ele>748.0703</ele>
        <time>2011-11-11T10:25:04Z</time>
      </trkpt>
      <trkpt lat="46.14575" lon="3.79878">
        <ele>749.0453</ele>
        <time>2011-11-11T10:25:07Z</time>
      </trkpt>
      <trkpt lat="46.14582" lon="3.7991">
        <ele>749.5972</ele>
        <time>2011-11-11T10:25:10Z</time>
      </trkpt>
      <trkpt lat="46.14587" lon="3.79938">
        <ele>750.4082</ele>
        <time>2011-11-11T10:25:13Z</time>
      </trkpt>
      <trkpt lat="46.14594" lon="3.79972">
        <ele>750.75037</ele>
        <time>2011-11-11T10:25:16Z</time>
      </trkpt>
      <trkpt lat="46.14594" lon="3.80007">
        <ele>749.879</ele>
        <time>2011-11-11T10:25:19Z</time>
      </trkpt>
      <trkpt lat="46.14595" lon="3.80043">
        <ele>748.68335</ele>
        <time>2011-11-11T10:25:22Z</time>
      </trkpt>
      <trkpt lat="46.14597" lon="3.80078">
        <ele>747.8195</ele>
        <time>2011-11-11T10:25:25Z</time>
      </trkpt>
      <trkpt lat="46.146" lon="3.80112">
        <ele>747.9239</ele>
        <time>2011-11-11T10:25:28Z</time>
      </trkpt>
      <trkpt lat="46.14605" lon="3.80144">
        <ele>747.9679</ele>
        <time>2011-11-11T10:25:31Z</time>
      </trkpt>
      <trkpt lat="46.14612" lon="3.80172">
        <ele>747.98645</ele>
        <time>2011-11-11T10:25:34Z</time>
      </trkpt>
      <trkpt lat="46.14617" lon="3.80204">
        <ele>747.9957</ele>
        <time>2011-11-11T10:25:38Z</time>
      </trkpt>
      <trkpt lat="46.14623" lon="3.80232">
        <ele>747.99866</ele>
        <time>2011-11-11T10:25:42Z</time>
      </trkpt>
      <trkpt lat="46.14626" lon="3.80262">
        <ele>748.4372</ele>
        <time>2011-11-11T10:25:47Z</time>
      </trkpt>
      <trkpt lat="46.1463" lon="3.80288">
        <ele>747.5563</ele>
        <time>2011-11-11T10:25:51Z</time>
      </trkpt>
      <trkpt lat="46.14633" lon="3.80314">
        <ele>745.12134</ele>
        <time>2011-11-11T10:25:55Z</time>
      </trkpt>
      <trkpt lat="46.14637" lon="3.80339">
        <ele>743.6712</ele>
        <time>2011-11-11T10:25:59Z</time>
      </trkpt>
      <trkpt lat="46.14642" lon="3.80369">
        <ele>743.7905</ele>
        <time>2011-11-11T10:26:03Z</time>
      </trkpt>
      <trkpt lat="46.14646" lon="3.80399">
        <ele>744.6173</ele>
        <time>2011-11-11T10:26:07Z</time>
      </trkpt>
      <trkpt lat="46.14652" lon="3.80427">
        <ele>745.3164</ele>
        <time>2011-11-11T10:26:11Z</time>
      </trkpt>
      <trkpt lat="46.14657" lon="3.80455">
        <ele>746.3618</ele>
        <time>2011-11-11T10:26:15Z</time>
      </trkpt>
      <trkpt lat="46.14658" lon="3.80485">
        <ele>746.7981</ele>
        <time>2011-11-11T10:26:19Z</time>
      </trkpt>
      <trkpt lat="46.14652" lon="3.80511">
        <ele>746.9521</ele>
        <time>2011-11-11T10:26:24Z</time>
      </trkpt>
      <trkpt lat="46.14659" lon="3.80537">
        <ele>745.92596</ele>
        <time>2011-11-11T10:26:35Z</time>
      </trkpt>
      <trkpt lat="46.14662" lon="3.80569">
        <ele>744.27734</ele>
        <time>2011-11-11T10:26:39Z</time>
      </trkpt>
      <trkpt lat="46.14666" lon="3.80603">
        <ele>743.7889</ele>
        <time>2011-11-11T10:26:42Z</time>
      </trkpt>
      <trkpt lat="46.14674" lon="3.8064">
        <ele>743.8812</ele>
        <time>2011-11-11T10:26:45Z</time>
      </trkpt>
      <trkpt lat="46.14682" lon="3.80666">
        <ele>743.6832</ele>
        <time>2011-11-11T10:26:47Z</time>
      </trkpt>
      <trkpt lat="46.14688" lon="3.80691">
        <ele>742.0226</ele>
        <time>2011-11-11T10:26:50Z</time>
      </trkpt>
      <trkpt lat="46.14667" lon="3.80698">
        <ele>738.69073</ele>
        <time>2011-11-11T10:26:54Z</time>
      </trkpt>
      <trkpt lat="46.14641" lon="3.80696">
        <ele>736.1195</ele>
        <time>2011-11-11T10:26:57Z</time>
      </trkpt>
      <trkpt lat="46.14622" lon="3.80696">
        <ele>734.94226</ele>
        <time>2011-11-11T10:26:59Z</time>
      </trkpt>
      <trkpt lat="46.14602" lon="3.80698">
        <ele>733.655</ele>
        <time>2011-11-11T10:27:01Z</time>
      </trkpt>
      <trkpt lat="46.14586" lon="3.80711">
        <ele>732.24347</ele>
        <time>2011-11-11T10:27:03Z</time>
      </trkpt>
      <trkpt lat="46.14571" lon="3.80728">
        <ele>731.01196</ele>
        <time>2011-11-11T10:27:05Z</time>
      </trkpt>
      <trkpt lat="46.14552" lon="3.80756">
        <ele>729.5988</ele>
        <time>2011-11-11T10:27:08Z</time>
      </trkpt>
      <trkpt lat="46.14546" lon="3.80781">
        <ele>728.4618</ele>
        <time>2011-11-11T10:27:10Z</time>
      </trkpt>
      <trkpt lat="46.14543" lon="3.80807">
        <ele>727.57227</ele>
        <time>2011-11-11T10:27:12Z</time>
      </trkpt>
      <trkpt lat="46.14544" lon="3.80837">
        <ele>726.8844</ele>
        <time>2011-11-11T10:27:14Z</time>
      </trkpt>
      <trkpt lat="46.14545" lon="3.80869">
        <ele>726.2475</ele>
        <time>2011-11-11T10:27:16Z</time>
      </trkpt>
      <trkpt lat="46.1455" lon="3.80904">
        <ele>724.7642</ele>
        <time>2011-11-11T10:27:18Z</time>
      </trkpt>
      <trkpt lat="46.14555" lon="3.80936">
        <ele>722.4299</ele>
        <time>2011-11-11T10:27:20Z</time>
      </trkpt>
      <trkpt lat="46.14559" lon="3.80968">
        <ele>719.8043</ele>
        <time>2011-11-11T10:27:22Z</time>
      </trkpt>
      <trkpt lat="46.14566" lon="3.81">
        <ele>717.4524</ele>
        <time>2011-11-11T10:27:24Z</time>
      </trkpt>
      <trkpt lat="46.14572" lon="3.81035">
        <ele>715.25446</ele>
        <time>2011-11-11T10:27:26Z</time>
      </trkpt>
      <trkpt lat="46.1458" lon="3.81069">
        <ele>713.5806</ele>
        <time>2011-11-11T10:27:28Z</time>
      </trkpt>
      <trkpt lat="46.14586" lon="3.81103">
        <ele>712.4516</ele>
        <time>2011-11-11T10:27:30Z</time>
      </trkpt>
      <trkpt lat="46.14591" lon="3.81138">
        <ele>711.8165</ele>
        <time>2011-11-11T10:27:32Z</time>
      </trkpt>
      <trkpt lat="46.14593" lon="3.8117">
        <ele>710.7718</ele>
        <time>2011-11-11T10:27:34Z</time>
      </trkpt>
      <trkpt lat="46.1459" lon="3.81198">
        <ele>709.06</ele>
        <time>2011-11-11T10:27:37Z</time>
      </trkpt>
      <trkpt lat="46.14585" lon="3.81228">
        <ele>706.83746</ele>
        <time>2011-11-11T10:27:44Z</time>
      </trkpt>
      <trkpt lat="46.14582" lon="3.81253">
        <ele>704.75323</ele>
        <time>2011-11-11T10:27:48Z</time>
      </trkpt>
      <trkpt lat="46.14583" lon="3.8129">
        <ele>705.42975</ele>
        <time>2011-11-11T10:27:52Z</time>
      </trkpt>
      <trkpt lat="46.14582" lon="3.8132">
        <ele>710.85315</ele>
        <time>2011-11-11T10:27:55Z</time>
      </trkpt>
      <trkpt lat="46.14581" lon="3.8135">
        <ele>714.0162</ele>
        <time>2011-11-11T10:27:58Z</time>
      </trkpt>
      <trkpt lat="46.14581" lon="3.81384">
        <ele>712.4912</ele>
        <time>2011-11-11T10:28:01Z</time>
      </trkpt>
      <trkpt lat="46.14583" lon="3.81417">
        <ele>708.7072</ele>
        <time>2011-11-11T10:28:04Z</time>
      </trkpt>
      <trkpt lat="46.14583" lon="3.81449">
        <ele>704.17334</ele>
        <time>2011-11-11T10:28:07Z</time>
      </trkpt>
      <trkpt lat="46.1458" lon="3.81477">
        <ele>696.12</ele>
        <time>2011-11-11T10:28:10Z</time>
      </trkpt>
      <trkpt lat="46.14578" lon="3.81511">
        <ele>684.0419</ele>
        <time>2011-11-11T10:28:14Z</time>
      </trkpt>
      <trkpt lat="46.1457" lon="3.81541">
        <ele>675.4742</ele>
        <time>2011-11-11T10:28:18Z</time>
      </trkpt>
      <trkpt lat="46.14567" lon="3.81573">
        <ele>670.36096</ele>
        <time>2011-11-11T10:28:22Z</time>
      </trkpt>
      <trkpt lat="46.14565" lon="3.81608">
        <ele>666.7978</ele>
        <time>2011-11-11T10:28:26Z</time>
      </trkpt>
      <trkpt lat="46.14567" lon="3.81642">
        <ele>664.38525</ele>
        <time>2011-11-11T10:28:30Z</time>
      </trkpt>
      <trkpt lat="46.14572" lon="3.81668">
        <ele>666.4594</ele>
        <time>2011-11-11T10:28:33Z</time>
      </trkpt>
      <trkpt lat="46.14579" lon="3.81696">
        <ele>672.41254</ele>
        <time>2011-11-11T10:28:36Z</time>
      </trkpt>
      <trkpt lat="46.14584" lon="3.81721">
        <ele>671.9866</ele>
        <time>2011-11-11T10:28:39Z</time>
      </trkpt>
      <trkpt lat="46.14594" lon="3.81749">
        <ele>664.2418</ele>
        <time>2011-11-11T10:28:43Z</time>
      </trkpt>
      <trkpt lat="46.14602" lon="3.81773">
        <ele>656.6941</ele>
        <time>2011-11-11T10:28:48Z</time>
      </trkpt>
      <trkpt lat="46.14612" lon="3.81801">
        <ele>653.0797</ele>
        <time>2011-11-11T10:28:58Z</time>
      </trkpt>
      <trkpt lat="46.14624" lon="3.81829">
        <ele>651.6541</ele>
        <time>2011-11-11T10:29:02Z</time>
      </trkpt>
      <trkpt lat="46.14635" lon="3.81856">
        <ele>649.4023</ele>
        <time>2011-11-11T10:29:06Z</time>
      </trkpt>
      <trkpt lat="46.14646" lon="3.81882">
        <ele>647.32007</ele>
        <time>2011-11-11T10:29:11Z</time>
      </trkpt>
      <trkpt lat="46.14648" lon="3.81908">
        <ele>646.16766</ele>
        <time>2011-11-11T10:29:15Z</time>
      </trkpt>
      <trkpt lat="46.14646" lon="3.81936">
        <ele>642.74</ele>
        <time>2011-11-11T10:29:20Z</time>
      </trkpt>
      <trkpt lat="46.14639" lon="3.81959">
        <ele>641.8036</ele>
        <time>2011-11-11T10:29:26Z</time>
      </trkpt>
      <trkpt lat="46.14634" lon="3.81985">
        <ele>641.97375</ele>
        <time>2011-11-11T10:29:33Z</time>
      </trkpt>
      <trkpt lat="46.14627" lon="3.82011">
        <ele>641.9965</ele>
        <time>2011-11-11T10:29:40Z</time>
      </trkpt>
      <trkpt lat="46.14619" lon="3.82035">
        <ele>641.9995</ele>
        <time>2011-11-11T10:29:47Z</time>
      </trkpt>
      <trkpt lat="46.14612" lon="3.82058">
        <ele>641.4218</ele>
        <time>2011-11-11T10:29:53Z</time>
      </trkpt>
      <trkpt lat="46.14604" lon="3.82086">
        <ele>641.0563</ele>
        <time>2011-11-11T10:30:00Z</time>
      </trkpt>
      <trkpt lat="46.14597" lon="3.82114">
        <ele>641.2575</ele>
        <time>2011-11-11T10:30:07Z</time>
      </trkpt>
      <trkpt lat="46.1459" lon="3.8214">
        <ele>642.479</ele>
        <time>2011-11-11T10:30:14Z</time>
      </trkpt>
      <trkpt lat="46.14588" lon="3.82165">
        <ele>643.92</ele>
        <time>2011-11-11T10:30:20Z</time>
      </trkpt>
      <trkpt lat="46.14585" lon="3.82193">
        <ele>645.2453</ele>
        <time>2011-11-11T10:30:26Z</time>
      </trkpt>
      <trkpt lat="46.14584" lon="3.82221">
        <ele>646.4438</ele>
        <time>2011-11-11T10:30:32Z</time>
      </trkpt>
      <trkpt lat="46.14583" lon="3.82249">
        <ele>647.6637</ele>
        <time>2011-11-11T10:30:38Z</time>
      </trkpt>
      <trkpt lat="46.14581" lon="3.82279">
        <ele>649.1162</ele>
        <time>2011-11-11T10:30:46Z</time>
      </trkpt>
      <trkpt lat="46.14579" lon="3.82305">
        <ele>649.882</ele>
        <time>2011-11-11T10:30:53Z</time>
      </trkpt>
      <trkpt lat="46.14575" lon="3.82331">
        <ele>650.88806</ele>
        <time>2011-11-11T10:31:01Z</time>
      </trkpt>
      <trkpt lat="46.1457" lon="3.82356">
        <ele>651.8887</ele>
        <time>2011-11-11T10:31:09Z</time>
      </trkpt>
      <trkpt lat="46.14561" lon="3.8238">
        <ele>652.6724</ele>
        <time>2011-11-11T10:31:17Z</time>
      </trkpt>
      <trkpt lat="46.14553" lon="3.82404">
        <ele>652.9672</ele>
        <time>2011-11-11T10:31:25Z</time>
      </trkpt>
      <trkpt lat="46.14545" lon="3.82427">
        <ele>652.9956</ele>
        <time>2011-11-11T10:31:32Z</time>
      </trkpt>
      <trkpt lat="46.14537" lon="3.82453">
        <ele>653.8995</ele>
        <time>2011-11-11T10:31:40Z</time>
      </trkpt>
      <trkpt lat="46.1453" lon="3.82479">
        <ele>655.4371</ele>
        <time>2011-11-11T10:31:49Z</time>
      </trkpt>
      <trkpt lat="46.14523" lon="3.82502">
        <ele>657.7771</ele>
        <time>2011-11-11T10:31:57Z</time>
      </trkpt>
      <trkpt lat="46.14517" lon="3.82528">
        <ele>660.1371</ele>
        <time>2011-11-11T10:32:05Z</time>
      </trkpt>
      <trkpt lat="46.14507" lon="3.82552">
        <ele>662.5721</ele>
        <time>2011-11-11T10:32:16Z</time>
      </trkpt>
      <trkpt lat="46.14496" lon="3.82577">
        <ele>664.4352</ele>
        <time>2011-11-11T10:32:24Z</time>
      </trkpt>
      <trkpt lat="46.14486" lon="3.82601">
        <ele>665.6082</ele>
        <time>2011-11-11T10:32:31Z</time>
      </trkpt>
      <trkpt lat="46.14476" lon="3.82625">
        <ele>667.0328</ele>
        <time>2011-11-11T10:32:39Z</time>
      </trkpt>
      <trkpt lat="46.14466" lon="3.82648">
        <ele>668.8368</ele>
        <time>2011-11-11T10:32:47Z</time>
      </trkpt>
      <trkpt lat="46.14455" lon="3.82672">
        <ele>671.82666</ele>
        <time>2011-11-11T10:32:55Z</time>
      </trkpt>
      <trkpt lat="46.14446" lon="3.82695">
        <ele>674.7617</ele>
        <time>2011-11-11T10:33:03Z</time>
      </trkpt>
      <trkpt lat="46.14438" lon="3.82721">
        <ele>677.51373</ele>
        <time>2011-11-11T10:33:13Z</time>
      </trkpt>
      <trkpt lat="46.14433" lon="3.82747">
        <ele>679.6602</ele>
        <time>2011-11-11T10:33:23Z</time>
      </trkpt>
      <trkpt lat="46.14435" lon="3.82773">
        <ele>681.444</ele>
        <time>2011-11-11T10:33:31Z</time>
      </trkpt>
      <trkpt lat="46.1444" lon="3.82798">
        <ele>683.3259</ele>
        <time>2011-11-11T10:33:38Z</time>
      </trkpt>
      <trkpt lat="46.1445" lon="3.82822">
        <ele>684.5636</ele>
        <time>2011-11-11T10:33:44Z</time>
      </trkpt>
      <trkpt lat="46.1446" lon="3.82846">
        <ele>686.1819</ele>
        <time>2011-11-11T10:33:50Z</time>
      </trkpt>
      <trkpt lat="46.1447" lon="3.82871">
        <ele>687.5744</ele>
        <time>2011-11-11T10:33:57Z</time>
      </trkpt>
      <trkpt lat="46.14478" lon="3.82897">
        <ele>688.60785</ele>
        <time>2011-11-11T10:34:03Z</time>
      </trkpt>
      <trkpt lat="46.14483" lon="3.82923">
        <ele>689.3444</ele>
        <time>2011-11-11T10:34:08Z</time>
      </trkpt>
      <trkpt lat="46.14487" lon="3.82951">
        <ele>690.0944</ele>
        <time>2011-11-11T10:34:13Z</time>
      </trkpt>
      <trkpt lat="46.14492" lon="3.82977">
        <ele>690.7851</ele>
        <time>2011-11-11T10:34:18Z</time>
      </trkpt>
      <trkpt lat="46.14496" lon="3.83004">
        <ele>691.78375</ele>
        <time>2011-11-11T10:34:24Z</time>
      </trkpt>
      <trkpt lat="46.14499" lon="3.8303">
        <ele>692.9472</ele>
        <time>2011-11-11T10:34:28Z</time>
      </trkpt>
      <trkpt lat="46.14504" lon="3.8306">
        <ele>694.134</ele>
        <time>2011-11-11T10:34:31Z</time>
      </trkpt>
      <trkpt lat="46.14509" lon="3.8309">
        <ele>694.0565</ele>
        <time>2011-11-11T10:34:34Z</time>
      </trkpt>
      <trkpt lat="46.14515" lon="3.8312">
        <ele>693.19574</ele>
        <time>2011-11-11T10:34:37Z</time>
      </trkpt>
      <trkpt lat="46.14522" lon="3.83155">
        <ele>691.67633</ele>
        <time>2011-11-11T10:34:40Z</time>
      </trkpt>
      <trkpt lat="46.1453" lon="3.83191">
        <ele>690.4572</ele>
        <time>2011-11-11T10:34:43Z</time>
      </trkpt>
      <trkpt lat="46.14535" lon="3.83228">
        <ele>689.61475</ele>
        <time>2011-11-11T10:34:46Z</time>
      </trkpt>
      <trkpt lat="46.1454" lon="3.83264">
        <ele>689.25934</ele>
        <time>2011-11-11T10:34:49Z</time>
      </trkpt>
      <trkpt lat="46.14546" lon="3.83298">
        <ele>689.10944</ele>
        <time>2011-11-11T10:34:52Z</time>
      </trkpt>
      <trkpt lat="46.14561" lon="3.83326">
        <ele>689.62427</ele>
        <time>2011-11-11T10:34:55Z</time>
      </trkpt>
      <trkpt lat="46.14583" lon="3.83328">
        <ele>689.8415</ele>
        <time>2011-11-11T10:34:58Z</time>
      </trkpt>
      <trkpt lat="46.14605" lon="3.8332">
        <ele>689.9498</ele>
        <time>2011-11-11T10:35:02Z</time>
      </trkpt>
      <trkpt lat="46.14624" lon="3.83311">
        <ele>689.9788</ele>
        <time>2011-11-11T10:35:05Z</time>
      </trkpt>
      <trkpt lat="46.14643" lon="3.83305">
        <ele>690.5692</ele>
        <time>2011-11-11T10:35:08Z</time>
      </trkpt>
      <trkpt lat="46.14661" lon="3.83296">
        <ele>690.81824</ele>
        <time>2011-11-11T10:35:11Z</time>
      </trkpt>
      <trkpt lat="46.14678" lon="3.83288">
        <ele>690.92334</ele>
        <time>2011-11-11T10:35:14Z</time>
      </trkpt>
      <trkpt lat="46.14698" lon="3.83275">
        <ele>690.97577</ele>
        <time>2011-11-11T10:35:18Z</time>
      </trkpt>
      <trkpt lat="46.14714" lon="3.83262">
        <ele>690.98975</ele>
        <time>2011-11-11T10:35:21Z</time>
      </trkpt>
      <trkpt lat="46.1473" lon="3.83249">
        <ele>690.99567</ele>
        <time>2011-11-11T10:35:24Z</time>
      </trkpt>
      <trkpt lat="46.14749" lon="3.83232">
        <ele>690.99866</ele>
        <time>2011-11-11T10:35:28Z</time>
      </trkpt>
      <trkpt lat="46.14769" lon="3.83219">
        <ele>690.9996</ele>
        <time>2011-11-11T10:35:32Z</time>
      </trkpt>
      <trkpt lat="46.14789" lon="3.83208">
        <ele>690.9999</ele>
        <time>2011-11-11T10:35:36Z</time>
      </trkpt>
      <trkpt lat="46.1481" lon="3.83202">
        <ele>690.99994</ele>
        <time>2011-11-11T10:35:40Z</time>
      </trkpt>
      <trkpt lat="46.14832" lon="3.83193">
        <ele>691</ele>
        <time>2011-11-11T10:35:44Z</time>
      </trkpt>
      <trkpt lat="46.14854" lon="3.83187">
        <ele>691</ele>
        <time>2011-11-11T10:35:48Z</time>
      </trkpt>
      <trkpt lat="46.14873" lon="3.83183">
        <ele>691</ele>
        <time>2011-11-11T10:35:51Z</time>
      </trkpt>
      <trkpt lat="46.14891" lon="3.83183">
        <ele>691</ele>
        <time>2011-11-11T10:35:54Z</time>
      </trkpt>
      <trkpt lat="46.14911" lon="3.83183">
        <ele>690.5625</ele>
        <time>2011-11-11T10:35:57Z</time>
      </trkpt>
      <trkpt lat="46.14931" lon="3.83185">
        <ele>690.2373</ele>
        <time>2011-11-11T10:36:00Z</time>
      </trkpt>
      <trkpt lat="46.14951" lon="3.83185">
        <ele>688.8345</ele>
        <time>2011-11-11T10:36:03Z</time>
      </trkpt>
      <trkpt lat="46.14969" lon="3.83185">
        <ele>686.5083</ele>
        <time>2011-11-11T10:36:06Z</time>
      </trkpt>
      <trkpt lat="46.14992" lon="3.83183">
        <ele>683.67255</ele>
        <time>2011-11-11T10:36:10Z</time>
      </trkpt>
      <trkpt lat="46.1501" lon="3.83183">
        <ele>682.7056</ele>
        <time>2011-11-11T10:36:13Z</time>
      </trkpt>
      <trkpt lat="46.1503" lon="3.83187">
        <ele>682.8014</ele>
        <time>2011-11-11T10:36:17Z</time>
      </trkpt>
      <trkpt lat="46.15047" lon="3.83204">
        <ele>684.3082</ele>
        <time>2011-11-11T10:36:21Z</time>
      </trkpt>
      <trkpt lat="46.1506" lon="3.8323">
        <ele>687.55457</ele>
        <time>2011-11-11T10:36:25Z</time>
      </trkpt>
      <trkpt lat="46.15073" lon="3.83251">
        <ele>690.34735</ele>
        <time>2011-11-11T10:36:29Z</time>
      </trkpt>
      <trkpt lat="46.15087" lon="3.83271">
        <ele>692.1607</ele>
        <time>2011-11-11T10:36:33Z</time>
      </trkpt>
      <trkpt lat="46.15106" lon="3.83273">
        <ele>692.73444</ele>
        <time>2011-11-11T10:36:37Z</time>
      </trkpt>
      <trkpt lat="46.15121" lon="3.83258">
        <ele>692.88794</ele>
        <time>2011-11-11T10:36:40Z</time>
      </trkpt>
      <trkpt lat="46.15142" lon="3.83234">
        <ele>692.37463</ele>
        <time>2011-11-11T10:36:43Z</time>
      </trkpt>
      <trkpt lat="46.15159" lon="3.83223">
        <ele>692.2107</ele>
        <time>2011-11-11T10:36:45Z</time>
      </trkpt>
      <trkpt lat="46.15186" lon="3.83217">
        <ele>692.33887</ele>
        <time>2011-11-11T10:36:48Z</time>
      </trkpt>
      <trkpt lat="46.15213" lon="3.83228">
        <ele>693.2992</ele>
        <time>2011-11-11T10:36:51Z</time>
      </trkpt>
      <trkpt lat="46.15231" lon="3.83238">
        <ele>693.35583</ele>
        <time>2011-11-11T10:36:53Z</time>
      </trkpt>
      <trkpt lat="46.1525" lon="3.83247">
        <ele>692.95013</ele>
        <time>2011-11-11T10:36:55Z</time>
      </trkpt>
      <trkpt lat="46.15271" lon="3.83255">
        <ele>691.847</ele>
        <time>2011-11-11T10:36:57Z</time>
      </trkpt>
      <trkpt lat="46.15289" lon="3.83264">
        <ele>690.78894</ele>
        <time>2011-11-11T10:36:59Z</time>
      </trkpt>
      <trkpt lat="46.15308" lon="3.83275">
        <ele>688.9266</ele>
        <time>2011-11-11T10:37:02Z</time>
      </trkpt>
      <trkpt lat="46.15307" lon="3.83307">
        <ele>686.5236</ele>
        <time>2011-11-11T10:37:07Z</time>
      </trkpt>
      <trkpt lat="46.15299" lon="3.83337">
        <ele>685.23206</ele>
        <time>2011-11-11T10:37:11Z</time>
      </trkpt>
      <trkpt lat="46.15289" lon="3.83367">
        <ele>683.95233</ele>
        <time>2011-11-11T10:37:15Z</time>
      </trkpt>
      <trkpt lat="46.1528" lon="3.83391">
        <ele>682.9643</ele>
        <time>2011-11-11T10:37:18Z</time>
      </trkpt>
      <trkpt lat="46.15267" lon="3.83416">
        <ele>681.2161</ele>
        <time>2011-11-11T10:37:23Z</time>
      </trkpt>
      <trkpt lat="46.15259" lon="3.8344">
        <ele>680.38477</ele>
        <time>2011-11-11T10:37:27Z</time>
      </trkpt>
      <trkpt lat="46.15253" lon="3.83466">
        <ele>679.3342</ele>
        <time>2011-11-11T10:37:30Z</time>
      </trkpt>
      <trkpt lat="46.15247" lon="3.83496">
        <ele>678.06287</ele>
        <time>2011-11-11T10:37:33Z</time>
      </trkpt>
      <trkpt lat="46.15233" lon="3.83528">
        <ele>676.6203</ele>
        <time>2011-11-11T10:37:36Z</time>
      </trkpt>
      <trkpt lat="46.15219" lon="3.83554">
        <ele>674.4179</ele>
        <time>2011-11-11T10:37:39Z</time>
      </trkpt>
      <trkpt lat="46.15205" lon="3.83575">
        <ele>670.92633</ele>
        <time>2011-11-11T10:37:42Z</time>
      </trkpt>
      <trkpt lat="46.15186" lon="3.8359">
        <ele>666.5627</ele>
        <time>2011-11-11T10:37:45Z</time>
      </trkpt>
      <trkpt lat="46.15168" lon="3.83592">
        <ele>663.09674</ele>
        <time>2011-11-11T10:37:48Z</time>
      </trkpt>
      <trkpt lat="46.15147" lon="3.83599">
        <ele>660.86896</ele>
        <time>2011-11-11T10:37:51Z</time>
      </trkpt>
      <trkpt lat="46.15129" lon="3.83603">
        <ele>659.35095</ele>
        <time>2011-11-11T10:37:54Z</time>
      </trkpt>
      <trkpt lat="46.15111" lon="3.8362">
        <ele>657.49384</ele>
        <time>2011-11-11T10:37:58Z</time>
      </trkpt>
      <trkpt lat="46.15099" lon="3.83644">
        <ele>655.917</ele>
        <time>2011-11-11T10:38:03Z</time>
      </trkpt>
      <trkpt lat="46.15088" lon="3.83665">
        <ele>655.6699</ele>
        <time>2011-11-11T10:38:11Z</time>
      </trkpt>
      <trkpt lat="46.15109" lon="3.83674">
        <ele>657.2578</ele>
        <time>2011-11-11T10:38:24Z</time>
      </trkpt>
      <trkpt lat="46.15127" lon="3.8368">
        <ele>659.46436</ele>
        <time>2011-11-11T10:38:28Z</time>
      </trkpt>
      <trkpt lat="46.15148" lon="3.83687">
        <ele>661.4477</ele>
        <time>2011-11-11T10:38:32Z</time>
      </trkpt>
      <trkpt lat="46.15169" lon="3.83704">
        <ele>662.63165</ele>
        <time>2011-11-11T10:38:37Z</time>
      </trkpt>
      <trkpt lat="46.1518" lon="3.83728">
        <ele>663.3209</ele>
        <time>2011-11-11T10:38:41Z</time>
      </trkpt>
      <trkpt lat="46.15197" lon="3.83749">
        <ele>663.0762</ele>
        <time>2011-11-11T10:38:46Z</time>
      </trkpt>
      <trkpt lat="46.15215" lon="3.83758">
        <ele>663.0321</ele>
        <time>2011-11-11T10:38:49Z</time>
      </trkpt>
      <trkpt lat="46.15241" lon="3.83768">
        <ele>662.1854</ele>
        <time>2011-11-11T10:38:52Z</time>
      </trkpt>
      <trkpt lat="46.15266" lon="3.83773">
        <ele>659.4064</ele>
        <time>2011-11-11T10:38:55Z</time>
      </trkpt>
      <trkpt lat="46.15291" lon="3.83773">
        <ele>656.17145</ele>
        <time>2011-11-11T10:38:58Z</time>
      </trkpt>
      <trkpt lat="46.15311" lon="3.8377">
        <ele>653.65045</ele>
        <time>2011-11-11T10:39:01Z</time>
      </trkpt>
      <trkpt lat="46.15331" lon="3.83773">
        <ele>651.0105</ele>
        <time>2011-11-11T10:39:05Z</time>
      </trkpt>
      <trkpt lat="46.15349" lon="3.83775">
        <ele>649.4771</ele>
        <time>2011-11-11T10:39:10Z</time>
      </trkpt>
      <trkpt lat="46.15368" lon="3.83781">
        <ele>649.8105</ele>
        <time>2011-11-11T10:39:18Z</time>
      </trkpt>
      <trkpt lat="46.15389" lon="3.83788">
        <ele>649.955</ele>
        <time>2011-11-11T10:39:23Z</time>
      </trkpt>
      <trkpt lat="46.15409" lon="3.83794">
        <ele>649.981</ele>
        <time>2011-11-11T10:39:26Z</time>
      </trkpt>
      <trkpt lat="46.15429" lon="3.83801">
        <ele>649.992</ele>
        <time>2011-11-11T10:39:29Z</time>
      </trkpt>
      <trkpt lat="46.15455" lon="3.83798">
        <ele>649.99664</ele>
        <time>2011-11-11T10:39:32Z</time>
      </trkpt>
      <trkpt lat="46.15473" lon="3.83794">
        <ele>649.5606</ele>
        <time>2011-11-11T10:39:34Z</time>
      </trkpt>
      <trkpt lat="46.15495" lon="3.83788">
        <ele>649.0653</ele>
        <time>2011-11-11T10:39:36Z</time>
      </trkpt>
      <trkpt lat="46.15514" lon="3.83777">
        <ele>647.91174</ele>
        <time>2011-11-11T10:39:38Z</time>
      </trkpt>
      <trkpt lat="46.15532" lon="3.83764">
        <ele>646.3879</ele>
        <time>2011-11-11T10:39:40Z</time>
      </trkpt>
      <trkpt lat="46.15552" lon="3.83755">
        <ele>644.6557</ele>
        <time>2011-11-11T10:39:42Z</time>
      </trkpt>
      <trkpt lat="46.1557" lon="3.83749">
        <ele>643.05634</ele>
        <time>2011-11-11T10:39:44Z</time>
      </trkpt>
      <trkpt lat="46.15588" lon="3.83747">
        <ele>641.4692</ele>
        <time>2011-11-11T10:39:46Z</time>
      </trkpt>
      <trkpt lat="46.15606" lon="3.83747">
        <ele>639.9514</ele>
        <time>2011-11-11T10:39:48Z</time>
      </trkpt>
      <trkpt lat="46.15632" lon="3.83747">
        <ele>637.9951</ele>
        <time>2011-11-11T10:39:51Z</time>
      </trkpt>
      <trkpt lat="46.15657" lon="3.83743">
        <ele>636.4042</ele>
        <time>2011-11-11T10:39:54Z</time>
      </trkpt>
      <trkpt lat="46.1568" lon="3.83734">
        <ele>635.0143</ele>
        <time>2011-11-11T10:39:57Z</time>
      </trkpt>
      <trkpt lat="46.15704" lon="3.83721">
        <ele>632.9123</ele>
        <time>2011-11-11T10:40:00Z</time>
      </trkpt>
      <trkpt lat="46.1572" lon="3.83708">
        <ele>631.2006</ele>
        <time>2011-11-11T10:40:02Z</time>
      </trkpt>
      <trkpt lat="46.15737" lon="3.83695">
        <ele>629.98785</ele>
        <time>2011-11-11T10:40:04Z</time>
      </trkpt>
      <trkpt lat="46.15758" lon="3.8368">
        <ele>629.0886</ele>
        <time>2011-11-11T10:40:07Z</time>
      </trkpt>
      <trkpt lat="46.15774" lon="3.83704">
        <ele>629.02106</ele>
        <time>2011-11-11T10:40:12Z</time>
      </trkpt>
      <trkpt lat="46.15777" lon="3.8373">
        <ele>629.01184</ele>
        <time>2011-11-11T10:40:14Z</time>
      </trkpt>
      <trkpt lat="46.15781" lon="3.8376">
        <ele>629.00665</ele>
        <time>2011-11-11T10:40:16Z</time>
      </trkpt>
      <trkpt lat="46.15785" lon="3.8379">
        <ele>629.4412</ele>
        <time>2011-11-11T10:40:18Z</time>
      </trkpt>
      <trkpt lat="46.15785" lon="3.83824">
        <ele>628.74866</ele>
        <time>2011-11-11T10:40:21Z</time>
      </trkpt>
      <trkpt lat="46.15768" lon="3.83852">
        <ele>628.67523</ele>
        <time>2011-11-11T10:40:24Z</time>
      </trkpt>
      <trkpt lat="46.15751" lon="3.8388">
        <ele>631.8317</ele>
        <time>2011-11-11T10:40:27Z</time>
      </trkpt>
      <trkpt lat="46.15735" lon="3.8391">
        <ele>635.94464</ele>
        <time>2011-11-11T10:40:30Z</time>
      </trkpt>
      <trkpt lat="46.15718" lon="3.8394">
        <ele>639.30475</ele>
        <time>2011-11-11T10:40:33Z</time>
      </trkpt>
      <trkpt lat="46.157" lon="3.8397">
        <ele>641.5505</ele>
        <time>2011-11-11T10:40:36Z</time>
      </trkpt>
      <trkpt lat="46.15688" lon="3.83991">
        <ele>642.37213</ele>
        <time>2011-11-11T10:40:38Z</time>
      </trkpt>
      <trkpt lat="46.15678" lon="3.84028">
        <ele>641.657</ele>
        <time>2011-11-11T10:40:41Z</time>
      </trkpt>
      <trkpt lat="46.15673" lon="3.84054">
        <ele>640.24457</ele>
        <time>2011-11-11T10:40:43Z</time>
      </trkpt>
      <trkpt lat="46.15668" lon="3.84079">
        <ele>638.1376</ele>
        <time>2011-11-11T10:40:45Z</time>
      </trkpt>
      <trkpt lat="46.15663" lon="3.84105">
        <ele>635.6399</ele>
        <time>2011-11-11T10:40:47Z</time>
      </trkpt>
      <trkpt lat="46.15664" lon="3.84142">
        <ele>631.25433</ele>
        <time>2011-11-11T10:40:50Z</time>
      </trkpt>
      <trkpt lat="46.15672" lon="3.84165">
        <ele>628.95557</ele>
        <time>2011-11-11T10:40:52Z</time>
      </trkpt>
      <trkpt lat="46.15679" lon="3.84189">
        <ele>627.225</ele>
        <time>2011-11-11T10:40:54Z</time>
      </trkpt>
      <trkpt lat="46.15686" lon="3.84223">
        <ele>622.1418</ele>
        <time>2011-11-11T10:40:57Z</time>
      </trkpt>
      <trkpt lat="46.15686" lon="3.84255">
        <ele>615.7317</ele>
        <time>2011-11-11T10:41:00Z</time>
      </trkpt>
      <trkpt lat="46.15685" lon="3.84285">
        <ele>611.1524</ele>
        <time>2011-11-11T10:41:03Z</time>
      </trkpt>
      <trkpt lat="46.15683" lon="3.84311">
        <ele>608.31433</ele>
        <time>2011-11-11T10:41:06Z</time>
      </trkpt>
      <trkpt lat="46.1568" lon="3.84339">
        <ele>606.5388</ele>
        <time>2011-11-11T10:41:09Z</time>
      </trkpt>
      <trkpt lat="46.15678" lon="3.84365">
        <ele>605.64923</ele>
        <time>2011-11-11T10:41:12Z</time>
      </trkpt>
      <trkpt lat="46.15677" lon="3.84393">
        <ele>605.27386</ele>
        <time>2011-11-11T10:41:15Z</time>
      </trkpt>
      <trkpt lat="46.15677" lon="3.84421">
        <ele>604.67804</ele>
        <time>2011-11-11T10:41:18Z</time>
      </trkpt>
      <trkpt lat="46.15678" lon="3.84449">
        <ele>604.2861</ele>
        <time>2011-11-11T10:41:21Z</time>
      </trkpt>
      <trkpt lat="46.15682" lon="3.84479">
        <ele>603.54254</ele>
        <time>2011-11-11T10:41:24Z</time>
      </trkpt>
      <trkpt lat="46.1569" lon="3.84509">
        <ele>603.2289</ele>
        <time>2011-11-11T10:41:27Z</time>
      </trkpt>
      <trkpt lat="46.157" lon="3.84537">
        <ele>603.09656</ele>
        <time>2011-11-11T10:41:30Z</time>
      </trkpt>
      <trkpt lat="46.15712" lon="3.84562">
        <ele>603.0407</ele>
        <time>2011-11-11T10:41:33Z</time>
      </trkpt>
      <trkpt lat="46.15723" lon="3.8459">
        <ele>603.0172</ele>
        <time>2011-11-11T10:41:36Z</time>
      </trkpt>
      <trkpt lat="46.15733" lon="3.8462">
        <ele>602.42914</ele>
        <time>2011-11-11T10:41:39Z</time>
      </trkpt>
      <trkpt lat="46.15741" lon="3.84652">
        <ele>602.6185</ele>
        <time>2011-11-11T10:41:42Z</time>
      </trkpt>
      <trkpt lat="46.15748" lon="3.84689">
        <ele>602.2609</ele>
        <time>2011-11-11T10:41:45Z</time>
      </trkpt>
      <trkpt lat="46.15754" lon="3.84715">
        <ele>602.3968</ele>
        <time>2011-11-11T10:41:47Z</time>
      </trkpt>
      <trkpt lat="46.15763" lon="3.84742">
        <ele>601.9732</ele>
        <time>2011-11-11T10:41:49Z</time>
      </trkpt>
      <trkpt lat="46.15775" lon="3.8477">
        <ele>600.6099</ele>
        <time>2011-11-11T10:41:51Z</time>
      </trkpt>
      <trkpt lat="46.15791" lon="3.848">
        <ele>598.7806</ele>
        <time>2011-11-11T10:41:53Z</time>
      </trkpt>
      <trkpt lat="46.15811" lon="3.84818">
        <ele>596.8766</ele>
        <time>2011-11-11T10:41:55Z</time>
      </trkpt>
      <trkpt lat="46.15829" lon="3.8483">
        <ele>594.9306</ele>
        <time>2011-11-11T10:41:57Z</time>
      </trkpt>
      <trkpt lat="46.15845" lon="3.84843">
        <ele>593.21094</ele>
        <time>2011-11-11T10:41:59Z</time>
      </trkpt>
      <trkpt lat="46.15861" lon="3.84858">
        <ele>591.55615</ele>
        <time>2011-11-11T10:42:01Z</time>
      </trkpt>
      <trkpt lat="46.15881" lon="3.84873">
        <ele>589.06274</ele>
        <time>2011-11-11T10:42:04Z</time>
      </trkpt>
      <trkpt lat="46.15898" lon="3.84884">
        <ele>587.2921</ele>
        <time>2011-11-11T10:42:07Z</time>
      </trkpt>
      <trkpt lat="46.15921" lon="3.84899">
        <ele>585.9713</ele>
        <time>2011-11-11T10:42:11Z</time>
      </trkpt>
      <trkpt lat="46.1594" lon="3.84906">
        <ele>585.4098</ele>
        <time>2011-11-11T10:42:14Z</time>
      </trkpt>
      <trkpt lat="46.15959" lon="3.84929">
        <ele>584.73535</ele>
        <time>2011-11-11T10:42:17Z</time>
      </trkpt>
      <trkpt lat="46.15973" lon="3.84946">
        <ele>584.41364</ele>
        <time>2011-11-11T10:42:19Z</time>
      </trkpt>
      <trkpt lat="46.15987" lon="3.84964">
        <ele>583.79517</ele>
        <time>2011-11-11T10:42:21Z</time>
      </trkpt>
      <trkpt lat="46.16001" lon="3.84981">
        <ele>583.44727</ele>
        <time>2011-11-11T10:42:23Z</time>
      </trkpt>
      <trkpt lat="46.16015" lon="3.84998">
        <ele>582.8141</ele>
        <time>2011-11-11T10:42:25Z</time>
      </trkpt>
      <trkpt lat="46.16029" lon="3.85015">
        <ele>582.45795</ele>
        <time>2011-11-11T10:42:27Z</time>
      </trkpt>
      <trkpt lat="46.1605" lon="3.85041">
        <ele>581.61505</ele>
        <time>2011-11-11T10:42:30Z</time>
      </trkpt>
      <trkpt lat="46.16063" lon="3.8506">
        <ele>581.34595</ele>
        <time>2011-11-11T10:42:32Z</time>
      </trkpt>
      <trkpt lat="46.1608" lon="3.85077">
        <ele>580.9446</ele>
        <time>2011-11-11T10:42:34Z</time>
      </trkpt>
      <trkpt lat="46.16098" lon="3.85092">
        <ele>580.2814</ele>
        <time>2011-11-11T10:42:36Z</time>
      </trkpt>
      <trkpt lat="46.16117" lon="3.85103">
        <ele>579.47076</ele>
        <time>2011-11-11T10:42:38Z</time>
      </trkpt>
      <trkpt lat="46.16138" lon="3.85114">
        <ele>578.3898</ele>
        <time>2011-11-11T10:42:40Z</time>
      </trkpt>
      <trkpt lat="46.16158" lon="3.85122">
        <ele>577.34424</ele>
        <time>2011-11-11T10:42:42Z</time>
      </trkpt>
      <trkpt lat="46.16177" lon="3.85135">
        <ele>576.06866</ele>
        <time>2011-11-11T10:42:44Z</time>
      </trkpt>
      <trkpt lat="46.16195" lon="3.85154">
        <ele>574.47614</ele>
        <time>2011-11-11T10:42:46Z</time>
      </trkpt>
      <trkpt lat="46.16213" lon="3.85176">
        <ele>572.9553</ele>
        <time>2011-11-11T10:42:48Z</time>
      </trkpt>
      <trkpt lat="46.16231" lon="3.85197">
        <ele>571.41235</ele>
        <time>2011-11-11T10:42:50Z</time>
      </trkpt>
      <trkpt lat="46.16247" lon="3.85217">
        <ele>570.10693</ele>
        <time>2011-11-11T10:42:52Z</time>
      </trkpt>
      <trkpt lat="46.16264" lon="3.85238">
        <ele>568.4977</ele>
        <time>2011-11-11T10:42:54Z</time>
      </trkpt>
      <trkpt lat="46.16281" lon="3.85257">
        <ele>566.7174</ele>
        <time>2011-11-11T10:42:56Z</time>
      </trkpt>
      <trkpt lat="46.16298" lon="3.85279">
        <ele>564.84106</ele>
        <time>2011-11-11T10:42:58Z</time>
      </trkpt>
      <trkpt lat="46.16316" lon="3.853">
        <ele>563.3481</ele>
        <time>2011-11-11T10:43:00Z</time>
      </trkpt>
      <trkpt lat="46.16334" lon="3.85318">
        <ele>562.3208</ele>
        <time>2011-11-11T10:43:02Z</time>
      </trkpt>
      <trkpt lat="46.16351" lon="3.85335">
        <ele>561.743</ele>
        <time>2011-11-11T10:43:04Z</time>
      </trkpt>
      <trkpt lat="46.16369" lon="3.8535">
        <ele>561.4179</ele>
        <time>2011-11-11T10:43:06Z</time>
      </trkpt>
      <trkpt lat="46.16387" lon="3.85358">
        <ele>561.23505</ele>
        <time>2011-11-11T10:43:08Z</time>
      </trkpt>
      <trkpt lat="46.16407" lon="3.85365">
        <ele>560.8822</ele>
        <time>2011-11-11T10:43:10Z</time>
      </trkpt>
      <trkpt lat="46.16426" lon="3.85367">
        <ele>560.2463</ele>
        <time>2011-11-11T10:43:12Z</time>
      </trkpt>
      <trkpt lat="46.16448" lon="3.85371">
        <ele>559.701</ele>
        <time>2011-11-11T10:43:14Z</time>
      </trkpt>
      <trkpt lat="46.1647" lon="3.85371">
        <ele>558.95685</ele>
        <time>2011-11-11T10:43:16Z</time>
      </trkpt>
      <trkpt lat="46.16492" lon="3.85371">
        <ele>558.2882</ele>
        <time>2011-11-11T10:43:18Z</time>
      </trkpt>
      <trkpt lat="46.16513" lon="3.85367">
        <ele>557.4746</ele>
        <time>2011-11-11T10:43:20Z</time>
      </trkpt>
      <trkpt lat="46.16533" lon="3.8536">
        <ele>556.82947</ele>
        <time>2011-11-11T10:43:22Z</time>
      </trkpt>
      <trkpt lat="46.16556" lon="3.85352">
        <ele>556.02905</ele>
        <time>2011-11-11T10:43:24Z</time>
      </trkpt>
      <trkpt lat="46.1658" lon="3.85345">
        <ele>554.89136</ele>
        <time>2011-11-11T10:43:26Z</time>
      </trkpt>
      <trkpt lat="46.16602" lon="3.85343">
        <ele>553.6264</ele>
        <time>2011-11-11T10:43:28Z</time>
      </trkpt>
      <trkpt lat="46.1662" lon="3.85345">
        <ele>551.53986</ele>
        <time>2011-11-11T10:43:30Z</time>
      </trkpt>
      <trkpt lat="46.16641" lon="3.85348">
        <ele>546.9621</ele>
        <time>2011-11-11T10:43:33Z</time>
      </trkpt>
      <trkpt lat="46.16665" lon="3.85354">
        <ele>540.49976</ele>
        <time>2011-11-11T10:43:37Z</time>
      </trkpt>
      <trkpt lat="46.16689" lon="3.85367">
        <ele>536.6327</ele>
        <time>2011-11-11T10:43:40Z</time>
      </trkpt>
      <trkpt lat="46.1671" lon="3.85369">
        <ele>533.3213</ele>
        <time>2011-11-11T10:43:44Z</time>
      </trkpt>
      <trkpt lat="46.1673" lon="3.85369">
        <ele>530.7137</ele>
        <time>2011-11-11T10:43:47Z</time>
      </trkpt>
      <trkpt lat="46.16745" lon="3.85384">
        <ele>527.8792</ele>
        <time>2011-11-11T10:43:50Z</time>
      </trkpt>
      <trkpt lat="46.1676" lon="3.85403">
        <ele>525.38654</ele>
        <time>2011-11-11T10:43:53Z</time>
      </trkpt>
      <trkpt lat="46.16775" lon="3.85429">
        <ele>523.4287</ele>
        <time>2011-11-11T10:43:56Z</time>
      </trkpt>
      <trkpt lat="46.16792" lon="3.85442">
        <ele>521.7746</ele>
        <time>2011-11-11T10:43:59Z</time>
      </trkpt>
      <trkpt lat="46.16809" lon="3.85457">
        <ele>520.49866</ele>
        <time>2011-11-11T10:44:02Z</time>
      </trkpt>
      <trkpt lat="46.16825" lon="3.85474">
        <ele>519.19476</ele>
        <time>2011-11-11T10:44:05Z</time>
      </trkpt>
      <trkpt lat="46.16835" lon="3.85502">
        <ele>517.4884</ele>
        <time>2011-11-11T10:44:08Z</time>
      </trkpt>
      <trkpt lat="46.16841" lon="3.8553">
        <ele>515.3623</ele>
        <time>2011-11-11T10:44:11Z</time>
      </trkpt>
      <trkpt lat="46.16856" lon="3.85549">
        <ele>510.9662</ele>
        <time>2011-11-11T10:44:15Z</time>
      </trkpt>
      <trkpt lat="46.16875" lon="3.85549">
        <ele>505.81387</ele>
        <time>2011-11-11T10:44:18Z</time>
      </trkpt>
      <trkpt lat="46.16895" lon="3.8553">
        <ele>500.14032</ele>
        <time>2011-11-11T10:44:22Z</time>
      </trkpt>
      <trkpt lat="46.16913" lon="3.85513">
        <ele>497.4967</ele>
        <time>2011-11-11T10:44:25Z</time>
      </trkpt>
      <trkpt lat="46.16938" lon="3.85511">
        <ele>495.47516</ele>
        <time>2011-11-11T10:44:28Z</time>
      </trkpt>
      <trkpt lat="46.1696" lon="3.85504">
        <ele>494.18484</ele>
        <time>2011-11-11T10:44:31Z</time>
      </trkpt>
      <trkpt lat="46.16979" lon="3.855">
        <ele>492.25378</ele>
        <time>2011-11-11T10:44:35Z</time>
      </trkpt>
      <trkpt lat="46.16992" lon="3.85521">
        <ele>486.10593</ele>
        <time>2011-11-11T10:44:46Z</time>
      </trkpt>
      <trkpt lat="46.17009" lon="3.85541">
        <ele>481.14606</ele>
        <time>2011-11-11T10:44:53Z</time>
      </trkpt>
      <trkpt lat="46.17028" lon="3.85547">
        <ele>479.08096</ele>
        <time>2011-11-11T10:45:00Z</time>
      </trkpt>
      <trkpt lat="46.17048" lon="3.85549">
        <ele>477.2982</ele>
        <time>2011-11-11T10:45:10Z</time>
      </trkpt>
      <trkpt lat="46.1703" lon="3.85547">
        <ele>470.58154</ele>
        <time>2011-11-11T10:46:37Z</time>
      </trkpt>
      <trkpt lat="46.17048" lon="3.85547">
        <ele>467.188</ele>
        <time>2011-11-11T10:49:13Z</time>
      </trkpt>
      <trkpt lat="46.17068" lon="3.85545">
        <ele>466.76883</ele>
        <time>2011-11-11T10:49:21Z</time>
      </trkpt>
      <trkpt lat="46.17073" lon="3.85515">
        <ele>464.31274</ele>
        <time>2011-11-11T10:50:21Z</time>
      </trkpt>
      <trkpt lat="46.17093" lon="3.85506">
        <ele>462.04816</ele>
        <time>2011-11-11T10:50:25Z</time>
      </trkpt>
      <trkpt lat="46.17113" lon="3.85494">
        <ele>459.05038</ele>
        <time>2011-11-11T10:50:29Z</time>
      </trkpt>
      <trkpt lat="46.17122" lon="3.8547">
        <ele>455.1605</ele>
        <time>2011-11-11T10:50:33Z</time>
      </trkpt>
      <trkpt lat="46.17107" lon="3.85451">
        <ele>453.0833</ele>
        <time>2011-11-11T10:50:36Z</time>
      </trkpt>
      <trkpt lat="46.17093" lon="3.85427">
        <ele>451.4414</ele>
        <time>2011-11-11T10:50:39Z</time>
      </trkpt>
      <trkpt lat="46.17088" lon="3.85397">
        <ele>449.59247</ele>
        <time>2011-11-11T10:50:42Z</time>
      </trkpt>
      <trkpt lat="46.17083" lon="3.85369">
        <ele>447.82028</ele>
        <time>2011-11-11T10:50:46Z</time>
      </trkpt>
      <trkpt lat="46.17095" lon="3.85348">
        <ele>446.83212</ele>
        <time>2011-11-11T10:50:54Z</time>
      </trkpt>
      <trkpt lat="46.17117" lon="3.85343">
        <ele>446.0833</ele>
        <time>2011-11-11T10:51:02Z</time>
      </trkpt>
      <trkpt lat="46.17137" lon="3.85337">
        <ele>445.18423</ele>
        <time>2011-11-11T10:51:11Z</time>
      </trkpt>
      <trkpt lat="46.17157" lon="3.85337">
        <ele>441.30438</ele>
        <time>2011-11-11T10:51:15Z</time>
      </trkpt>
      <trkpt lat="46.17177" lon="3.85335">
        <ele>437.44092</ele>
        <time>2011-11-11T10:51:18Z</time>
      </trkpt>
      <trkpt lat="46.17204" lon="3.85328">
        <ele>433.17038</ele>
        <time>2011-11-11T10:51:21Z</time>
      </trkpt>
      <trkpt lat="46.1722" lon="3.85313">
        <ele>430.65836</ele>
        <time>2011-11-11T10:51:23Z</time>
      </trkpt>
      <trkpt lat="46.17242" lon="3.85294">
        <ele>427.27774</ele>
        <time>2011-11-11T10:51:26Z</time>
      </trkpt>
      <trkpt lat="46.17258" lon="3.85281">
        <ele>425.13278</ele>
        <time>2011-11-11T10:51:29Z</time>
      </trkpt>
      <trkpt lat="46.17274" lon="3.85257">
        <ele>423.2847</ele>
        <time>2011-11-11T10:51:36Z</time>
      </trkpt>
      <trkpt lat="46.17281" lon="3.8523">
        <ele>424.0507</ele>
        <time>2011-11-11T10:51:43Z</time>
      </trkpt>
      <trkpt lat="46.17295" lon="3.85212">
        <ele>426.77216</ele>
        <time>2011-11-11T10:51:51Z</time>
      </trkpt>
      <trkpt lat="46.17305" lon="3.85185">
        <ele>429.72458</ele>
        <time>2011-11-11T10:51:57Z</time>
      </trkpt>
      <trkpt lat="46.1731" lon="3.85154">
        <ele>432.28815</ele>
        <time>2011-11-11T10:52:02Z</time>
      </trkpt>
      <trkpt lat="46.17314" lon="3.85116">
        <ele>437.2455</ele>
        <time>2011-11-11T10:52:16Z</time>
      </trkpt>
      <trkpt lat="46.17324" lon="3.85092">
        <ele>441.4942</ele>
        <time>2011-11-11T10:52:28Z</time>
      </trkpt>
      <trkpt lat="46.17346" lon="3.85086">
        <ele>445.83725</ele>
        <time>2011-11-11T10:52:37Z</time>
      </trkpt>
      <trkpt lat="46.17369" lon="3.85073">
        <ele>447.5657</ele>
        <time>2011-11-11T10:52:41Z</time>
      </trkpt>
      <trkpt lat="46.17394" lon="3.85062">
        <ele>448.79617</ele>
        <time>2011-11-11T10:52:45Z</time>
      </trkpt>
      <trkpt lat="46.17413" lon="3.8506">
        <ele>449.8691</ele>
        <time>2011-11-11T10:52:49Z</time>
      </trkpt>
      <trkpt lat="46.17431" lon="3.8506">
        <ele>451.2203</ele>
        <time>2011-11-11T10:52:53Z</time>
      </trkpt>
      <trkpt lat="46.17454" lon="3.85058">
        <ele>452.11124</ele>
        <time>2011-11-11T10:52:59Z</time>
      </trkpt>
      <trkpt lat="46.17474" lon="3.85056">
        <ele>452.88138</ele>
        <time>2011-11-11T10:53:06Z</time>
      </trkpt>
      <trkpt lat="46.17493" lon="3.85056">
        <ele>453.5406</ele>
        <time>2011-11-11T10:53:10Z</time>
      </trkpt>
      <trkpt lat="46.17519" lon="3.85064">
        <ele>454.10464</ele>
        <time>2011-11-11T10:53:14Z</time>
      </trkpt>
      <trkpt lat="46.17539" lon="3.85062">
        <ele>455.18387</ele>
        <time>2011-11-11T10:53:16Z</time>
      </trkpt>
      <trkpt lat="46.17557" lon="3.85062">
        <ele>456.22842</ele>
        <time>2011-11-11T10:53:18Z</time>
      </trkpt>
      <trkpt lat="46.17575" lon="3.85056">
        <ele>458.51825</ele>
        <time>2011-11-11T10:53:21Z</time>
      </trkpt>
      <trkpt lat="46.17587" lon="3.8503">
        <ele>461.53217</ele>
        <time>2011-11-11T10:53:26Z</time>
      </trkpt>
      <trkpt lat="46.17597" lon="3.85">
        <ele>462.53555</ele>
        <time>2011-11-11T10:53:30Z</time>
      </trkpt>
      <trkpt lat="46.17602" lon="3.84974">
        <ele>462.80408</ele>
        <time>2011-11-11T10:53:33Z</time>
      </trkpt>
      <trkpt lat="46.1761" lon="3.84948">
        <ele>462.91733</ele>
        <time>2011-11-11T10:53:36Z</time>
      </trkpt>
      <trkpt lat="46.17623" lon="3.84929">
        <ele>463.40262</ele>
        <time>2011-11-11T10:53:39Z</time>
      </trkpt>
      <trkpt lat="46.17637" lon="3.84912">
        <ele>463.748</ele>
        <time>2011-11-11T10:53:42Z</time>
      </trkpt>
      <trkpt lat="46.17655" lon="3.84897">
        <ele>464.49838</ele>
        <time>2011-11-11T10:53:46Z</time>
      </trkpt>
      <trkpt lat="46.1767" lon="3.84876">
        <ele>464.84128</ele>
        <time>2011-11-11T10:53:50Z</time>
      </trkpt>
      <trkpt lat="46.1768" lon="3.84845">
        <ele>464.93304</ele>
        <time>2011-11-11T10:53:53Z</time>
      </trkpt>
      <trkpt lat="46.17689" lon="3.84811">
        <ele>464.72174</ele>
        <time>2011-11-11T10:53:56Z</time>
      </trkpt>
      <trkpt lat="46.17689" lon="3.84781">
        <ele>463.867</ele>
        <time>2011-11-11T10:53:59Z</time>
      </trkpt>
      <trkpt lat="46.17675" lon="3.84758">
        <ele>462.35013</ele>
        <time>2011-11-11T10:54:02Z</time>
      </trkpt>
      <trkpt lat="46.1766" lon="3.84738">
        <ele>460.30396</ele>
        <time>2011-11-11T10:54:05Z</time>
      </trkpt>
      <trkpt lat="46.17672" lon="3.8471">
        <ele>457.02975</ele>
        <time>2011-11-11T10:54:09Z</time>
      </trkpt>
      <trkpt lat="46.17691" lon="3.84717">
        <ele>455.45425</ele>
        <time>2011-11-11T10:54:11Z</time>
      </trkpt>
      <trkpt lat="46.17711" lon="3.84717">
        <ele>454.03537</ele>
        <time>2011-11-11T10:54:14Z</time>
      </trkpt>
      <trkpt lat="46.17732" lon="3.84704">
        <ele>453.8218</ele>
        <time>2011-11-11T10:54:21Z</time>
      </trkpt>
      <trkpt lat="46.1775" lon="3.84689">
        <ele>456.66238</ele>
        <time>2011-11-11T10:54:34Z</time>
      </trkpt>
      <trkpt lat="46.17767" lon="3.84674">
        <ele>461.5625</ele>
        <time>2011-11-11T10:55:35Z</time>
      </trkpt>
      <trkpt lat="46.17783" lon="3.84652">
        <ele>464.35516</ele>
        <time>2011-11-11T10:55:40Z</time>
      </trkpt>
      <trkpt lat="46.17802" lon="3.84637">
        <ele>468.12018</ele>
        <time>2011-11-11T10:55:44Z</time>
      </trkpt>
      <trkpt lat="46.17819" lon="3.84622">
        <ele>472.342</ele>
        <time>2011-11-11T10:55:49Z</time>
      </trkpt>
      <trkpt lat="46.17836" lon="3.84605">
        <ele>475.38486</ele>
        <time>2011-11-11T10:55:54Z</time>
      </trkpt>
      <trkpt lat="46.17851" lon="3.84584">
        <ele>477.5471</ele>
        <time>2011-11-11T10:56:01Z</time>
      </trkpt>
      <trkpt lat="46.17863" lon="3.84562">
        <ele>477.39636</ele>
        <time>2011-11-11T10:56:11Z</time>
      </trkpt>
      <trkpt lat="46.17877" lon="3.84534">
        <ele>477.69614</ele>
        <time>2011-11-11T10:56:23Z</time>
      </trkpt>
      <trkpt lat="46.1789" lon="3.84506">
        <ele>479.69916</ele>
        <time>2011-11-11T10:56:36Z</time>
      </trkpt>
      <trkpt lat="46.17906" lon="3.84487">
        <ele>481.80118</ele>
        <time>2011-11-11T10:56:52Z</time>
      </trkpt>
      <trkpt lat="46.17922" lon="3.84464">
        <ele>483.82074</ele>
        <time>2011-11-11T10:57:06Z</time>
      </trkpt>
      <trkpt lat="46.17937" lon="3.8444">
        <ele>485.6216</ele>
        <time>2011-11-11T10:57:18Z</time>
      </trkpt>
      <trkpt lat="46.17953" lon="3.84408">
        <ele>488.03134</ele>
        <time>2011-11-11T10:57:31Z</time>
      </trkpt>
      <trkpt lat="46.17968" lon="3.8438">
        <ele>490.63956</ele>
        <time>2011-11-11T10:57:44Z</time>
      </trkpt>
      <trkpt lat="46.1798" lon="3.84356">
        <ele>493.0488</ele>
        <time>2011-11-11T10:57:56Z</time>
      </trkpt>
      <trkpt lat="46.17989" lon="3.84333">
        <ele>495.84714</ele>
        <time>2011-11-11T10:58:08Z</time>
      </trkpt>
      <trkpt lat="46.17997" lon="3.84309">
        <ele>498.70435</ele>
        <time>2011-11-11T10:58:19Z</time>
      </trkpt>
      <trkpt lat="46.18003" lon="3.84283">
        <ele>501.54245</ele>
        <time>2011-11-11T10:58:31Z</time>
      </trkpt>
      <trkpt lat="46.18014" lon="3.84258">
        <ele>504.26147</ele>
        <time>2011-11-11T10:58:44Z</time>
      </trkpt>
      <trkpt lat="46.18023" lon="3.84234">
        <ele>505.99808</ele>
        <time>2011-11-11T10:58:52Z</time>
      </trkpt>
      <trkpt lat="46.1803" lon="3.8421">
        <ele>507.66238</ele>
        <time>2011-11-11T10:59:00Z</time>
      </trkpt>
      <trkpt lat="46.18038" lon="3.84187">
        <ele>509.54968</ele>
        <time>2011-11-11T10:59:08Z</time>
      </trkpt>
      <trkpt lat="46.18049" lon="3.84163">
        <ele>511.0119</ele>
        <time>2011-11-11T10:59:15Z</time>
      </trkpt>
      <trkpt lat="46.18061" lon="3.8414">
        <ele>513.85925</ele>
        <time>2011-11-11T10:59:20Z</time>
      </trkpt>
      <trkpt lat="46.18074" lon="3.84114">
        <ele>518.5291</ele>
        <time>2011-11-11T10:59:25Z</time>
      </trkpt>
      <trkpt lat="46.18086" lon="3.84084">
        <ele>521.5347</ele>
        <time>2011-11-11T10:59:30Z</time>
      </trkpt>
      <trkpt lat="46.1809" lon="3.84054">
        <ele>522.9739</ele>
        <time>2011-11-11T10:59:34Z</time>
      </trkpt>
      <trkpt lat="46.18089" lon="3.84024">
        <ele>523.67535</ele>
        <time>2011-11-11T10:59:38Z</time>
      </trkpt>
      <trkpt lat="46.18088" lon="3.83991">
        <ele>523.06915</ele>
        <time>2011-11-11T10:59:42Z</time>
      </trkpt>
      <trkpt lat="46.18096" lon="3.83961">
        <ele>521.32263</ele>
        <time>2011-11-11T10:59:46Z</time>
      </trkpt>
      <trkpt lat="46.18096" lon="3.83931">
        <ele>519.5512</ele>
        <time>2011-11-11T10:59:51Z</time>
      </trkpt>
      <trkpt lat="46.18089" lon="3.83904">
        <ele>519.1744</ele>
        <time>2011-11-11T10:59:55Z</time>
      </trkpt>
      <trkpt lat="46.18084" lon="3.83878">
        <ele>519.7388</ele>
        <time>2011-11-11T10:59:59Z</time>
      </trkpt>
      <trkpt lat="46.18072" lon="3.83846">
        <ele>519.9853</ele>
        <time>2011-11-11T11:00:09Z</time>
      </trkpt>
      <trkpt lat="46.1807" lon="3.83813">
        <ele>519.1769</ele>
        <time>2011-11-11T11:00:18Z</time>
      </trkpt>
      <trkpt lat="46.18077" lon="3.83785">
        <ele>520.2286</ele>
        <time>2011-11-11T11:00:33Z</time>
      </trkpt>
      <trkpt lat="46.18083" lon="3.83751">
        <ele>520.99567</ele>
        <time>2011-11-11T11:00:51Z</time>
      </trkpt>
      <trkpt lat="46.18087" lon="3.83723">
        <ele>521.5767</ele>
        <time>2011-11-11T11:00:55Z</time>
      </trkpt>
      <trkpt lat="46.18091" lon="3.83695">
        <ele>522.91223</ele>
        <time>2011-11-11T11:01:00Z</time>
      </trkpt>
      <trkpt lat="46.18096" lon="3.83665">
        <ele>525.73883</ele>
        <time>2011-11-11T11:01:10Z</time>
      </trkpt>
      <trkpt lat="46.18102" lon="3.83631">
        <ele>528.5872</ele>
        <time>2011-11-11T11:01:23Z</time>
      </trkpt>
      <trkpt lat="46.18109" lon="3.83601">
        <ele>531.037</ele>
        <time>2011-11-11T11:01:33Z</time>
      </trkpt>
      <trkpt lat="46.18109" lon="3.83567">
        <ele>533.1342</ele>
        <time>2011-11-11T11:01:44Z</time>
      </trkpt>
      <trkpt lat="46.18112" lon="3.83541">
        <ele>534.676</ele>
        <time>2011-11-11T11:01:52Z</time>
      </trkpt>
      <trkpt lat="46.18118" lon="3.83515">
        <ele>535.6259</ele>
        <time>2011-11-11T11:01:58Z</time>
      </trkpt>
      <trkpt lat="46.18128" lon="3.83487">
        <ele>536.4894</ele>
        <time>2011-11-11T11:02:03Z</time>
      </trkpt>
      <trkpt lat="46.18135" lon="3.83461">
        <ele>537.22205</ele>
        <time>2011-11-11T11:02:06Z</time>
      </trkpt>
      <trkpt lat="46.18147" lon="3.83438">
        <ele>538.19135</ele>
        <time>2011-11-11T11:02:10Z</time>
      </trkpt>
      <trkpt lat="46.18161" lon="3.83416">
        <ele>539.3862</ele>
        <time>2011-11-11T11:02:15Z</time>
      </trkpt>
      <trkpt lat="46.18174" lon="3.83397">
        <ele>540.53796</ele>
        <time>2011-11-11T11:02:20Z</time>
      </trkpt>
      <trkpt lat="46.18188" lon="3.83376">
        <ele>541.6805</ele>
        <time>2011-11-11T11:02:26Z</time>
      </trkpt>
      <trkpt lat="46.18203" lon="3.83354">
        <ele>542.76514</ele>
        <time>2011-11-11T11:02:32Z</time>
      </trkpt>
      <trkpt lat="46.18217" lon="3.83337">
        <ele>543.707</ele>
        <time>2011-11-11T11:02:37Z</time>
      </trkpt>
      <trkpt lat="46.18227" lon="3.83316">
        <ele>544.6315</ele>
        <time>2011-11-11T11:02:43Z</time>
      </trkpt>
      <trkpt lat="46.18239" lon="3.83294">
        <ele>545.16254</ele>
        <time>2011-11-11T11:02:48Z</time>
      </trkpt>
      <trkpt lat="46.18252" lon="3.83275">
        <ele>545.8013</ele>
        <time>2011-11-11T11:02:53Z</time>
      </trkpt>
      <trkpt lat="46.18266" lon="3.83253">
        <ele>546.6482</ele>
        <time>2011-11-11T11:02:59Z</time>
      </trkpt>
      <trkpt lat="46.18286" lon="3.8324">
        <ele>546.9374</ele>
        <time>2011-11-11T11:03:05Z</time>
      </trkpt>
      <trkpt lat="46.18314" lon="3.83219">
        <ele>548.2458</ele>
        <time>2011-11-11T11:03:09Z</time>
      </trkpt>
      <trkpt lat="46.18337" lon="3.83198">
        <ele>550.0881</ele>
        <time>2011-11-11T11:03:12Z</time>
      </trkpt>
      <trkpt lat="46.18354" lon="3.83183">
        <ele>551.36206</ele>
        <time>2011-11-11T11:03:14Z</time>
      </trkpt>
      <trkpt lat="46.18372" lon="3.83165">
        <ele>552.3287</ele>
        <time>2011-11-11T11:03:16Z</time>
      </trkpt>
      <trkpt lat="46.18389" lon="3.83152">
        <ele>553.0599</ele>
        <time>2011-11-11T11:03:18Z</time>
      </trkpt>
      <trkpt lat="46.18407" lon="3.83137">
        <ele>553.4712</ele>
        <time>2011-11-11T11:03:20Z</time>
      </trkpt>
      <trkpt lat="46.18423" lon="3.83122">
        <ele>553.7025</ele>
        <time>2011-11-11T11:03:22Z</time>
      </trkpt>
      <trkpt lat="46.18441" lon="3.8311">
        <ele>553.8327</ele>
        <time>2011-11-11T11:03:24Z</time>
      </trkpt>
      <trkpt lat="46.18457" lon="3.83097">
        <ele>553.2184</ele>
        <time>2011-11-11T11:03:26Z</time>
      </trkpt>
      <trkpt lat="46.18473" lon="3.83084">
        <ele>552.68536</ele>
        <time>2011-11-11T11:03:28Z</time>
      </trkpt>
      <trkpt lat="46.18497" lon="3.83065">
        <ele>551.2735</ele>
        <time>2011-11-11T11:03:31Z</time>
      </trkpt>
      <trkpt lat="46.18512" lon="3.83049">
        <ele>550.0289</ele>
        <time>2011-11-11T11:03:33Z</time>
      </trkpt>
      <trkpt lat="46.18529" lon="3.83034">
        <ele>548.89124</ele>
        <time>2011-11-11T11:03:35Z</time>
      </trkpt>
      <trkpt lat="46.18549" lon="3.83015">
        <ele>547.62634</ele>
        <time>2011-11-11T11:03:37Z</time>
      </trkpt>
      <trkpt lat="46.18571" lon="3.82996">
        <ele>546.2273</ele>
        <time>2011-11-11T11:03:39Z</time>
      </trkpt>
      <trkpt lat="46.18591" lon="3.82972">
        <ele>544.31537</ele>
        <time>2011-11-11T11:03:41Z</time>
      </trkpt>
      <trkpt lat="46.18612" lon="3.82955">
        <ele>542.17737</ele>
        <time>2011-11-11T11:03:43Z</time>
      </trkpt>
      <trkpt lat="46.18629" lon="3.82946">
        <ele>539.8498</ele>
        <time>2011-11-11T11:03:45Z</time>
      </trkpt>
      <trkpt lat="46.18646" lon="3.82938">
        <ele>535.26886</ele>
        <time>2011-11-11T11:03:49Z</time>
      </trkpt>
      <trkpt lat="46.18664" lon="3.82931">
        <ele>531.7687</ele>
        <time>2011-11-11T11:03:53Z</time>
      </trkpt>
      <trkpt lat="46.18689" lon="3.82927">
        <ele>528.25494</ele>
        <time>2011-11-11T11:03:57Z</time>
      </trkpt>
      <trkpt lat="46.18707" lon="3.82927">
        <ele>524.85754</ele>
        <time>2011-11-11T11:04:00Z</time>
      </trkpt>
      <trkpt lat="46.18729" lon="3.82934">
        <ele>520.4691</ele>
        <time>2011-11-11T11:04:05Z</time>
      </trkpt>
      <trkpt lat="46.18746" lon="3.82944">
        <ele>518.91113</ele>
        <time>2011-11-11T11:04:10Z</time>
      </trkpt>
      <trkpt lat="46.18767" lon="3.82959">
        <ele>518.02167</ele>
        <time>2011-11-11T11:04:23Z</time>
      </trkpt>
      <trkpt lat="46.18785" lon="3.82974">
        <ele>517.1789</ele>
        <time>2011-11-11T11:04:34Z</time>
      </trkpt>
      <trkpt lat="46.18801" lon="3.82987">
        <ele>515.82935</ele>
        <time>2011-11-11T11:04:47Z</time>
      </trkpt>
      <trkpt lat="46.18821" lon="3.83">
        <ele>513.89825</ele>
        <time>2011-11-11T11:05:01Z</time>
      </trkpt>
      <trkpt lat="46.1884" lon="3.83009">
        <ele>513.8726</ele>
        <time>2011-11-11T11:05:11Z</time>
      </trkpt>
      <trkpt lat="46.18859" lon="3.83011">
        <ele>515.88446</ele>
        <time>2011-11-11T11:05:20Z</time>
      </trkpt>
      <trkpt lat="46.18879" lon="3.83015">
        <ele>518.0092</ele>
        <time>2011-11-11T11:05:30Z</time>
      </trkpt>
      <trkpt lat="46.18899" lon="3.83017">
        <ele>519.88226</ele>
        <time>2011-11-11T11:05:44Z</time>
      </trkpt>
      <trkpt lat="46.18919" lon="3.83004">
        <ele>519.0455</ele>
        <time>2011-11-11T11:05:50Z</time>
      </trkpt>
      <trkpt lat="46.18933" lon="3.82985">
        <ele>517.6861</ele>
        <time>2011-11-11T11:05:56Z</time>
      </trkpt>
      <trkpt lat="46.18955" lon="3.82977">
        <ele>517.0707</ele>
        <time>2011-11-11T11:05:59Z</time>
      </trkpt>
      <trkpt lat="46.18982" lon="3.82981">
        <ele>518.85223</ele>
        <time>2011-11-11T11:06:01Z</time>
      </trkpt>
      <trkpt lat="46.19009" lon="3.82989">
        <ele>520.9169</ele>
        <time>2011-11-11T11:06:03Z</time>
      </trkpt>
      <trkpt lat="46.19036" lon="3.83">
        <ele>522.26575</ele>
        <time>2011-11-11T11:06:05Z</time>
      </trkpt>
      <trkpt lat="46.19062" lon="3.83004">
        <ele>522.587</ele>
        <time>2011-11-11T11:06:07Z</time>
      </trkpt>
      <trkpt lat="46.19084" lon="3.83007">
        <ele>522.0802</ele>
        <time>2011-11-11T11:06:09Z</time>
      </trkpt>
      <trkpt lat="46.19102" lon="3.83007">
        <ele>520.9201</ele>
        <time>2011-11-11T11:06:11Z</time>
      </trkpt>
      <trkpt lat="46.19121" lon="3.83">
        <ele>519.81006</ele>
        <time>2011-11-11T11:06:14Z</time>
      </trkpt>
      <trkpt lat="46.19145" lon="3.82994">
        <ele>518.5086</ele>
        <time>2011-11-11T11:06:19Z</time>
      </trkpt>
      <trkpt lat="46.19167" lon="3.82983">
        <ele>517.2162</ele>
        <time>2011-11-11T11:06:28Z</time>
      </trkpt>
      <trkpt lat="46.19188" lon="3.82979">
        <ele>517.3013</ele>
        <time>2011-11-11T11:06:33Z</time>
      </trkpt>
      <trkpt lat="46.19205" lon="3.8297">
        <ele>517.70526</ele>
        <time>2011-11-11T11:06:36Z</time>
      </trkpt>
      <trkpt lat="46.19232" lon="3.82953">
        <ele>518.8942</ele>
        <time>2011-11-11T11:06:43Z</time>
      </trkpt>
      <trkpt lat="46.19252" lon="3.82946">
        <ele>520.7368</ele>
        <time>2011-11-11T11:06:49Z</time>
      </trkpt>
      <trkpt lat="46.19272" lon="3.82927">
        <ele>522.95874</ele>
        <time>2011-11-11T11:06:55Z</time>
      </trkpt>
      <trkpt lat="46.19287" lon="3.8291">
        <ele>524.6041</ele>
        <time>2011-11-11T11:06:59Z</time>
      </trkpt>
      <trkpt lat="46.19307" lon="3.82897">
        <ele>525.55835</ele>
        <time>2011-11-11T11:07:03Z</time>
      </trkpt>
      <trkpt lat="46.19326" lon="3.82889">
        <ele>526.4733</ele>
        <time>2011-11-11T11:07:08Z</time>
      </trkpt>
      <trkpt lat="46.19345" lon="3.82876">
        <ele>527.4531</ele>
        <time>2011-11-11T11:07:13Z</time>
      </trkpt>
      <trkpt lat="46.19366" lon="3.82863">
        <ele>528.999</ele>
        <time>2011-11-11T11:07:20Z</time>
      </trkpt>
      <trkpt lat="46.19383" lon="3.82848">
        <ele>531.6062</ele>
        <time>2011-11-11T11:07:25Z</time>
      </trkpt>
      <trkpt lat="46.19397" lon="3.82826">
        <ele>532.8865</ele>
        <time>2011-11-11T11:07:31Z</time>
      </trkpt>
      <trkpt lat="46.19397" lon="3.82796">
        <ele>532.11835</ele>
        <time>2011-11-11T11:07:38Z</time>
      </trkpt>
      <trkpt lat="46.19401" lon="3.82771">
        <ele>532.0499</ele>
        <time>2011-11-11T11:07:41Z</time>
      </trkpt>
      <trkpt lat="46.19408" lon="3.82738">
        <ele>532.5992</ele>
        <time>2011-11-11T11:07:44Z</time>
      </trkpt>
      <trkpt lat="46.19412" lon="3.82708">
        <ele>532.83093</ele>
        <time>2011-11-11T11:07:47Z</time>
      </trkpt>
      <trkpt lat="46.19415" lon="3.82674">
        <ele>531.663</ele>
        <time>2011-11-11T11:07:50Z</time>
      </trkpt>
      <trkpt lat="46.19431" lon="3.82644">
        <ele>529.8735</ele>
        <time>2011-11-11T11:07:53Z</time>
      </trkpt>
      <trkpt lat="46.19447" lon="3.82614">
        <ele>528.79034</ele>
        <time>2011-11-11T11:07:56Z</time>
      </trkpt>
      <trkpt lat="46.19463" lon="3.82584">
        <ele>527.5053</ele>
        <time>2011-11-11T11:07:59Z</time>
      </trkpt>
      <trkpt lat="46.19472" lon="3.8256">
        <ele>526.40924</ele>
        <time>2011-11-11T11:08:01Z</time>
      </trkpt>
      <trkpt lat="46.19478" lon="3.82535">
        <ele>525.1052</ele>
        <time>2011-11-11T11:08:03Z</time>
      </trkpt>
      <trkpt lat="46.19485" lon="3.82509">
        <ele>524.18414</ele>
        <time>2011-11-11T11:08:05Z</time>
      </trkpt>
      <trkpt lat="46.19493" lon="3.82483">
        <ele>523.4786</ele>
        <time>2011-11-11T11:08:07Z</time>
      </trkpt>
      <trkpt lat="46.1951" lon="3.82455">
        <ele>523.2019</ele>
        <time>2011-11-11T11:08:10Z</time>
      </trkpt>
      <trkpt lat="46.19528" lon="3.82429">
        <ele>523.0852</ele>
        <time>2011-11-11T11:08:13Z</time>
      </trkpt>
      <trkpt lat="46.19545" lon="3.82404">
        <ele>523.03595</ele>
        <time>2011-11-11T11:08:16Z</time>
      </trkpt>
      <trkpt lat="46.19559" lon="3.8238">
        <ele>522.437</ele>
        <time>2011-11-11T11:08:19Z</time>
      </trkpt>
      <trkpt lat="46.19575" lon="3.82363">
        <ele>522.1844</ele>
        <time>2011-11-11T11:08:22Z</time>
      </trkpt>
      <trkpt lat="46.19594" lon="3.82348">
        <ele>522.2184</ele>
        <time>2011-11-11T11:08:25Z</time>
      </trkpt>
      <trkpt lat="46.19612" lon="3.82335">
        <ele>522.52966</ele>
        <time>2011-11-11T11:08:28Z</time>
      </trkpt>
      <trkpt lat="46.19628" lon="3.82316">
        <ele>523.4293</ele>
        <time>2011-11-11T11:08:32Z</time>
      </trkpt>
      <trkpt lat="46.19644" lon="3.82298">
        <ele>524.11456</ele>
        <time>2011-11-11T11:08:37Z</time>
      </trkpt>
      <trkpt lat="46.19658" lon="3.82281">
        <ele>524.78986</ele>
        <time>2011-11-11T11:08:42Z</time>
      </trkpt>
      <trkpt lat="46.19673" lon="3.8226">
        <ele>525.4001</ele>
        <time>2011-11-11T11:08:48Z</time>
      </trkpt>
      <trkpt lat="46.19687" lon="3.82238">
        <ele>526.37744</ele>
        <time>2011-11-11T11:08:56Z</time>
      </trkpt>
      <trkpt lat="46.19702" lon="3.82219">
        <ele>527.5158</ele>
        <time>2011-11-11T11:09:04Z</time>
      </trkpt>
      <trkpt lat="46.19717" lon="3.82202">
        <ele>528.61896</ele>
        <time>2011-11-11T11:09:11Z</time>
      </trkpt>
      <trkpt lat="46.19733" lon="3.82183">
        <ele>529.71185</ele>
        <time>2011-11-11T11:09:18Z</time>
      </trkpt>
      <trkpt lat="46.19746" lon="3.82163">
        <ele>531.02075</ele>
        <time>2011-11-11T11:09:24Z</time>
      </trkpt>
      <trkpt lat="46.19755" lon="3.82138">
        <ele>532.30676</ele>
        <time>2011-11-11T11:09:31Z</time>
      </trkpt>
      <trkpt lat="46.19764" lon="3.82114">
        <ele>533.4548</ele>
        <time>2011-11-11T11:09:37Z</time>
      </trkpt>
      <trkpt lat="46.19772" lon="3.8209">
        <ele>534.4811</ele>
        <time>2011-11-11T11:09:43Z</time>
      </trkpt>
      <trkpt lat="46.19782" lon="3.82067">
        <ele>535.4858</ele>
        <time>2011-11-11T11:09:49Z</time>
      </trkpt>
      <trkpt lat="46.19793" lon="3.82045">
        <ele>536.3155</ele>
        <time>2011-11-11T11:09:54Z</time>
      </trkpt>
      <trkpt lat="46.19805" lon="3.82022">
        <ele>539.4704</ele>
        <time>2011-11-11T11:09:59Z</time>
      </trkpt>
      <trkpt lat="46.19816" lon="3.81998">
        <ele>542.99054</ele>
        <time>2011-11-11T11:10:04Z</time>
      </trkpt>
      <trkpt lat="46.19828" lon="3.81974">
        <ele>544.96063</ele>
        <time>2011-11-11T11:10:09Z</time>
      </trkpt>
      <trkpt lat="46.19842" lon="3.81951">
        <ele>546.3315</ele>
        <time>2011-11-11T11:10:14Z</time>
      </trkpt>
      <trkpt lat="46.19857" lon="3.81929">
        <ele>546.8414</ele>
        <time>2011-11-11T11:10:19Z</time>
      </trkpt>
      <trkpt lat="46.19874" lon="3.81912">
        <ele>548.16254</ele>
        <time>2011-11-11T11:10:24Z</time>
      </trkpt>
      <trkpt lat="46.19893" lon="3.81895">
        <ele>549.2388</ele>
        <time>2011-11-11T11:10:29Z</time>
      </trkpt>
      <trkpt lat="46.1991" lon="3.81884">
        <ele>550.19666</ele>
        <time>2011-11-11T11:10:33Z</time>
      </trkpt>
      <trkpt lat="46.19928" lon="3.81867">
        <ele>551.3875</ele>
        <time>2011-11-11T11:10:38Z</time>
      </trkpt>
      <trkpt lat="46.19943" lon="3.81852">
        <ele>551.8062</ele>
        <time>2011-11-11T11:10:42Z</time>
      </trkpt>
      <trkpt lat="46.19957" lon="3.81835">
        <ele>551.93866</ele>
        <time>2011-11-11T11:10:46Z</time>
      </trkpt>
      <trkpt lat="46.1997" lon="3.81816">
        <ele>552.6642</ele>
        <time>2011-11-11T11:10:50Z</time>
      </trkpt>
      <trkpt lat="46.19982" lon="3.81794">
        <ele>553.47186</ele>
        <time>2011-11-11T11:10:54Z</time>
      </trkpt>
      <trkpt lat="46.19992" lon="3.81771">
        <ele>553.8329</ele>
        <time>2011-11-11T11:10:58Z</time>
      </trkpt>
      <trkpt lat="46.20003" lon="3.81745">
        <ele>553.94714</ele>
        <time>2011-11-11T11:11:02Z</time>
      </trkpt>
      <trkpt lat="46.20014" lon="3.81721">
        <ele>553.5458</ele>
        <time>2011-11-11T11:11:06Z</time>
      </trkpt>
      <trkpt lat="46.20022" lon="3.81698">
        <ele>553.17267</ele>
        <time>2011-11-11T11:11:10Z</time>
      </trkpt>
      <trkpt lat="46.20031" lon="3.81674">
        <ele>553.0546</ele>
        <time>2011-11-11T11:11:14Z</time>
      </trkpt>
      <trkpt lat="46.20039" lon="3.8165">
        <ele>552.3337</ele>
        <time>2011-11-11T11:11:18Z</time>
      </trkpt>
      <trkpt lat="46.20047" lon="3.81625">
        <ele>552.1056</ele>
        <time>2011-11-11T11:11:22Z</time>
      </trkpt>
      <trkpt lat="46.20057" lon="3.81599">
        <ele>552.0251</ele>
        <time>2011-11-11T11:11:27Z</time>
      </trkpt>
      <trkpt lat="46.20063" lon="3.81571">
        <ele>552.00793</ele>
        <time>2011-11-11T11:11:31Z</time>
      </trkpt>
      <trkpt lat="46.20069" lon="3.81545">
        <ele>552.00336</ele>
        <time>2011-11-11T11:11:34Z</time>
      </trkpt>
      <trkpt lat="46.20076" lon="3.81522">
        <ele>552.0014</ele>
        <time>2011-11-11T11:11:37Z</time>
      </trkpt>
      <trkpt lat="46.20086" lon="3.81496">
        <ele>552.0006</ele>
        <time>2011-11-11T11:11:40Z</time>
      </trkpt>
      <trkpt lat="46.20098" lon="3.81472">
        <ele>551.4221</ele>
        <time>2011-11-11T11:11:43Z</time>
      </trkpt>
      <trkpt lat="46.2011" lon="3.81449">
        <ele>551.1781</ele>
        <time>2011-11-11T11:11:46Z</time>
      </trkpt>
      <trkpt lat="46.20124" lon="3.81427">
        <ele>551.07513</ele>
        <time>2011-11-11T11:11:49Z</time>
      </trkpt>
      <trkpt lat="46.20139" lon="3.81404">
        <ele>551.0317</ele>
        <time>2011-11-11T11:11:52Z</time>
      </trkpt>
      <trkpt lat="46.20153" lon="3.81378">
        <ele>550.43524</ele>
        <time>2011-11-11T11:11:55Z</time>
      </trkpt>
      <trkpt lat="46.20168" lon="3.8135">
        <ele>550.1836</ele>
        <time>2011-11-11T11:11:58Z</time>
      </trkpt>
      <trkpt lat="46.20178" lon="3.81324">
        <ele>550.5408</ele>
        <time>2011-11-11T11:12:00Z</time>
      </trkpt>
      <trkpt lat="46.20185" lon="3.81301">
        <ele>550.4917</ele>
        <time>2011-11-11T11:12:02Z</time>
      </trkpt>
      <trkpt lat="46.20195" lon="3.81271">
        <ele>549.76996</ele>
        <time>2011-11-11T11:12:05Z</time>
      </trkpt>
      <trkpt lat="46.20201" lon="3.81241">
        <ele>549.0748</ele>
        <time>2011-11-11T11:12:08Z</time>
      </trkpt>
      <trkpt lat="46.20205" lon="3.81211">
        <ele>548.4534</ele>
        <time>2011-11-11T11:12:11Z</time>
      </trkpt>
      <trkpt lat="46.20208" lon="3.81181">
        <ele>548.1913</ele>
        <time>2011-11-11T11:12:14Z</time>
      </trkpt>
      <trkpt lat="46.20212" lon="3.81148">
        <ele>547.6432</ele>
        <time>2011-11-11T11:12:17Z</time>
      </trkpt>
      <trkpt lat="46.20219" lon="3.81118">
        <ele>547.8495</ele>
        <time>2011-11-11T11:12:20Z</time>
      </trkpt>
      <trkpt lat="46.20227" lon="3.8109">
        <ele>547.9365</ele>
        <time>2011-11-11T11:12:23Z</time>
      </trkpt>
      <trkpt lat="46.20237" lon="3.81067">
        <ele>547.9732</ele>
        <time>2011-11-11T11:12:26Z</time>
      </trkpt>
      <trkpt lat="46.20247" lon="3.81043">
        <ele>547.9887</ele>
        <time>2011-11-11T11:12:29Z</time>
      </trkpt>
      <trkpt lat="46.20256" lon="3.81017">
        <ele>547.99524</ele>
        <time>2011-11-11T11:12:32Z</time>
      </trkpt>
      <trkpt lat="46.20265" lon="3.80994">
        <ele>547.998</ele>
        <time>2011-11-11T11:12:35Z</time>
      </trkpt>
      <trkpt lat="46.20272" lon="3.8097">
        <ele>547.99915</ele>
        <time>2011-11-11T11:12:38Z</time>
      </trkpt>
      <trkpt lat="46.20281" lon="3.80947">
        <ele>547.99963</ele>
        <time>2011-11-11T11:12:41Z</time>
      </trkpt>
      <trkpt lat="46.2029" lon="3.80923">
        <ele>547.9999</ele>
        <time>2011-11-11T11:12:44Z</time>
      </trkpt>
      <trkpt lat="46.20302" lon="3.80899">
        <ele>548.43744</ele>
        <time>2011-11-11T11:12:48Z</time>
      </trkpt>
      <trkpt lat="46.20316" lon="3.80882">
        <ele>548.8665</ele>
        <time>2011-11-11T11:12:53Z</time>
      </trkpt>
      <trkpt lat="46.20312" lon="3.80852">
        <ele>548.99</ele>
        <time>2011-11-11T11:13:02Z</time>
      </trkpt>
      <trkpt lat="46.203" lon="3.80824">
        <ele>548.41766</ele>
        <time>2011-11-11T11:13:05Z</time>
      </trkpt>
      <trkpt lat="46.20288" lon="3.80803">
        <ele>547.9849</ele>
        <time>2011-11-11T11:13:07Z</time>
      </trkpt>
      <trkpt lat="46.20277" lon="3.80781">
        <ele>547.554</ele>
        <time>2011-11-11T11:13:09Z</time>
      </trkpt>
      <trkpt lat="46.20258" lon="3.80751">
        <ele>546.6556</ele>
        <time>2011-11-11T11:13:12Z</time>
      </trkpt>
      <trkpt lat="46.20245" lon="3.80732">
        <ele>545.9313</ele>
        <time>2011-11-11T11:13:14Z</time>
      </trkpt>
      <trkpt lat="46.20232" lon="3.80711">
        <ele>545.52386</ele>
        <time>2011-11-11T11:13:16Z</time>
      </trkpt>
      <trkpt lat="46.20219" lon="3.80689">
        <ele>545.2947</ele>
        <time>2011-11-11T11:13:18Z</time>
      </trkpt>
      <trkpt lat="46.20202" lon="3.80659">
        <ele>544.8743</ele>
        <time>2011-11-11T11:13:21Z</time>
      </trkpt>
      <trkpt lat="46.20188" lon="3.8064">
        <ele>544.4918</ele>
        <time>2011-11-11T11:13:23Z</time>
      </trkpt>
      <trkpt lat="46.20174" lon="3.80618">
        <ele>544.2766</ele>
        <time>2011-11-11T11:13:25Z</time>
      </trkpt>
      <trkpt lat="46.20161" lon="3.80597">
        <ele>543.9056</ele>
        <time>2011-11-11T11:13:27Z</time>
      </trkpt>
      <trkpt lat="46.20148" lon="3.80578">
        <ele>543.5094</ele>
        <time>2011-11-11T11:13:29Z</time>
      </trkpt>
      <trkpt lat="46.20133" lon="3.8055">
        <ele>542.9649</ele>
        <time>2011-11-11T11:13:32Z</time>
      </trkpt>
      <trkpt lat="46.20116" lon="3.8052">
        <ele>542.40704</ele>
        <time>2011-11-11T11:13:35Z</time>
      </trkpt>
      <trkpt lat="46.20099" lon="3.8049">
        <ele>541.92175</ele>
        <time>2011-11-11T11:13:38Z</time>
      </trkpt>
      <trkpt lat="46.20084" lon="3.80464">
        <ele>541.38885</ele>
        <time>2011-11-11T11:13:41Z</time>
      </trkpt>
      <trkpt lat="46.2007" lon="3.8044">
        <ele>540.58594</ele>
        <time>2011-11-11T11:13:44Z</time>
      </trkpt>
      <trkpt lat="46.20079" lon="3.80417">
        <ele>539.2762</ele>
        <time>2011-11-11T11:13:50Z</time>
      </trkpt>
      <trkpt lat="46.201" lon="3.80414">
        <ele>537.9663</ele>
        <time>2011-11-11T11:13:54Z</time>
      </trkpt>
      <trkpt lat="46.20123" lon="3.8041">
        <ele>536.6182</ele>
        <time>2011-11-11T11:13:58Z</time>
      </trkpt>
      <trkpt lat="46.20146" lon="3.8041">
        <ele>534.41705</ele>
        <time>2011-11-11T11:14:01Z</time>
      </trkpt>
      <trkpt lat="46.20169" lon="3.80419">
        <ele>532.1916</ele>
        <time>2011-11-11T11:14:04Z</time>
      </trkpt>
      <trkpt lat="46.20191" lon="3.80434">
        <ele>530.48706</ele>
        <time>2011-11-11T11:14:07Z</time>
      </trkpt>
      <trkpt lat="46.2021" lon="3.80453">
        <ele>529.1899</ele>
        <time>2011-11-11T11:14:10Z</time>
      </trkpt>
      <trkpt lat="46.20228" lon="3.80472">
        <ele>528.06445</ele>
        <time>2011-11-11T11:14:13Z</time>
      </trkpt>
      <trkpt lat="46.20246" lon="3.8049">
        <ele>527.4491</ele>
        <time>2011-11-11T11:14:16Z</time>
      </trkpt>
      <trkpt lat="46.20264" lon="3.80507">
        <ele>526.021</ele>
        <time>2011-11-11T11:14:20Z</time>
      </trkpt>
      <trkpt lat="46.2028" lon="3.80524">
        <ele>524.49493</ele>
        <time>2011-11-11T11:14:24Z</time>
      </trkpt>
      <trkpt lat="46.20298" lon="3.80537">
        <ele>521.0803</ele>
        <time>2011-11-11T11:14:29Z</time>
      </trkpt>
      <trkpt lat="46.20316" lon="3.80535">
        <ele>518.8301</ele>
        <time>2011-11-11T11:14:33Z</time>
      </trkpt>
      <trkpt lat="46.20337" lon="3.80535">
        <ele>517.0009</ele>
        <time>2011-11-11T11:14:37Z</time>
      </trkpt>
      <trkpt lat="46.20355" lon="3.80539">
        <ele>516.85974</ele>
        <time>2011-11-11T11:14:40Z</time>
      </trkpt>
      <trkpt lat="46.20375" lon="3.80554">
        <ele>516.9556</ele>
        <time>2011-11-11T11:14:44Z</time>
      </trkpt>
      <trkpt lat="46.20395" lon="3.80571">
        <ele>516.98596</ele>
        <time>2011-11-11T11:14:48Z</time>
      </trkpt>
      <trkpt lat="46.20412" lon="3.80586">
        <ele>516.99554</ele>
        <time>2011-11-11T11:14:52Z</time>
      </trkpt>
      <trkpt lat="46.2043" lon="3.80605">
        <ele>517.2492</ele>
        <time>2011-11-11T11:14:58Z</time>
      </trkpt>
      <trkpt lat="46.20447" lon="3.80623">
        <ele>517.76245</ele>
        <time>2011-11-11T11:15:02Z</time>
      </trkpt>
      <trkpt lat="46.20468" lon="3.80627">
        <ele>517.34674</ele>
        <time>2011-11-11T11:15:06Z</time>
      </trkpt>
      <trkpt lat="46.20481" lon="3.80599">
        <ele>518.0433</ele>
        <time>2011-11-11T11:15:10Z</time>
      </trkpt>
      <trkpt lat="46.20483" lon="3.80571">
        <ele>519.0339</ele>
        <time>2011-11-11T11:15:13Z</time>
      </trkpt>
      <trkpt lat="46.20481" lon="3.80543">
        <ele>520.0299</ele>
        <time>2011-11-11T11:15:16Z</time>
      </trkpt>
      <trkpt lat="46.20485" lon="3.80517">
        <ele>521.2712</ele>
        <time>2011-11-11T11:15:20Z</time>
      </trkpt>
      <trkpt lat="46.20503" lon="3.80507">
        <ele>522.40515</ele>
        <time>2011-11-11T11:15:25Z</time>
      </trkpt>
      <trkpt lat="46.2052" lon="3.8049">
        <ele>523.43695</ele>
        <time>2011-11-11T11:15:30Z</time>
      </trkpt>
      <trkpt lat="46.20529" lon="3.80462">
        <ele>523.82184</ele>
        <time>2011-11-11T11:15:34Z</time>
      </trkpt>
      <trkpt lat="46.20535" lon="3.80432">
        <ele>523.48737</ele>
        <time>2011-11-11T11:15:37Z</time>
      </trkpt>
      <trkpt lat="46.20543" lon="3.80399">
        <ele>522.9556</ele>
        <time>2011-11-11T11:15:40Z</time>
      </trkpt>
      <trkpt lat="46.20549" lon="3.80367">
        <ele>522.15314</ele>
        <time>2011-11-11T11:15:43Z</time>
      </trkpt>
      <trkpt lat="46.20556" lon="3.80337">
        <ele>521.4865</ele>
        <time>2011-11-11T11:15:46Z</time>
      </trkpt>
      <trkpt lat="46.20561" lon="3.80309">
        <ele>521.20526</ele>
        <time>2011-11-11T11:15:49Z</time>
      </trkpt>
      <trkpt lat="46.20567" lon="3.80284">
        <ele>521.3366</ele>
        <time>2011-11-11T11:15:52Z</time>
      </trkpt>
      <trkpt lat="46.20572" lon="3.80256">
        <ele>521.7201</ele>
        <time>2011-11-11T11:15:55Z</time>
      </trkpt>
      <trkpt lat="46.2057" lon="3.80221">
        <ele>521.91144</ele>
        <time>2011-11-11T11:15:59Z</time>
      </trkpt>
      <trkpt lat="46.20565" lon="3.80191">
        <ele>521.39386</ele>
        <time>2011-11-11T11:16:03Z</time>
      </trkpt>
      <trkpt lat="46.20562" lon="3.80166">
        <ele>520.72864</ele>
        <time>2011-11-11T11:16:06Z</time>
      </trkpt>
      <trkpt lat="46.20561" lon="3.80131">
        <ele>520.2305</ele>
        <time>2011-11-11T11:16:10Z</time>
      </trkpt>
      <trkpt lat="46.20561" lon="3.80101">
        <ele>520.07294</ele>
        <time>2011-11-11T11:16:14Z</time>
      </trkpt>
      <trkpt lat="46.20561" lon="3.80071">
        <ele>520.6012</ele>
        <time>2011-11-11T11:16:18Z</time>
      </trkpt>
      <trkpt lat="46.20561" lon="3.80039">
        <ele>521.668</ele>
        <time>2011-11-11T11:16:23Z</time>
      </trkpt>
      <trkpt lat="46.20564" lon="3.80009">
        <ele>523.262</ele>
        <time>2011-11-11T11:16:28Z</time>
      </trkpt>
      <trkpt lat="46.20567" lon="3.79981">
        <ele>524.5085</ele>
        <time>2011-11-11T11:16:33Z</time>
      </trkpt>
      <trkpt lat="46.20566" lon="3.79953">
        <ele>524.91254</ele>
        <time>2011-11-11T11:16:39Z</time>
      </trkpt>
      <trkpt lat="46.20547" lon="3.79936">
        <ele>525.8154</ele>
        <time>2011-11-11T11:16:48Z</time>
      </trkpt>
      <trkpt lat="46.2053" lon="3.79923">
        <ele>525.98615</ele>
        <time>2011-11-11T11:16:57Z</time>
      </trkpt>
      <trkpt lat="46.20505" lon="3.79923">
        <ele>527</ele>
        <time>2011-11-11T11:18:23Z</time>
      </trkpt>
      <trkpt lat="46.20494" lon="3.79902">
        <ele>533.9976</ele>
        <time>2011-11-11T11:19:47Z</time>
      </trkpt>
    </trkseg>
  </trk>
</gpx>